<?xml version="1.0" encoding="UTF-8" standalone="no" ?>
<gpx xmlns="http://www.topografix.com/GPX/1/1" xmlns:xsi="http://www.w3.org/2001/XMLSchema-instance" xsi:schemaLocation="http://www.topografix.com/GPX/1/1 http://www.topografix.com/GPX/1/1/gpx.xsd" version="1.1" creator="VisuGPX - https://www.visugpx.com">
  <metadata>
    <name>Vacqueyras : Dardel - Tour Sarrasine - Grand Montmirail - Saint-Christophe - Les Trois Yeux</name>
    <desc><![CDATA[Boucle de niveau difficile.]]></desc>
  </metadata>
  <trk>
    <name><![CDATA[2020-05-23 11:06:12 nettoyé]]></name>
    <trkseg>
      <trkpt lat="44.13836" lon="4.98689">
        <ele>123</ele>
        <time>2020-05-23T05:45:17Z</time>
      </trkpt>
      <trkpt lat="44.13836" lon="4.98689">
        <ele>123</ele>
        <time>2020-05-23T05:45:18Z</time>
      </trkpt>
      <trkpt lat="44.13835" lon="4.98689">
        <ele>123</ele>
        <time>2020-05-23T05:45:48Z</time>
      </trkpt>
      <trkpt lat="44.13835" lon="4.98696">
        <ele>123</ele>
        <time>2020-05-23T05:46:00Z</time>
      </trkpt>
      <trkpt lat="44.13834" lon="4.98698">
        <ele>123</ele>
        <time>2020-05-23T05:46:13Z</time>
      </trkpt>
      <trkpt lat="44.13834" lon="4.98729">
        <ele>124</ele>
        <time>2020-05-23T05:46:24Z</time>
      </trkpt>
      <trkpt lat="44.13834" lon="4.98753">
        <ele>124</ele>
        <time>2020-05-23T05:46:31Z</time>
      </trkpt>
      <trkpt lat="44.13841" lon="4.98781">
        <ele>124</ele>
        <time>2020-05-23T05:46:40Z</time>
      </trkpt>
      <trkpt lat="44.13855" lon="4.98809">
        <ele>123</ele>
        <time>2020-05-23T05:46:49Z</time>
      </trkpt>
      <trkpt lat="44.13868" lon="4.9883">
        <ele>124</ele>
        <time>2020-05-23T05:46:57Z</time>
      </trkpt>
      <trkpt lat="44.13884" lon="4.98858">
        <ele>125</ele>
        <time>2020-05-23T05:47:07Z</time>
      </trkpt>
      <trkpt lat="44.13901" lon="4.98885">
        <ele>125</ele>
        <time>2020-05-23T05:47:17Z</time>
      </trkpt>
      <trkpt lat="44.13914" lon="4.98909">
        <ele>126</ele>
        <time>2020-05-23T05:47:26Z</time>
      </trkpt>
      <trkpt lat="44.13925" lon="4.98929">
        <ele>127</ele>
        <time>2020-05-23T05:47:34Z</time>
      </trkpt>
      <trkpt lat="44.13947" lon="4.98945">
        <ele>129</ele>
        <time>2020-05-23T05:47:44Z</time>
      </trkpt>
      <trkpt lat="44.13972" lon="4.98959">
        <ele>129</ele>
        <time>2020-05-23T05:47:54Z</time>
      </trkpt>
      <trkpt lat="44.13997" lon="4.98971">
        <ele>129</ele>
        <time>2020-05-23T05:48:05Z</time>
      </trkpt>
      <trkpt lat="44.1402" lon="4.98986">
        <ele>130</ele>
        <time>2020-05-23T05:48:16Z</time>
      </trkpt>
      <trkpt lat="44.1404" lon="4.99001">
        <ele>131</ele>
        <time>2020-05-23T05:48:26Z</time>
      </trkpt>
      <trkpt lat="44.1406" lon="4.99013">
        <ele>132</ele>
        <time>2020-05-23T05:48:36Z</time>
      </trkpt>
      <trkpt lat="44.14082" lon="4.99018">
        <ele>134</ele>
        <time>2020-05-23T05:48:48Z</time>
      </trkpt>
      <trkpt lat="44.14104" lon="4.9902">
        <ele>136</ele>
        <time>2020-05-23T05:48:58Z</time>
      </trkpt>
      <trkpt lat="44.14125" lon="4.99022">
        <ele>138</ele>
        <time>2020-05-23T05:49:08Z</time>
      </trkpt>
      <trkpt lat="44.14149" lon="4.99029">
        <ele>140</ele>
        <time>2020-05-23T05:49:18Z</time>
      </trkpt>
      <trkpt lat="44.14175" lon="4.99045">
        <ele>142</ele>
        <time>2020-05-23T05:49:31Z</time>
      </trkpt>
      <trkpt lat="44.14193" lon="4.99061">
        <ele>143</ele>
        <time>2020-05-23T05:49:40Z</time>
      </trkpt>
      <trkpt lat="44.14215" lon="4.99077">
        <ele>145</ele>
        <time>2020-05-23T05:49:51Z</time>
      </trkpt>
      <trkpt lat="44.14233" lon="4.99087">
        <ele>146</ele>
        <time>2020-05-23T05:50:01Z</time>
      </trkpt>
      <trkpt lat="44.14255" lon="4.99095">
        <ele>147</ele>
        <time>2020-05-23T05:50:11Z</time>
      </trkpt>
      <trkpt lat="44.14281" lon="4.99102">
        <ele>149</ele>
        <time>2020-05-23T05:50:22Z</time>
      </trkpt>
      <trkpt lat="44.14311" lon="4.99109">
        <ele>150</ele>
        <time>2020-05-23T05:50:34Z</time>
      </trkpt>
      <trkpt lat="44.14343" lon="4.99117">
        <ele>152</ele>
        <time>2020-05-23T05:50:47Z</time>
      </trkpt>
      <trkpt lat="44.14367" lon="4.99125">
        <ele>154</ele>
        <time>2020-05-23T05:50:57Z</time>
      </trkpt>
      <trkpt lat="44.14394" lon="4.99137">
        <ele>155</ele>
        <time>2020-05-23T05:51:08Z</time>
      </trkpt>
      <trkpt lat="44.14422" lon="4.99145">
        <ele>156</ele>
        <time>2020-05-23T05:51:19Z</time>
      </trkpt>
      <trkpt lat="44.14447" lon="4.99153">
        <ele>157</ele>
        <time>2020-05-23T05:51:29Z</time>
      </trkpt>
      <trkpt lat="44.14474" lon="4.9916">
        <ele>158</ele>
        <time>2020-05-23T05:51:40Z</time>
      </trkpt>
      <trkpt lat="44.14499" lon="4.99166">
        <ele>159</ele>
        <time>2020-05-23T05:51:50Z</time>
      </trkpt>
      <trkpt lat="44.14526" lon="4.99169">
        <ele>160</ele>
        <time>2020-05-23T05:52:00Z</time>
      </trkpt>
      <trkpt lat="44.14557" lon="4.99174">
        <ele>161</ele>
        <time>2020-05-23T05:52:13Z</time>
      </trkpt>
      <trkpt lat="44.14583" lon="4.9918">
        <ele>162</ele>
        <time>2020-05-23T05:52:24Z</time>
      </trkpt>
      <trkpt lat="44.14604" lon="4.99185">
        <ele>163</ele>
        <time>2020-05-23T05:52:33Z</time>
      </trkpt>
      <trkpt lat="44.14625" lon="4.99195">
        <ele>163</ele>
        <time>2020-05-23T05:52:43Z</time>
      </trkpt>
      <trkpt lat="44.14634" lon="4.992">
        <ele>163</ele>
        <time>2020-05-23T05:52:47Z</time>
      </trkpt>
      <trkpt lat="44.14652" lon="4.99206">
        <ele>164</ele>
        <time>2020-05-23T05:52:57Z</time>
      </trkpt>
      <trkpt lat="44.14658" lon="4.99217">
        <ele>163</ele>
        <time>2020-05-23T05:53:14Z</time>
      </trkpt>
      <trkpt lat="44.14659" lon="4.99214">
        <ele>163</ele>
        <time>2020-05-23T05:53:33Z</time>
      </trkpt>
      <trkpt lat="44.14658" lon="4.99209">
        <ele>164</ele>
        <time>2020-05-23T05:53:47Z</time>
      </trkpt>
      <trkpt lat="44.14659" lon="4.99207">
        <ele>164</ele>
        <time>2020-05-23T05:53:49Z</time>
      </trkpt>
      <trkpt lat="44.1466" lon="4.99206">
        <ele>164</ele>
        <time>2020-05-23T05:53:50Z</time>
      </trkpt>
      <trkpt lat="44.14662" lon="4.99204">
        <ele>165</ele>
        <time>2020-05-23T05:53:51Z</time>
      </trkpt>
      <trkpt lat="44.14685" lon="4.99195">
        <ele>167</ele>
        <time>2020-05-23T05:54:00Z</time>
      </trkpt>
      <trkpt lat="44.14697" lon="4.99194">
        <ele>168</ele>
        <time>2020-05-23T05:54:05Z</time>
      </trkpt>
      <trkpt lat="44.147" lon="4.99194">
        <ele>168</ele>
        <time>2020-05-23T05:54:06Z</time>
      </trkpt>
      <trkpt lat="44.14724" lon="4.99198">
        <ele>169</ele>
        <time>2020-05-23T05:54:16Z</time>
      </trkpt>
      <trkpt lat="44.14725" lon="4.99201">
        <ele>168</ele>
        <time>2020-05-23T05:54:17Z</time>
      </trkpt>
      <trkpt lat="44.14726" lon="4.99204">
        <ele>168</ele>
        <time>2020-05-23T05:54:18Z</time>
      </trkpt>
      <trkpt lat="44.14739" lon="4.99238">
        <ele>163</ele>
        <time>2020-05-23T05:54:29Z</time>
      </trkpt>
      <trkpt lat="44.14742" lon="4.99258">
        <ele>162</ele>
        <time>2020-05-23T05:54:34Z</time>
      </trkpt>
      <trkpt lat="44.14747" lon="4.99284">
        <ele>164</ele>
        <time>2020-05-23T05:54:43Z</time>
      </trkpt>
      <trkpt lat="44.14753" lon="4.99306">
        <ele>165</ele>
        <time>2020-05-23T05:54:52Z</time>
      </trkpt>
      <trkpt lat="44.1476" lon="4.99314">
        <ele>166</ele>
        <time>2020-05-23T05:54:57Z</time>
      </trkpt>
      <trkpt lat="44.14762" lon="4.99314">
        <ele>166</ele>
        <time>2020-05-23T05:54:58Z</time>
      </trkpt>
      <trkpt lat="44.14764" lon="4.99314">
        <ele>166</ele>
        <time>2020-05-23T05:54:59Z</time>
      </trkpt>
      <trkpt lat="44.14785" lon="4.99323">
        <ele>167</ele>
        <time>2020-05-23T05:55:10Z</time>
      </trkpt>
      <trkpt lat="44.1481" lon="4.99331">
        <ele>168</ele>
        <time>2020-05-23T05:55:22Z</time>
      </trkpt>
      <trkpt lat="44.14835" lon="4.99338">
        <ele>169</ele>
        <time>2020-05-23T05:55:32Z</time>
      </trkpt>
      <trkpt lat="44.14852" lon="4.99364">
        <ele>171</ele>
        <time>2020-05-23T05:55:43Z</time>
      </trkpt>
      <trkpt lat="44.14862" lon="4.99383">
        <ele>172</ele>
        <time>2020-05-23T05:55:50Z</time>
      </trkpt>
      <trkpt lat="44.14862" lon="4.99385">
        <ele>172</ele>
        <time>2020-05-23T05:55:51Z</time>
      </trkpt>
      <trkpt lat="44.14863" lon="4.99388">
        <ele>173</ele>
        <time>2020-05-23T05:55:52Z</time>
      </trkpt>
      <trkpt lat="44.14864" lon="4.99391">
        <ele>173</ele>
        <time>2020-05-23T05:55:53Z</time>
      </trkpt>
      <trkpt lat="44.14865" lon="4.99394">
        <ele>173</ele>
        <time>2020-05-23T05:55:54Z</time>
      </trkpt>
      <trkpt lat="44.14866" lon="4.99397">
        <ele>173</ele>
        <time>2020-05-23T05:55:55Z</time>
      </trkpt>
      <trkpt lat="44.14866" lon="4.994">
        <ele>174</ele>
        <time>2020-05-23T05:55:56Z</time>
      </trkpt>
      <trkpt lat="44.14875" lon="4.99429">
        <ele>176</ele>
        <time>2020-05-23T05:56:07Z</time>
      </trkpt>
      <trkpt lat="44.14884" lon="4.99459">
        <ele>179</ele>
        <time>2020-05-23T05:56:17Z</time>
      </trkpt>
      <trkpt lat="44.14885" lon="4.99484">
        <ele>181</ele>
        <time>2020-05-23T05:56:24Z</time>
      </trkpt>
      <trkpt lat="44.14885" lon="4.99487">
        <ele>181</ele>
        <time>2020-05-23T05:56:25Z</time>
      </trkpt>
      <trkpt lat="44.14886" lon="4.99521">
        <ele>185</ele>
        <time>2020-05-23T05:56:37Z</time>
      </trkpt>
      <trkpt lat="44.14885" lon="4.99523">
        <ele>185</ele>
        <time>2020-05-23T05:56:38Z</time>
      </trkpt>
      <trkpt lat="44.14873" lon="4.99538">
        <ele>186</ele>
        <time>2020-05-23T05:56:46Z</time>
      </trkpt>
      <trkpt lat="44.14866" lon="4.99547">
        <ele>187</ele>
        <time>2020-05-23T05:56:50Z</time>
      </trkpt>
      <trkpt lat="44.14866" lon="4.9955">
        <ele>187</ele>
        <time>2020-05-23T05:56:51Z</time>
      </trkpt>
      <trkpt lat="44.14867" lon="4.99553">
        <ele>188</ele>
        <time>2020-05-23T05:56:52Z</time>
      </trkpt>
      <trkpt lat="44.14868" lon="4.99556">
        <ele>188</ele>
        <time>2020-05-23T05:56:53Z</time>
      </trkpt>
      <trkpt lat="44.14869" lon="4.99557">
        <ele>188</ele>
        <time>2020-05-23T05:56:54Z</time>
      </trkpt>
      <trkpt lat="44.14871" lon="4.99559">
        <ele>189</ele>
        <time>2020-05-23T05:56:55Z</time>
      </trkpt>
      <trkpt lat="44.14886" lon="4.99569">
        <ele>191</ele>
        <time>2020-05-23T05:57:04Z</time>
      </trkpt>
      <trkpt lat="44.14906" lon="4.99587">
        <ele>195</ele>
        <time>2020-05-23T05:57:15Z</time>
      </trkpt>
      <trkpt lat="44.14923" lon="4.99601">
        <ele>197</ele>
        <time>2020-05-23T05:57:26Z</time>
      </trkpt>
      <trkpt lat="44.14927" lon="4.99603">
        <ele>197</ele>
        <time>2020-05-23T05:57:29Z</time>
      </trkpt>
      <trkpt lat="44.14929" lon="4.99603">
        <ele>197</ele>
        <time>2020-05-23T05:57:30Z</time>
      </trkpt>
      <trkpt lat="44.14932" lon="4.99603">
        <ele>197</ele>
        <time>2020-05-23T05:57:31Z</time>
      </trkpt>
      <trkpt lat="44.14934" lon="4.99603">
        <ele>197</ele>
        <time>2020-05-23T05:57:32Z</time>
      </trkpt>
      <trkpt lat="44.14936" lon="4.99602">
        <ele>197</ele>
        <time>2020-05-23T05:57:33Z</time>
      </trkpt>
      <trkpt lat="44.14946" lon="4.99607">
        <ele>198</ele>
        <time>2020-05-23T05:57:39Z</time>
      </trkpt>
      <trkpt lat="44.14947" lon="4.99609">
        <ele>198</ele>
        <time>2020-05-23T05:57:40Z</time>
      </trkpt>
      <trkpt lat="44.14949" lon="4.99611">
        <ele>198</ele>
        <time>2020-05-23T05:57:41Z</time>
      </trkpt>
      <trkpt lat="44.1495" lon="4.99613">
        <ele>199</ele>
        <time>2020-05-23T05:57:42Z</time>
      </trkpt>
      <trkpt lat="44.14951" lon="4.99615">
        <ele>199</ele>
        <time>2020-05-23T05:57:43Z</time>
      </trkpt>
      <trkpt lat="44.14953" lon="4.99616">
        <ele>199</ele>
        <time>2020-05-23T05:57:44Z</time>
      </trkpt>
      <trkpt lat="44.14954" lon="4.99616">
        <ele>199</ele>
        <time>2020-05-23T05:57:45Z</time>
      </trkpt>
      <trkpt lat="44.14956" lon="4.99616">
        <ele>199</ele>
        <time>2020-05-23T05:57:46Z</time>
      </trkpt>
      <trkpt lat="44.14972" lon="4.99604">
        <ele>198</ele>
        <time>2020-05-23T05:57:56Z</time>
      </trkpt>
      <trkpt lat="44.14993" lon="4.99606">
        <ele>199</ele>
        <time>2020-05-23T05:58:06Z</time>
      </trkpt>
      <trkpt lat="44.14996" lon="4.99609">
        <ele>199</ele>
        <time>2020-05-23T05:58:08Z</time>
      </trkpt>
      <trkpt lat="44.14998" lon="4.99611">
        <ele>199</ele>
        <time>2020-05-23T05:58:09Z</time>
      </trkpt>
      <trkpt lat="44.15008" lon="4.99637">
        <ele>202</ele>
        <time>2020-05-23T05:58:18Z</time>
      </trkpt>
      <trkpt lat="44.15021" lon="4.99669">
        <ele>207</ele>
        <time>2020-05-23T05:58:29Z</time>
      </trkpt>
      <trkpt lat="44.15035" lon="4.99696">
        <ele>210</ele>
        <time>2020-05-23T05:58:41Z</time>
      </trkpt>
      <trkpt lat="44.15036" lon="4.99706">
        <ele>211</ele>
        <time>2020-05-23T05:58:45Z</time>
      </trkpt>
      <trkpt lat="44.15035" lon="4.99709">
        <ele>212</ele>
        <time>2020-05-23T05:58:46Z</time>
      </trkpt>
      <trkpt lat="44.15034" lon="4.99711">
        <ele>212</ele>
        <time>2020-05-23T05:58:47Z</time>
      </trkpt>
      <trkpt lat="44.15032" lon="4.99713">
        <ele>212</ele>
        <time>2020-05-23T05:58:48Z</time>
      </trkpt>
      <trkpt lat="44.1503" lon="4.99715">
        <ele>212</ele>
        <time>2020-05-23T05:58:49Z</time>
      </trkpt>
      <trkpt lat="44.15017" lon="4.99732">
        <ele>214</ele>
        <time>2020-05-23T05:58:58Z</time>
      </trkpt>
      <trkpt lat="44.15002" lon="4.99751">
        <ele>216</ele>
        <time>2020-05-23T05:59:09Z</time>
      </trkpt>
      <trkpt lat="44.14995" lon="4.99774">
        <ele>218</ele>
        <time>2020-05-23T05:59:19Z</time>
      </trkpt>
      <trkpt lat="44.14995" lon="4.99777">
        <ele>218</ele>
        <time>2020-05-23T05:59:20Z</time>
      </trkpt>
      <trkpt lat="44.14995" lon="4.9978">
        <ele>219</ele>
        <time>2020-05-23T05:59:21Z</time>
      </trkpt>
      <trkpt lat="44.14995" lon="4.99783">
        <ele>219</ele>
        <time>2020-05-23T05:59:22Z</time>
      </trkpt>
      <trkpt lat="44.14996" lon="4.99786">
        <ele>219</ele>
        <time>2020-05-23T05:59:23Z</time>
      </trkpt>
      <trkpt lat="44.14996" lon="4.99788">
        <ele>220</ele>
        <time>2020-05-23T05:59:24Z</time>
      </trkpt>
      <trkpt lat="44.14996" lon="4.99791">
        <ele>220</ele>
        <time>2020-05-23T05:59:25Z</time>
      </trkpt>
      <trkpt lat="44.15002" lon="4.99812">
        <ele>223</ele>
        <time>2020-05-23T05:59:34Z</time>
      </trkpt>
      <trkpt lat="44.15006" lon="4.99834">
        <ele>225</ele>
        <time>2020-05-23T05:59:44Z</time>
      </trkpt>
      <trkpt lat="44.15013" lon="4.99854">
        <ele>228</ele>
        <time>2020-05-23T05:59:53Z</time>
      </trkpt>
      <trkpt lat="44.15015" lon="4.99854">
        <ele>228</ele>
        <time>2020-05-23T05:59:54Z</time>
      </trkpt>
      <trkpt lat="44.15017" lon="4.99853">
        <ele>229</ele>
        <time>2020-05-23T05:59:55Z</time>
      </trkpt>
      <trkpt lat="44.15018" lon="4.99853">
        <ele>229</ele>
        <time>2020-05-23T05:59:56Z</time>
      </trkpt>
      <trkpt lat="44.1502" lon="4.99852">
        <ele>229</ele>
        <time>2020-05-23T05:59:57Z</time>
      </trkpt>
      <trkpt lat="44.15031" lon="4.99851">
        <ele>230</ele>
        <time>2020-05-23T06:00:05Z</time>
      </trkpt>
      <trkpt lat="44.15033" lon="4.99852">
        <ele>230</ele>
        <time>2020-05-23T06:00:06Z</time>
      </trkpt>
      <trkpt lat="44.15034" lon="4.99853">
        <ele>230</ele>
        <time>2020-05-23T06:00:07Z</time>
      </trkpt>
      <trkpt lat="44.15036" lon="4.99854">
        <ele>230</ele>
        <time>2020-05-23T06:00:08Z</time>
      </trkpt>
      <trkpt lat="44.15038" lon="4.99856">
        <ele>231</ele>
        <time>2020-05-23T06:00:09Z</time>
      </trkpt>
      <trkpt lat="44.15039" lon="4.99858">
        <ele>231</ele>
        <time>2020-05-23T06:00:10Z</time>
      </trkpt>
      <trkpt lat="44.1504" lon="4.99861">
        <ele>232</ele>
        <time>2020-05-23T06:00:11Z</time>
      </trkpt>
      <trkpt lat="44.15041" lon="4.99863">
        <ele>232</ele>
        <time>2020-05-23T06:00:12Z</time>
      </trkpt>
      <trkpt lat="44.15042" lon="4.99865">
        <ele>233</ele>
        <time>2020-05-23T06:00:13Z</time>
      </trkpt>
      <trkpt lat="44.15044" lon="4.99869">
        <ele>233</ele>
        <time>2020-05-23T06:00:15Z</time>
      </trkpt>
      <trkpt lat="44.15045" lon="4.99871">
        <ele>234</ele>
        <time>2020-05-23T06:00:16Z</time>
      </trkpt>
      <trkpt lat="44.15046" lon="4.99874">
        <ele>234</ele>
        <time>2020-05-23T06:00:17Z</time>
      </trkpt>
      <trkpt lat="44.15047" lon="4.99876">
        <ele>235</ele>
        <time>2020-05-23T06:00:18Z</time>
      </trkpt>
      <trkpt lat="44.15047" lon="4.99878">
        <ele>235</ele>
        <time>2020-05-23T06:00:19Z</time>
      </trkpt>
      <trkpt lat="44.15047" lon="4.9988">
        <ele>235</ele>
        <time>2020-05-23T06:00:20Z</time>
      </trkpt>
      <trkpt lat="44.15046" lon="4.99882">
        <ele>235</ele>
        <time>2020-05-23T06:00:21Z</time>
      </trkpt>
      <trkpt lat="44.15045" lon="4.99884">
        <ele>236</ele>
        <time>2020-05-23T06:00:22Z</time>
      </trkpt>
      <trkpt lat="44.15044" lon="4.99886">
        <ele>236</ele>
        <time>2020-05-23T06:00:23Z</time>
      </trkpt>
      <trkpt lat="44.15035" lon="4.99909">
        <ele>238</ele>
        <time>2020-05-23T06:00:32Z</time>
      </trkpt>
      <trkpt lat="44.15026" lon="4.99937">
        <ele>240</ele>
        <time>2020-05-23T06:00:42Z</time>
      </trkpt>
      <trkpt lat="44.15017" lon="4.99965">
        <ele>243</ele>
        <time>2020-05-23T06:00:51Z</time>
      </trkpt>
      <trkpt lat="44.15009" lon="4.99997">
        <ele>245</ele>
        <time>2020-05-23T06:01:01Z</time>
      </trkpt>
      <trkpt lat="44.15005" lon="5.00007">
        <ele>244</ele>
        <time>2020-05-23T06:01:04Z</time>
      </trkpt>
      <trkpt lat="44.15003" lon="5.0001">
        <ele>243</ele>
        <time>2020-05-23T06:01:05Z</time>
      </trkpt>
      <trkpt lat="44.15001" lon="5.00012">
        <ele>243</ele>
        <time>2020-05-23T06:01:06Z</time>
      </trkpt>
      <trkpt lat="44.14984" lon="5.00035">
        <ele>245</ele>
        <time>2020-05-23T06:01:17Z</time>
      </trkpt>
      <trkpt lat="44.14973" lon="5.00044">
        <ele>246</ele>
        <time>2020-05-23T06:01:26Z</time>
      </trkpt>
      <trkpt lat="44.14974" lon="5.00044">
        <ele>246</ele>
        <time>2020-05-23T06:01:30Z</time>
      </trkpt>
      <trkpt lat="44.14974" lon="5.00041">
        <ele>245</ele>
        <time>2020-05-23T06:01:51Z</time>
      </trkpt>
      <trkpt lat="44.14973" lon="5.00045">
        <ele>246</ele>
        <time>2020-05-23T06:02:14Z</time>
      </trkpt>
      <trkpt lat="44.14964" lon="5.00054">
        <ele>248</ele>
        <time>2020-05-23T06:02:20Z</time>
      </trkpt>
      <trkpt lat="44.14947" lon="5.00059">
        <ele>249</ele>
        <time>2020-05-23T06:02:27Z</time>
      </trkpt>
      <trkpt lat="44.14945" lon="5.0006">
        <ele>249</ele>
        <time>2020-05-23T06:02:28Z</time>
      </trkpt>
      <trkpt lat="44.14944" lon="5.00062">
        <ele>250</ele>
        <time>2020-05-23T06:02:29Z</time>
      </trkpt>
      <trkpt lat="44.14944" lon="5.00065">
        <ele>250</ele>
        <time>2020-05-23T06:02:30Z</time>
      </trkpt>
      <trkpt lat="44.14944" lon="5.00067">
        <ele>251</ele>
        <time>2020-05-23T06:02:31Z</time>
      </trkpt>
      <trkpt lat="44.14946" lon="5.00069">
        <ele>251</ele>
        <time>2020-05-23T06:02:32Z</time>
      </trkpt>
      <trkpt lat="44.14947" lon="5.00071">
        <ele>252</ele>
        <time>2020-05-23T06:02:33Z</time>
      </trkpt>
      <trkpt lat="44.14949" lon="5.00072">
        <ele>252</ele>
        <time>2020-05-23T06:02:34Z</time>
      </trkpt>
      <trkpt lat="44.14951" lon="5.00072">
        <ele>253</ele>
        <time>2020-05-23T06:02:35Z</time>
      </trkpt>
      <trkpt lat="44.14972" lon="5.00071">
        <ele>253</ele>
        <time>2020-05-23T06:02:46Z</time>
      </trkpt>
      <trkpt lat="44.14993" lon="5.00066">
        <ele>253</ele>
        <time>2020-05-23T06:02:57Z</time>
      </trkpt>
      <trkpt lat="44.15003" lon="5.00061">
        <ele>253</ele>
        <time>2020-05-23T06:03:02Z</time>
      </trkpt>
      <trkpt lat="44.15005" lon="5.00061">
        <ele>253</ele>
        <time>2020-05-23T06:03:03Z</time>
      </trkpt>
      <trkpt lat="44.15006" lon="5.00061">
        <ele>253</ele>
        <time>2020-05-23T06:03:04Z</time>
      </trkpt>
      <trkpt lat="44.15008" lon="5.0006">
        <ele>253</ele>
        <time>2020-05-23T06:03:05Z</time>
      </trkpt>
      <trkpt lat="44.15011" lon="5.00059">
        <ele>253</ele>
        <time>2020-05-23T06:03:06Z</time>
      </trkpt>
      <trkpt lat="44.15013" lon="5.00058">
        <ele>254</ele>
        <time>2020-05-23T06:03:07Z</time>
      </trkpt>
      <trkpt lat="44.15028" lon="5.00065">
        <ele>257</ele>
        <time>2020-05-23T06:03:15Z</time>
      </trkpt>
      <trkpt lat="44.15029" lon="5.00067">
        <ele>257</ele>
        <time>2020-05-23T06:03:16Z</time>
      </trkpt>
      <trkpt lat="44.15028" lon="5.00071">
        <ele>257</ele>
        <time>2020-05-23T06:03:18Z</time>
      </trkpt>
      <trkpt lat="44.15026" lon="5.00072">
        <ele>257</ele>
        <time>2020-05-23T06:03:20Z</time>
      </trkpt>
      <trkpt lat="44.15025" lon="5.00073">
        <ele>257</ele>
        <time>2020-05-23T06:03:21Z</time>
      </trkpt>
      <trkpt lat="44.15023" lon="5.00073">
        <ele>257</ele>
        <time>2020-05-23T06:03:22Z</time>
      </trkpt>
      <trkpt lat="44.15022" lon="5.00073">
        <ele>257</ele>
        <time>2020-05-23T06:03:23Z</time>
      </trkpt>
      <trkpt lat="44.1502" lon="5.00073">
        <ele>257</ele>
        <time>2020-05-23T06:03:24Z</time>
      </trkpt>
      <trkpt lat="44.15018" lon="5.00073">
        <ele>256</ele>
        <time>2020-05-23T06:03:25Z</time>
      </trkpt>
      <trkpt lat="44.15016" lon="5.00074">
        <ele>256</ele>
        <time>2020-05-23T06:03:26Z</time>
      </trkpt>
      <trkpt lat="44.15014" lon="5.00076">
        <ele>256</ele>
        <time>2020-05-23T06:03:27Z</time>
      </trkpt>
      <trkpt lat="44.14992" lon="5.00096">
        <ele>261</ele>
        <time>2020-05-23T06:03:39Z</time>
      </trkpt>
      <trkpt lat="44.14972" lon="5.00115">
        <ele>268</ele>
        <time>2020-05-23T06:03:50Z</time>
      </trkpt>
      <trkpt lat="44.14958" lon="5.0012">
        <ele>267</ele>
        <time>2020-05-23T06:03:58Z</time>
      </trkpt>
      <trkpt lat="44.14956" lon="5.00121">
        <ele>267</ele>
        <time>2020-05-23T06:03:59Z</time>
      </trkpt>
      <trkpt lat="44.14954" lon="5.00122">
        <ele>267</ele>
        <time>2020-05-23T06:04:00Z</time>
      </trkpt>
      <trkpt lat="44.14953" lon="5.00124">
        <ele>267</ele>
        <time>2020-05-23T06:04:01Z</time>
      </trkpt>
      <trkpt lat="44.14951" lon="5.00126">
        <ele>268</ele>
        <time>2020-05-23T06:04:02Z</time>
      </trkpt>
      <trkpt lat="44.1495" lon="5.00128">
        <ele>268</ele>
        <time>2020-05-23T06:04:03Z</time>
      </trkpt>
      <trkpt lat="44.14942" lon="5.00145">
        <ele>270</ele>
        <time>2020-05-23T06:04:08Z</time>
      </trkpt>
      <trkpt lat="44.14942" lon="5.00149">
        <ele>270</ele>
        <time>2020-05-23T06:04:09Z</time>
      </trkpt>
      <trkpt lat="44.14942" lon="5.00152">
        <ele>270</ele>
        <time>2020-05-23T06:04:10Z</time>
      </trkpt>
      <trkpt lat="44.14943" lon="5.00156">
        <ele>270</ele>
        <time>2020-05-23T06:04:11Z</time>
      </trkpt>
      <trkpt lat="44.14943" lon="5.00159">
        <ele>270</ele>
        <time>2020-05-23T06:04:12Z</time>
      </trkpt>
      <trkpt lat="44.14944" lon="5.00162">
        <ele>271</ele>
        <time>2020-05-23T06:04:13Z</time>
      </trkpt>
      <trkpt lat="44.14945" lon="5.00165">
        <ele>271</ele>
        <time>2020-05-23T06:04:14Z</time>
      </trkpt>
      <trkpt lat="44.14957" lon="5.00188">
        <ele>271</ele>
        <time>2020-05-23T06:04:23Z</time>
      </trkpt>
      <trkpt lat="44.14965" lon="5.00208">
        <ele>273</ele>
        <time>2020-05-23T06:04:31Z</time>
      </trkpt>
      <trkpt lat="44.14964" lon="5.0021">
        <ele>273</ele>
        <time>2020-05-23T06:04:32Z</time>
      </trkpt>
      <trkpt lat="44.14963" lon="5.00212">
        <ele>273</ele>
        <time>2020-05-23T06:04:33Z</time>
      </trkpt>
      <trkpt lat="44.14961" lon="5.00216">
        <ele>272</ele>
        <time>2020-05-23T06:04:35Z</time>
      </trkpt>
      <trkpt lat="44.14959" lon="5.00218">
        <ele>271</ele>
        <time>2020-05-23T06:04:36Z</time>
      </trkpt>
      <trkpt lat="44.14941" lon="5.00248">
        <ele>272</ele>
        <time>2020-05-23T06:04:47Z</time>
      </trkpt>
      <trkpt lat="44.14919" lon="5.00258">
        <ele>272</ele>
        <time>2020-05-23T06:04:57Z</time>
      </trkpt>
      <trkpt lat="44.14894" lon="5.00258">
        <ele>271</ele>
        <time>2020-05-23T06:05:08Z</time>
      </trkpt>
      <trkpt lat="44.14879" lon="5.00276">
        <ele>273</ele>
        <time>2020-05-23T06:05:16Z</time>
      </trkpt>
      <trkpt lat="44.14863" lon="5.00296">
        <ele>274</ele>
        <time>2020-05-23T06:05:26Z</time>
      </trkpt>
      <trkpt lat="44.14848" lon="5.00302">
        <ele>275</ele>
        <time>2020-05-23T06:05:34Z</time>
      </trkpt>
      <trkpt lat="44.14843" lon="5.00306">
        <ele>276</ele>
        <time>2020-05-23T06:05:37Z</time>
      </trkpt>
      <trkpt lat="44.14842" lon="5.00309">
        <ele>277</ele>
        <time>2020-05-23T06:05:38Z</time>
      </trkpt>
      <trkpt lat="44.14841" lon="5.00312">
        <ele>277</ele>
        <time>2020-05-23T06:05:39Z</time>
      </trkpt>
      <trkpt lat="44.14841" lon="5.00315">
        <ele>277</ele>
        <time>2020-05-23T06:05:40Z</time>
      </trkpt>
      <trkpt lat="44.1484" lon="5.00318">
        <ele>278</ele>
        <time>2020-05-23T06:05:41Z</time>
      </trkpt>
      <trkpt lat="44.14839" lon="5.00321">
        <ele>278</ele>
        <time>2020-05-23T06:05:42Z</time>
      </trkpt>
      <trkpt lat="44.14838" lon="5.00324">
        <ele>279</ele>
        <time>2020-05-23T06:05:43Z</time>
      </trkpt>
      <trkpt lat="44.14837" lon="5.00326">
        <ele>279</ele>
        <time>2020-05-23T06:05:44Z</time>
      </trkpt>
      <trkpt lat="44.14836" lon="5.00326">
        <ele>279</ele>
        <time>2020-05-23T06:05:48Z</time>
      </trkpt>
      <trkpt lat="44.14836" lon="5.00324">
        <ele>279</ele>
        <time>2020-05-23T06:05:49Z</time>
      </trkpt>
      <trkpt lat="44.14836" lon="5.0031">
        <ele>277</ele>
        <time>2020-05-23T06:05:54Z</time>
      </trkpt>
      <trkpt lat="44.14826" lon="5.00288">
        <ele>272</ele>
        <time>2020-05-23T06:06:02Z</time>
      </trkpt>
      <trkpt lat="44.14822" lon="5.00286">
        <ele>272</ele>
        <time>2020-05-23T06:06:04Z</time>
      </trkpt>
      <trkpt lat="44.14804" lon="5.00298">
        <ele>272</ele>
        <time>2020-05-23T06:06:13Z</time>
      </trkpt>
      <trkpt lat="44.14797" lon="5.00308">
        <ele>272</ele>
        <time>2020-05-23T06:06:17Z</time>
      </trkpt>
      <trkpt lat="44.1478" lon="5.00334">
        <ele>270</ele>
        <time>2020-05-23T06:06:26Z</time>
      </trkpt>
      <trkpt lat="44.14765" lon="5.00352">
        <ele>269</ele>
        <time>2020-05-23T06:06:33Z</time>
      </trkpt>
      <trkpt lat="44.14742" lon="5.00366">
        <ele>268</ele>
        <time>2020-05-23T06:06:42Z</time>
      </trkpt>
      <trkpt lat="44.14709" lon="5.0038">
        <ele>264</ele>
        <time>2020-05-23T06:06:51Z</time>
      </trkpt>
      <trkpt lat="44.14708" lon="5.00383">
        <ele>264</ele>
        <time>2020-05-23T06:06:52Z</time>
      </trkpt>
      <trkpt lat="44.14708" lon="5.00386">
        <ele>264</ele>
        <time>2020-05-23T06:06:53Z</time>
      </trkpt>
      <trkpt lat="44.14708" lon="5.00388">
        <ele>264</ele>
        <time>2020-05-23T06:06:54Z</time>
      </trkpt>
      <trkpt lat="44.14708" lon="5.00391">
        <ele>264</ele>
        <time>2020-05-23T06:06:55Z</time>
      </trkpt>
      <trkpt lat="44.14709" lon="5.00393">
        <ele>265</ele>
        <time>2020-05-23T06:06:56Z</time>
      </trkpt>
      <trkpt lat="44.14709" lon="5.00395">
        <ele>265</ele>
        <time>2020-05-23T06:06:57Z</time>
      </trkpt>
      <trkpt lat="44.14709" lon="5.00397">
        <ele>265</ele>
        <time>2020-05-23T06:06:58Z</time>
      </trkpt>
      <trkpt lat="44.14708" lon="5.00399">
        <ele>265</ele>
        <time>2020-05-23T06:06:59Z</time>
      </trkpt>
      <trkpt lat="44.14711" lon="5.00438">
        <ele>267</ele>
        <time>2020-05-23T06:07:12Z</time>
      </trkpt>
      <trkpt lat="44.1471" lon="5.00453">
        <ele>269</ele>
        <time>2020-05-23T06:07:17Z</time>
      </trkpt>
      <trkpt lat="44.1469" lon="5.00474">
        <ele>272</ele>
        <time>2020-05-23T06:07:28Z</time>
      </trkpt>
      <trkpt lat="44.14686" lon="5.00478">
        <ele>273</ele>
        <time>2020-05-23T06:07:30Z</time>
      </trkpt>
      <trkpt lat="44.14684" lon="5.00479">
        <ele>273</ele>
        <time>2020-05-23T06:07:31Z</time>
      </trkpt>
      <trkpt lat="44.14665" lon="5.0049">
        <ele>276</ele>
        <time>2020-05-23T06:07:42Z</time>
      </trkpt>
      <trkpt lat="44.14643" lon="5.00505">
        <ele>277</ele>
        <time>2020-05-23T06:07:52Z</time>
      </trkpt>
      <trkpt lat="44.14627" lon="5.00513">
        <ele>276</ele>
        <time>2020-05-23T06:07:59Z</time>
      </trkpt>
      <trkpt lat="44.1461" lon="5.00519">
        <ele>272</ele>
        <time>2020-05-23T06:08:07Z</time>
      </trkpt>
      <trkpt lat="44.14598" lon="5.00523">
        <ele>269</ele>
        <time>2020-05-23T06:08:12Z</time>
      </trkpt>
      <trkpt lat="44.14596" lon="5.00524">
        <ele>269</ele>
        <time>2020-05-23T06:08:13Z</time>
      </trkpt>
      <trkpt lat="44.14594" lon="5.00525">
        <ele>268</ele>
        <time>2020-05-23T06:08:14Z</time>
      </trkpt>
      <trkpt lat="44.14581" lon="5.00527">
        <ele>264</ele>
        <time>2020-05-23T06:08:18Z</time>
      </trkpt>
      <trkpt lat="44.14562" lon="5.0054">
        <ele>262</ele>
        <time>2020-05-23T06:08:25Z</time>
      </trkpt>
      <trkpt lat="44.14555" lon="5.00559">
        <ele>262</ele>
        <time>2020-05-23T06:08:32Z</time>
      </trkpt>
      <trkpt lat="44.14553" lon="5.00562">
        <ele>262</ele>
        <time>2020-05-23T06:08:33Z</time>
      </trkpt>
      <trkpt lat="44.14552" lon="5.00564">
        <ele>262</ele>
        <time>2020-05-23T06:08:34Z</time>
      </trkpt>
      <trkpt lat="44.1455" lon="5.00566">
        <ele>262</ele>
        <time>2020-05-23T06:08:35Z</time>
      </trkpt>
      <trkpt lat="44.14549" lon="5.00568">
        <ele>262</ele>
        <time>2020-05-23T06:08:36Z</time>
      </trkpt>
      <trkpt lat="44.14548" lon="5.0057">
        <ele>262</ele>
        <time>2020-05-23T06:08:37Z</time>
      </trkpt>
      <trkpt lat="44.14547" lon="5.00573">
        <ele>262</ele>
        <time>2020-05-23T06:08:38Z</time>
      </trkpt>
      <trkpt lat="44.14546" lon="5.00576">
        <ele>262</ele>
        <time>2020-05-23T06:08:39Z</time>
      </trkpt>
      <trkpt lat="44.14545" lon="5.00579">
        <ele>262</ele>
        <time>2020-05-23T06:08:40Z</time>
      </trkpt>
      <trkpt lat="44.14543" lon="5.00582">
        <ele>261</ele>
        <time>2020-05-23T06:08:41Z</time>
      </trkpt>
      <trkpt lat="44.14542" lon="5.00584">
        <ele>261</ele>
        <time>2020-05-23T06:08:42Z</time>
      </trkpt>
      <trkpt lat="44.1454" lon="5.00587">
        <ele>261</ele>
        <time>2020-05-23T06:08:43Z</time>
      </trkpt>
      <trkpt lat="44.14538" lon="5.00589">
        <ele>261</ele>
        <time>2020-05-23T06:08:44Z</time>
      </trkpt>
      <trkpt lat="44.14535" lon="5.00591">
        <ele>260</ele>
        <time>2020-05-23T06:08:45Z</time>
      </trkpt>
      <trkpt lat="44.14533" lon="5.00593">
        <ele>260</ele>
        <time>2020-05-23T06:08:46Z</time>
      </trkpt>
      <trkpt lat="44.14531" lon="5.00594">
        <ele>259</ele>
        <time>2020-05-23T06:08:47Z</time>
      </trkpt>
      <trkpt lat="44.14529" lon="5.00596">
        <ele>259</ele>
        <time>2020-05-23T06:08:48Z</time>
      </trkpt>
      <trkpt lat="44.14511" lon="5.00605">
        <ele>259</ele>
        <time>2020-05-23T06:08:58Z</time>
      </trkpt>
      <trkpt lat="44.14507" lon="5.00609">
        <ele>260</ele>
        <time>2020-05-23T06:09:01Z</time>
      </trkpt>
      <trkpt lat="44.14505" lon="5.00611">
        <ele>260</ele>
        <time>2020-05-23T06:09:02Z</time>
      </trkpt>
      <trkpt lat="44.14486" lon="5.00625">
        <ele>263</ele>
        <time>2020-05-23T06:09:13Z</time>
      </trkpt>
      <trkpt lat="44.14475" lon="5.00636">
        <ele>263</ele>
        <time>2020-05-23T06:09:20Z</time>
      </trkpt>
      <trkpt lat="44.14471" lon="5.00638">
        <ele>262</ele>
        <time>2020-05-23T06:09:22Z</time>
      </trkpt>
      <trkpt lat="44.14468" lon="5.0064">
        <ele>262</ele>
        <time>2020-05-23T06:09:23Z</time>
      </trkpt>
      <trkpt lat="44.14464" lon="5.00646">
        <ele>262</ele>
        <time>2020-05-23T06:09:26Z</time>
      </trkpt>
      <trkpt lat="44.14463" lon="5.00648">
        <ele>263</ele>
        <time>2020-05-23T06:09:27Z</time>
      </trkpt>
      <trkpt lat="44.14462" lon="5.0065">
        <ele>263</ele>
        <time>2020-05-23T06:09:28Z</time>
      </trkpt>
      <trkpt lat="44.14461" lon="5.00655">
        <ele>264</ele>
        <time>2020-05-23T06:09:30Z</time>
      </trkpt>
      <trkpt lat="44.1446" lon="5.00659">
        <ele>265</ele>
        <time>2020-05-23T06:09:32Z</time>
      </trkpt>
      <trkpt lat="44.14455" lon="5.0067">
        <ele>265</ele>
        <time>2020-05-23T06:09:39Z</time>
      </trkpt>
      <trkpt lat="44.14447" lon="5.00677">
        <ele>264</ele>
        <time>2020-05-23T06:09:42Z</time>
      </trkpt>
      <trkpt lat="44.14445" lon="5.0068">
        <ele>264</ele>
        <time>2020-05-23T06:09:43Z</time>
      </trkpt>
      <trkpt lat="44.14443" lon="5.00683">
        <ele>264</ele>
        <time>2020-05-23T06:09:44Z</time>
      </trkpt>
      <trkpt lat="44.14441" lon="5.00685">
        <ele>263</ele>
        <time>2020-05-23T06:09:45Z</time>
      </trkpt>
      <trkpt lat="44.1444" lon="5.00688">
        <ele>264</ele>
        <time>2020-05-23T06:09:46Z</time>
      </trkpt>
      <trkpt lat="44.14438" lon="5.00691">
        <ele>264</ele>
        <time>2020-05-23T06:09:47Z</time>
      </trkpt>
      <trkpt lat="44.14437" lon="5.00694">
        <ele>264</ele>
        <time>2020-05-23T06:09:48Z</time>
      </trkpt>
      <trkpt lat="44.14437" lon="5.00696">
        <ele>264</ele>
        <time>2020-05-23T06:09:49Z</time>
      </trkpt>
      <trkpt lat="44.14437" lon="5.00699">
        <ele>265</ele>
        <time>2020-05-23T06:09:50Z</time>
      </trkpt>
      <trkpt lat="44.14437" lon="5.00701">
        <ele>265</ele>
        <time>2020-05-23T06:09:51Z</time>
      </trkpt>
      <trkpt lat="44.14431" lon="5.00714">
        <ele>266</ele>
        <time>2020-05-23T06:09:59Z</time>
      </trkpt>
      <trkpt lat="44.1443" lon="5.00716">
        <ele>265</ele>
        <time>2020-05-23T06:10:00Z</time>
      </trkpt>
      <trkpt lat="44.14428" lon="5.0072">
        <ele>265</ele>
        <time>2020-05-23T06:10:02Z</time>
      </trkpt>
      <trkpt lat="44.14414" lon="5.0075">
        <ele>261</ele>
        <time>2020-05-23T06:10:12Z</time>
      </trkpt>
      <trkpt lat="44.14414" lon="5.00755">
        <ele>261</ele>
        <time>2020-05-23T06:10:14Z</time>
      </trkpt>
      <trkpt lat="44.14419" lon="5.00788">
        <ele>266</ele>
        <time>2020-05-23T06:10:26Z</time>
      </trkpt>
      <trkpt lat="44.14424" lon="5.00815">
        <ele>269</ele>
        <time>2020-05-23T06:10:36Z</time>
      </trkpt>
      <trkpt lat="44.14427" lon="5.00827">
        <ele>270</ele>
        <time>2020-05-23T06:10:41Z</time>
      </trkpt>
      <trkpt lat="44.14428" lon="5.00829">
        <ele>271</ele>
        <time>2020-05-23T06:10:42Z</time>
      </trkpt>
      <trkpt lat="44.14436" lon="5.00854">
        <ele>272</ele>
        <time>2020-05-23T06:10:53Z</time>
      </trkpt>
      <trkpt lat="44.14437" lon="5.00856">
        <ele>272</ele>
        <time>2020-05-23T06:10:54Z</time>
      </trkpt>
      <trkpt lat="44.14447" lon="5.00866">
        <ele>274</ele>
        <time>2020-05-23T06:11:03Z</time>
      </trkpt>
      <trkpt lat="44.1446" lon="5.00886">
        <ele>277</ele>
        <time>2020-05-23T06:11:12Z</time>
      </trkpt>
      <trkpt lat="44.14469" lon="5.00899">
        <ele>280</ele>
        <time>2020-05-23T06:11:22Z</time>
      </trkpt>
      <trkpt lat="44.14468" lon="5.00909">
        <ele>281</ele>
        <time>2020-05-23T06:11:27Z</time>
      </trkpt>
      <trkpt lat="44.14458" lon="5.00929">
        <ele>283</ele>
        <time>2020-05-23T06:11:39Z</time>
      </trkpt>
      <trkpt lat="44.14447" lon="5.00958">
        <ele>286</ele>
        <time>2020-05-23T06:11:53Z</time>
      </trkpt>
      <trkpt lat="44.14433" lon="5.00982">
        <ele>290</ele>
        <time>2020-05-23T06:12:06Z</time>
      </trkpt>
      <trkpt lat="44.14432" lon="5.00986">
        <ele>291</ele>
        <time>2020-05-23T06:12:07Z</time>
      </trkpt>
      <trkpt lat="44.14431" lon="5.00988">
        <ele>291</ele>
        <time>2020-05-23T06:12:08Z</time>
      </trkpt>
      <trkpt lat="44.1443" lon="5.00991">
        <ele>292</ele>
        <time>2020-05-23T06:12:09Z</time>
      </trkpt>
      <trkpt lat="44.1443" lon="5.00993">
        <ele>292</ele>
        <time>2020-05-23T06:12:10Z</time>
      </trkpt>
      <trkpt lat="44.14429" lon="5.00995">
        <ele>293</ele>
        <time>2020-05-23T06:12:11Z</time>
      </trkpt>
      <trkpt lat="44.14428" lon="5.00997">
        <ele>293</ele>
        <time>2020-05-23T06:12:12Z</time>
      </trkpt>
      <trkpt lat="44.14414" lon="5.01009">
        <ele>295</ele>
        <time>2020-05-23T06:12:20Z</time>
      </trkpt>
      <trkpt lat="44.14403" lon="5.01024">
        <ele>299</ele>
        <time>2020-05-23T06:12:29Z</time>
      </trkpt>
      <trkpt lat="44.14389" lon="5.01036">
        <ele>300</ele>
        <time>2020-05-23T06:12:42Z</time>
      </trkpt>
      <trkpt lat="44.14385" lon="5.01039">
        <ele>301</ele>
        <time>2020-05-23T06:12:46Z</time>
      </trkpt>
      <trkpt lat="44.14383" lon="5.01039">
        <ele>301</ele>
        <time>2020-05-23T06:12:47Z</time>
      </trkpt>
      <trkpt lat="44.14381" lon="5.0104">
        <ele>300</ele>
        <time>2020-05-23T06:12:48Z</time>
      </trkpt>
      <trkpt lat="44.14374" lon="5.01048">
        <ele>300</ele>
        <time>2020-05-23T06:13:06Z</time>
      </trkpt>
      <trkpt lat="44.14373" lon="5.01061">
        <ele>301</ele>
        <time>2020-05-23T06:13:13Z</time>
      </trkpt>
      <trkpt lat="44.14368" lon="5.01079">
        <ele>303</ele>
        <time>2020-05-23T06:13:19Z</time>
      </trkpt>
      <trkpt lat="44.14367" lon="5.01085">
        <ele>303</ele>
        <time>2020-05-23T06:13:22Z</time>
      </trkpt>
      <trkpt lat="44.14349" lon="5.01113">
        <ele>303</ele>
        <time>2020-05-23T06:13:34Z</time>
      </trkpt>
      <trkpt lat="44.14347" lon="5.01121">
        <ele>303</ele>
        <time>2020-05-23T06:13:37Z</time>
      </trkpt>
      <trkpt lat="44.1436" lon="5.01148">
        <ele>303</ele>
        <time>2020-05-23T06:13:49Z</time>
      </trkpt>
      <trkpt lat="44.14365" lon="5.0115">
        <ele>304</ele>
        <time>2020-05-23T06:13:51Z</time>
      </trkpt>
      <trkpt lat="44.14381" lon="5.01148">
        <ele>310</ele>
        <time>2020-05-23T06:14:00Z</time>
      </trkpt>
      <trkpt lat="44.14402" lon="5.01143">
        <ele>315</ele>
        <time>2020-05-23T06:14:12Z</time>
      </trkpt>
      <trkpt lat="44.14428" lon="5.0114">
        <ele>316</ele>
        <time>2020-05-23T06:14:25Z</time>
      </trkpt>
      <trkpt lat="44.14456" lon="5.0114">
        <ele>311</ele>
        <time>2020-05-23T06:14:36Z</time>
      </trkpt>
      <trkpt lat="44.1448" lon="5.01128">
        <ele>309</ele>
        <time>2020-05-23T06:14:47Z</time>
      </trkpt>
      <trkpt lat="44.14496" lon="5.0111">
        <ele>312</ele>
        <time>2020-05-23T06:14:57Z</time>
      </trkpt>
      <trkpt lat="44.14518" lon="5.01094">
        <ele>315</ele>
        <time>2020-05-23T06:15:07Z</time>
      </trkpt>
      <trkpt lat="44.14543" lon="5.01073">
        <ele>318</ele>
        <time>2020-05-23T06:15:19Z</time>
      </trkpt>
      <trkpt lat="44.14548" lon="5.01076">
        <ele>318</ele>
        <time>2020-05-23T06:17:10Z</time>
      </trkpt>
      <trkpt lat="44.14558" lon="5.01083">
        <ele>317</ele>
        <time>2020-05-23T06:17:16Z</time>
      </trkpt>
      <trkpt lat="44.14586" lon="5.0109">
        <ele>318</ele>
        <time>2020-05-23T06:17:28Z</time>
      </trkpt>
      <trkpt lat="44.14608" lon="5.01096">
        <ele>319</ele>
        <time>2020-05-23T06:17:38Z</time>
      </trkpt>
      <trkpt lat="44.14632" lon="5.01107">
        <ele>320</ele>
        <time>2020-05-23T06:17:49Z</time>
      </trkpt>
      <trkpt lat="44.14636" lon="5.0111">
        <ele>320</ele>
        <time>2020-05-23T06:17:51Z</time>
      </trkpt>
      <trkpt lat="44.14646" lon="5.01116">
        <ele>320</ele>
        <time>2020-05-23T06:17:54Z</time>
      </trkpt>
      <trkpt lat="44.14648" lon="5.01117">
        <ele>321</ele>
        <time>2020-05-23T06:17:55Z</time>
      </trkpt>
      <trkpt lat="44.1465" lon="5.01117">
        <ele>321</ele>
        <time>2020-05-23T06:17:56Z</time>
      </trkpt>
      <trkpt lat="44.14652" lon="5.01118">
        <ele>322</ele>
        <time>2020-05-23T06:17:57Z</time>
      </trkpt>
      <trkpt lat="44.14661" lon="5.0112">
        <ele>323</ele>
        <time>2020-05-23T06:18:02Z</time>
      </trkpt>
      <trkpt lat="44.14663" lon="5.01122">
        <ele>323</ele>
        <time>2020-05-23T06:18:04Z</time>
      </trkpt>
      <trkpt lat="44.14664" lon="5.01124">
        <ele>323</ele>
        <time>2020-05-23T06:18:05Z</time>
      </trkpt>
      <trkpt lat="44.14671" lon="5.01134">
        <ele>321</ele>
        <time>2020-05-23T06:18:10Z</time>
      </trkpt>
      <trkpt lat="44.14681" lon="5.01153">
        <ele>316</ele>
        <time>2020-05-23T06:18:18Z</time>
      </trkpt>
      <trkpt lat="44.14682" lon="5.01155">
        <ele>315</ele>
        <time>2020-05-23T06:18:19Z</time>
      </trkpt>
      <trkpt lat="44.14682" lon="5.01158">
        <ele>314</ele>
        <time>2020-05-23T06:18:20Z</time>
      </trkpt>
      <trkpt lat="44.14682" lon="5.01161">
        <ele>313</ele>
        <time>2020-05-23T06:18:21Z</time>
      </trkpt>
      <trkpt lat="44.14682" lon="5.01165">
        <ele>312</ele>
        <time>2020-05-23T06:18:22Z</time>
      </trkpt>
      <trkpt lat="44.14686" lon="5.01174">
        <ele>311</ele>
        <time>2020-05-23T06:18:25Z</time>
      </trkpt>
      <trkpt lat="44.14686" lon="5.01179">
        <ele>311</ele>
        <time>2020-05-23T06:18:26Z</time>
      </trkpt>
      <trkpt lat="44.14687" lon="5.01182">
        <ele>311</ele>
        <time>2020-05-23T06:18:27Z</time>
      </trkpt>
      <trkpt lat="44.14688" lon="5.01185">
        <ele>311</ele>
        <time>2020-05-23T06:18:28Z</time>
      </trkpt>
      <trkpt lat="44.14689" lon="5.01197">
        <ele>311</ele>
        <time>2020-05-23T06:18:36Z</time>
      </trkpt>
      <trkpt lat="44.14694" lon="5.01201">
        <ele>312</ele>
        <time>2020-05-23T06:18:45Z</time>
      </trkpt>
      <trkpt lat="44.14695" lon="5.01202">
        <ele>312</ele>
        <time>2020-05-23T06:18:47Z</time>
      </trkpt>
      <trkpt lat="44.14696" lon="5.01207">
        <ele>313</ele>
        <time>2020-05-23T06:18:50Z</time>
      </trkpt>
      <trkpt lat="44.14697" lon="5.01209">
        <ele>314</ele>
        <time>2020-05-23T06:18:51Z</time>
      </trkpt>
      <trkpt lat="44.14698" lon="5.01213">
        <ele>315</ele>
        <time>2020-05-23T06:18:54Z</time>
      </trkpt>
      <trkpt lat="44.147" lon="5.01221">
        <ele>317</ele>
        <time>2020-05-23T06:19:03Z</time>
      </trkpt>
      <trkpt lat="44.14699" lon="5.01228">
        <ele>318</ele>
        <time>2020-05-23T06:19:09Z</time>
      </trkpt>
      <trkpt lat="44.14696" lon="5.01239">
        <ele>322</ele>
        <time>2020-05-23T06:19:17Z</time>
      </trkpt>
      <trkpt lat="44.14698" lon="5.01247">
        <ele>324</ele>
        <time>2020-05-23T06:19:24Z</time>
      </trkpt>
      <trkpt lat="44.147" lon="5.01252">
        <ele>325</ele>
        <time>2020-05-23T06:19:27Z</time>
      </trkpt>
      <trkpt lat="44.147" lon="5.01254">
        <ele>325</ele>
        <time>2020-05-23T06:19:28Z</time>
      </trkpt>
      <trkpt lat="44.14701" lon="5.01256">
        <ele>326</ele>
        <time>2020-05-23T06:19:29Z</time>
      </trkpt>
      <trkpt lat="44.14701" lon="5.01258">
        <ele>326</ele>
        <time>2020-05-23T06:19:30Z</time>
      </trkpt>
      <trkpt lat="44.14702" lon="5.0126">
        <ele>326</ele>
        <time>2020-05-23T06:19:31Z</time>
      </trkpt>
      <trkpt lat="44.14703" lon="5.01261">
        <ele>327</ele>
        <time>2020-05-23T06:19:32Z</time>
      </trkpt>
      <trkpt lat="44.14703" lon="5.01263">
        <ele>327</ele>
        <time>2020-05-23T06:19:33Z</time>
      </trkpt>
      <trkpt lat="44.14704" lon="5.01267">
        <ele>328</ele>
        <time>2020-05-23T06:19:35Z</time>
      </trkpt>
      <trkpt lat="44.14705" lon="5.01269">
        <ele>328</ele>
        <time>2020-05-23T06:19:36Z</time>
      </trkpt>
      <trkpt lat="44.14705" lon="5.01271">
        <ele>329</ele>
        <time>2020-05-23T06:19:37Z</time>
      </trkpt>
      <trkpt lat="44.14706" lon="5.01273">
        <ele>329</ele>
        <time>2020-05-23T06:19:38Z</time>
      </trkpt>
      <trkpt lat="44.14711" lon="5.01289">
        <ele>332</ele>
        <time>2020-05-23T06:19:47Z</time>
      </trkpt>
      <trkpt lat="44.14713" lon="5.01292">
        <ele>332</ele>
        <time>2020-05-23T06:19:48Z</time>
      </trkpt>
      <trkpt lat="44.14714" lon="5.01294">
        <ele>332</ele>
        <time>2020-05-23T06:19:49Z</time>
      </trkpt>
      <trkpt lat="44.14715" lon="5.01295">
        <ele>332</ele>
        <time>2020-05-23T06:19:50Z</time>
      </trkpt>
      <trkpt lat="44.14717" lon="5.01299">
        <ele>332</ele>
        <time>2020-05-23T06:19:51Z</time>
      </trkpt>
      <trkpt lat="44.14719" lon="5.01302">
        <ele>333</ele>
        <time>2020-05-23T06:19:52Z</time>
      </trkpt>
      <trkpt lat="44.14721" lon="5.01305">
        <ele>333</ele>
        <time>2020-05-23T06:19:53Z</time>
      </trkpt>
      <trkpt lat="44.14728" lon="5.01315">
        <ele>334</ele>
        <time>2020-05-23T06:19:57Z</time>
      </trkpt>
      <trkpt lat="44.14738" lon="5.0133">
        <ele>336</ele>
        <time>2020-05-23T06:20:06Z</time>
      </trkpt>
      <trkpt lat="44.14742" lon="5.01344">
        <ele>339</ele>
        <time>2020-05-23T06:20:16Z</time>
      </trkpt>
      <trkpt lat="44.14749" lon="5.01362">
        <ele>342</ele>
        <time>2020-05-23T06:20:25Z</time>
      </trkpt>
      <trkpt lat="44.14754" lon="5.01372">
        <ele>344</ele>
        <time>2020-05-23T06:20:30Z</time>
      </trkpt>
      <trkpt lat="44.14757" lon="5.01384">
        <ele>346</ele>
        <time>2020-05-23T06:20:37Z</time>
      </trkpt>
      <trkpt lat="44.14759" lon="5.01398">
        <ele>349</ele>
        <time>2020-05-23T06:20:46Z</time>
      </trkpt>
      <trkpt lat="44.1476" lon="5.01403">
        <ele>350</ele>
        <time>2020-05-23T06:20:50Z</time>
      </trkpt>
      <trkpt lat="44.14761" lon="5.01405">
        <ele>350</ele>
        <time>2020-05-23T06:20:51Z</time>
      </trkpt>
      <trkpt lat="44.14761" lon="5.01413">
        <ele>352</ele>
        <time>2020-05-23T06:20:57Z</time>
      </trkpt>
      <trkpt lat="44.14761" lon="5.01426">
        <ele>355</ele>
        <time>2020-05-23T06:21:05Z</time>
      </trkpt>
      <trkpt lat="44.1476" lon="5.01436">
        <ele>357</ele>
        <time>2020-05-23T06:21:15Z</time>
      </trkpt>
      <trkpt lat="44.1476" lon="5.01446">
        <ele>360</ele>
        <time>2020-05-23T06:21:24Z</time>
      </trkpt>
      <trkpt lat="44.1476" lon="5.01448">
        <ele>360</ele>
        <time>2020-05-23T06:21:25Z</time>
      </trkpt>
      <trkpt lat="44.14757" lon="5.01457">
        <ele>363</ele>
        <time>2020-05-23T06:21:32Z</time>
      </trkpt>
      <trkpt lat="44.14755" lon="5.01468">
        <ele>366</ele>
        <time>2020-05-23T06:21:40Z</time>
      </trkpt>
      <trkpt lat="44.14752" lon="5.01487">
        <ele>370</ele>
        <time>2020-05-23T06:21:51Z</time>
      </trkpt>
      <trkpt lat="44.1475" lon="5.01491">
        <ele>370</ele>
        <time>2020-05-23T06:21:54Z</time>
      </trkpt>
      <trkpt lat="44.14749" lon="5.01492">
        <ele>371</ele>
        <time>2020-05-23T06:21:55Z</time>
      </trkpt>
      <trkpt lat="44.14744" lon="5.015">
        <ele>374</ele>
        <time>2020-05-23T06:22:02Z</time>
      </trkpt>
      <trkpt lat="44.14742" lon="5.01502">
        <ele>375</ele>
        <time>2020-05-23T06:22:04Z</time>
      </trkpt>
      <trkpt lat="44.14736" lon="5.01512">
        <ele>377</ele>
        <time>2020-05-23T06:22:12Z</time>
      </trkpt>
      <trkpt lat="44.14735" lon="5.01513">
        <ele>377</ele>
        <time>2020-05-23T06:22:13Z</time>
      </trkpt>
      <trkpt lat="44.14734" lon="5.01516">
        <ele>378</ele>
        <time>2020-05-23T06:22:14Z</time>
      </trkpt>
      <trkpt lat="44.14734" lon="5.01518">
        <ele>378</ele>
        <time>2020-05-23T06:22:15Z</time>
      </trkpt>
      <trkpt lat="44.14734" lon="5.0152">
        <ele>378</ele>
        <time>2020-05-23T06:22:16Z</time>
      </trkpt>
      <trkpt lat="44.14733" lon="5.01523">
        <ele>378</ele>
        <time>2020-05-23T06:22:18Z</time>
      </trkpt>
      <trkpt lat="44.14733" lon="5.01525">
        <ele>378</ele>
        <time>2020-05-23T06:22:19Z</time>
      </trkpt>
      <trkpt lat="44.1473" lon="5.01531">
        <ele>379</ele>
        <time>2020-05-23T06:22:24Z</time>
      </trkpt>
      <trkpt lat="44.14728" lon="5.01533">
        <ele>379</ele>
        <time>2020-05-23T06:22:25Z</time>
      </trkpt>
      <trkpt lat="44.14727" lon="5.01535">
        <ele>379</ele>
        <time>2020-05-23T06:22:26Z</time>
      </trkpt>
      <trkpt lat="44.14727" lon="5.01536">
        <ele>379</ele>
        <time>2020-05-23T06:22:27Z</time>
      </trkpt>
      <trkpt lat="44.14726" lon="5.01538">
        <ele>379</ele>
        <time>2020-05-23T06:22:28Z</time>
      </trkpt>
      <trkpt lat="44.14721" lon="5.01562">
        <ele>378</ele>
        <time>2020-05-23T06:22:38Z</time>
      </trkpt>
      <trkpt lat="44.14715" lon="5.01591">
        <ele>378</ele>
        <time>2020-05-23T06:22:47Z</time>
      </trkpt>
      <trkpt lat="44.14706" lon="5.01625">
        <ele>378</ele>
        <time>2020-05-23T06:22:56Z</time>
      </trkpt>
      <trkpt lat="44.14703" lon="5.01637">
        <ele>377</ele>
        <time>2020-05-23T06:22:59Z</time>
      </trkpt>
      <trkpt lat="44.14696" lon="5.0167">
        <ele>376</ele>
        <time>2020-05-23T06:23:08Z</time>
      </trkpt>
      <trkpt lat="44.14691" lon="5.01703">
        <ele>375</ele>
        <time>2020-05-23T06:23:17Z</time>
      </trkpt>
      <trkpt lat="44.1469" lon="5.01743">
        <ele>377</ele>
        <time>2020-05-23T06:23:27Z</time>
      </trkpt>
      <trkpt lat="44.14685" lon="5.0178">
        <ele>377</ele>
        <time>2020-05-23T06:23:37Z</time>
      </trkpt>
      <trkpt lat="44.14662" lon="5.01805">
        <ele>381</ele>
        <time>2020-05-23T06:23:48Z</time>
      </trkpt>
      <trkpt lat="44.14634" lon="5.01824">
        <ele>380</ele>
        <time>2020-05-23T06:23:59Z</time>
      </trkpt>
      <trkpt lat="44.14606" lon="5.01837">
        <ele>377</ele>
        <time>2020-05-23T06:24:09Z</time>
      </trkpt>
      <trkpt lat="44.14582" lon="5.01844">
        <ele>374</ele>
        <time>2020-05-23T06:24:19Z</time>
      </trkpt>
      <trkpt lat="44.14572" lon="5.01856">
        <ele>374</ele>
        <time>2020-05-23T12:39:17Z</time>
      </trkpt>
      <trkpt lat="44.14573" lon="5.01879">
        <ele>375</ele>
        <time>2020-05-23T06:25:26Z</time>
      </trkpt>
      <trkpt lat="44.14586" lon="5.01906">
        <ele>377</ele>
        <time>2020-05-23T06:25:35Z</time>
      </trkpt>
      <trkpt lat="44.14595" lon="5.01933">
        <ele>379</ele>
        <time>2020-05-23T06:25:43Z</time>
      </trkpt>
      <trkpt lat="44.146" lon="5.01974">
        <ele>380</ele>
        <time>2020-05-23T06:25:54Z</time>
      </trkpt>
      <trkpt lat="44.14602" lon="5.02014">
        <ele>381</ele>
        <time>2020-05-23T06:26:03Z</time>
      </trkpt>
      <trkpt lat="44.14607" lon="5.02052">
        <ele>383</ele>
        <time>2020-05-23T06:26:13Z</time>
      </trkpt>
      <trkpt lat="44.14617" lon="5.02091">
        <ele>385</ele>
        <time>2020-05-23T06:26:24Z</time>
      </trkpt>
      <trkpt lat="44.14604" lon="5.0213">
        <ele>386</ele>
        <time>2020-05-23T06:26:35Z</time>
      </trkpt>
      <trkpt lat="44.1458" lon="5.02141">
        <ele>385</ele>
        <time>2020-05-23T06:26:45Z</time>
      </trkpt>
      <trkpt lat="44.14551" lon="5.02144">
        <ele>382</ele>
        <time>2020-05-23T06:26:55Z</time>
      </trkpt>
      <trkpt lat="44.14533" lon="5.02171">
        <ele>379</ele>
        <time>2020-05-23T06:27:04Z</time>
      </trkpt>
      <trkpt lat="44.14523" lon="5.02209">
        <ele>374</ele>
        <time>2020-05-23T06:27:13Z</time>
      </trkpt>
      <trkpt lat="44.14521" lon="5.02252">
        <ele>370</ele>
        <time>2020-05-23T06:27:23Z</time>
      </trkpt>
      <trkpt lat="44.14521" lon="5.02301">
        <ele>370</ele>
        <time>2020-05-23T06:27:34Z</time>
      </trkpt>
      <trkpt lat="44.14516" lon="5.02328">
        <ele>370</ele>
        <time>2020-05-23T06:27:42Z</time>
      </trkpt>
      <trkpt lat="44.14517" lon="5.0233">
        <ele>370</ele>
        <time>2020-05-23T06:27:43Z</time>
      </trkpt>
      <trkpt lat="44.14518" lon="5.0233">
        <ele>370</ele>
        <time>2020-05-23T06:27:44Z</time>
      </trkpt>
      <trkpt lat="44.1452" lon="5.02331">
        <ele>370</ele>
        <time>2020-05-23T06:27:45Z</time>
      </trkpt>
      <trkpt lat="44.14522" lon="5.02331">
        <ele>370</ele>
        <time>2020-05-23T06:27:46Z</time>
      </trkpt>
      <trkpt lat="44.14523" lon="5.02332">
        <ele>370</ele>
        <time>2020-05-23T06:27:47Z</time>
      </trkpt>
      <trkpt lat="44.14525" lon="5.02332">
        <ele>371</ele>
        <time>2020-05-23T06:27:48Z</time>
      </trkpt>
      <trkpt lat="44.14526" lon="5.02333">
        <ele>371</ele>
        <time>2020-05-23T06:27:49Z</time>
      </trkpt>
      <trkpt lat="44.1454" lon="5.02335">
        <ele>374</ele>
        <time>2020-05-23T06:27:57Z</time>
      </trkpt>
      <trkpt lat="44.14543" lon="5.02336">
        <ele>375</ele>
        <time>2020-05-23T06:27:59Z</time>
      </trkpt>
      <trkpt lat="44.14544" lon="5.02337">
        <ele>375</ele>
        <time>2020-05-23T06:28:00Z</time>
      </trkpt>
      <trkpt lat="44.14546" lon="5.02337">
        <ele>376</ele>
        <time>2020-05-23T06:28:01Z</time>
      </trkpt>
      <trkpt lat="44.14547" lon="5.02339">
        <ele>376</ele>
        <time>2020-05-23T06:28:02Z</time>
      </trkpt>
      <trkpt lat="44.14548" lon="5.02341">
        <ele>377</ele>
        <time>2020-05-23T06:28:03Z</time>
      </trkpt>
      <trkpt lat="44.14549" lon="5.02343">
        <ele>377</ele>
        <time>2020-05-23T06:28:04Z</time>
      </trkpt>
      <trkpt lat="44.1455" lon="5.02346">
        <ele>377</ele>
        <time>2020-05-23T06:28:05Z</time>
      </trkpt>
      <trkpt lat="44.1455" lon="5.02349">
        <ele>377</ele>
        <time>2020-05-23T06:28:06Z</time>
      </trkpt>
      <trkpt lat="44.14549" lon="5.02364">
        <ele>378</ele>
        <time>2020-05-23T06:28:11Z</time>
      </trkpt>
      <trkpt lat="44.14549" lon="5.02367">
        <ele>378</ele>
        <time>2020-05-23T06:28:12Z</time>
      </trkpt>
      <trkpt lat="44.14549" lon="5.0237">
        <ele>378</ele>
        <time>2020-05-23T06:28:13Z</time>
      </trkpt>
      <trkpt lat="44.1455" lon="5.02372">
        <ele>379</ele>
        <time>2020-05-23T06:28:14Z</time>
      </trkpt>
      <trkpt lat="44.14551" lon="5.02374">
        <ele>379</ele>
        <time>2020-05-23T06:28:15Z</time>
      </trkpt>
      <trkpt lat="44.14556" lon="5.02394">
        <ele>381</ele>
        <time>2020-05-23T06:28:24Z</time>
      </trkpt>
      <trkpt lat="44.14561" lon="5.02406">
        <ele>384</ele>
        <time>2020-05-23T06:28:30Z</time>
      </trkpt>
      <trkpt lat="44.14563" lon="5.02407">
        <ele>384</ele>
        <time>2020-05-23T06:28:31Z</time>
      </trkpt>
      <trkpt lat="44.14574" lon="5.02408">
        <ele>388</ele>
        <time>2020-05-23T06:28:40Z</time>
      </trkpt>
      <trkpt lat="44.14577" lon="5.02408">
        <ele>389</ele>
        <time>2020-05-23T06:28:42Z</time>
      </trkpt>
      <trkpt lat="44.14577" lon="5.02409">
        <ele>390</ele>
        <time>2020-05-23T06:28:43Z</time>
      </trkpt>
      <trkpt lat="44.14588" lon="5.02415">
        <ele>394</ele>
        <time>2020-05-23T06:28:53Z</time>
      </trkpt>
      <trkpt lat="44.14596" lon="5.02415">
        <ele>397</ele>
        <time>2020-05-23T06:29:02Z</time>
      </trkpt>
      <trkpt lat="44.14598" lon="5.02414">
        <ele>398</ele>
        <time>2020-05-23T06:29:03Z</time>
      </trkpt>
      <trkpt lat="44.14606" lon="5.02414">
        <ele>401</ele>
        <time>2020-05-23T06:29:12Z</time>
      </trkpt>
      <trkpt lat="44.14612" lon="5.02415">
        <ele>403</ele>
        <time>2020-05-23T06:29:21Z</time>
      </trkpt>
      <trkpt lat="44.14614" lon="5.02415">
        <ele>404</ele>
        <time>2020-05-23T06:29:24Z</time>
      </trkpt>
      <trkpt lat="44.14619" lon="5.02416">
        <ele>406</ele>
        <time>2020-05-23T06:29:29Z</time>
      </trkpt>
      <trkpt lat="44.14626" lon="5.02416">
        <ele>408</ele>
        <time>2020-05-23T06:29:37Z</time>
      </trkpt>
      <trkpt lat="44.14627" lon="5.02417">
        <ele>409</ele>
        <time>2020-05-23T06:29:38Z</time>
      </trkpt>
      <trkpt lat="44.14633" lon="5.02421">
        <ele>411</ele>
        <time>2020-05-23T06:29:45Z</time>
      </trkpt>
      <trkpt lat="44.14634" lon="5.02422">
        <ele>411</ele>
        <time>2020-05-23T06:29:46Z</time>
      </trkpt>
      <trkpt lat="44.14636" lon="5.02422">
        <ele>412</ele>
        <time>2020-05-23T06:29:48Z</time>
      </trkpt>
      <trkpt lat="44.14641" lon="5.02423">
        <ele>414</ele>
        <time>2020-05-23T06:29:57Z</time>
      </trkpt>
      <trkpt lat="44.14644" lon="5.02426">
        <ele>415</ele>
        <time>2020-05-23T06:30:40Z</time>
      </trkpt>
      <trkpt lat="44.14652" lon="5.02427">
        <ele>418</ele>
        <time>2020-05-23T06:30:50Z</time>
      </trkpt>
      <trkpt lat="44.14653" lon="5.02428">
        <ele>418</ele>
        <time>2020-05-23T06:30:51Z</time>
      </trkpt>
      <trkpt lat="44.14661" lon="5.02433">
        <ele>422</ele>
        <time>2020-05-23T06:31:02Z</time>
      </trkpt>
      <trkpt lat="44.14664" lon="5.02437">
        <ele>423</ele>
        <time>2020-05-23T06:31:07Z</time>
      </trkpt>
      <trkpt lat="44.14672" lon="5.02448">
        <ele>427</ele>
        <time>2020-05-23T06:31:17Z</time>
      </trkpt>
      <trkpt lat="44.14673" lon="5.02449">
        <ele>427</ele>
        <time>2020-05-23T06:31:18Z</time>
      </trkpt>
      <trkpt lat="44.14674" lon="5.02451">
        <ele>428</ele>
        <time>2020-05-23T06:31:19Z</time>
      </trkpt>
      <trkpt lat="44.14681" lon="5.02461">
        <ele>431</ele>
        <time>2020-05-23T06:31:29Z</time>
      </trkpt>
      <trkpt lat="44.14685" lon="5.02468">
        <ele>433</ele>
        <time>2020-05-23T06:31:35Z</time>
      </trkpt>
      <trkpt lat="44.14686" lon="5.0247">
        <ele>433</ele>
        <time>2020-05-23T06:31:36Z</time>
      </trkpt>
      <trkpt lat="44.14687" lon="5.02471">
        <ele>433</ele>
        <time>2020-05-23T06:31:37Z</time>
      </trkpt>
      <trkpt lat="44.14693" lon="5.02487">
        <ele>436</ele>
        <time>2020-05-23T06:31:48Z</time>
      </trkpt>
      <trkpt lat="44.14693" lon="5.02489">
        <ele>436</ele>
        <time>2020-05-23T06:31:49Z</time>
      </trkpt>
      <trkpt lat="44.14695" lon="5.02497">
        <ele>436</ele>
        <time>2020-05-23T06:31:53Z</time>
      </trkpt>
      <trkpt lat="44.14696" lon="5.025">
        <ele>437</ele>
        <time>2020-05-23T06:31:55Z</time>
      </trkpt>
      <trkpt lat="44.14702" lon="5.0252">
        <ele>440</ele>
        <time>2020-05-23T06:32:04Z</time>
      </trkpt>
      <trkpt lat="44.14705" lon="5.02538">
        <ele>441</ele>
        <time>2020-05-23T06:32:13Z</time>
      </trkpt>
      <trkpt lat="44.1471" lon="5.02545">
        <ele>444</ele>
        <time>2020-05-23T06:32:23Z</time>
      </trkpt>
      <trkpt lat="44.14711" lon="5.02543">
        <ele>445</ele>
        <time>2020-05-23T06:32:25Z</time>
      </trkpt>
      <trkpt lat="44.14711" lon="5.02541">
        <ele>446</ele>
        <time>2020-05-23T06:32:26Z</time>
      </trkpt>
      <trkpt lat="44.14717" lon="5.02525">
        <ele>451</ele>
        <time>2020-05-23T06:32:36Z</time>
      </trkpt>
      <trkpt lat="44.14722" lon="5.02508">
        <ele>454</ele>
        <time>2020-05-23T06:32:44Z</time>
      </trkpt>
      <trkpt lat="44.14722" lon="5.02506">
        <ele>454</ele>
        <time>2020-05-23T06:32:45Z</time>
      </trkpt>
      <trkpt lat="44.14723" lon="5.02504">
        <ele>454</ele>
        <time>2020-05-23T06:32:46Z</time>
      </trkpt>
      <trkpt lat="44.14727" lon="5.02485">
        <ele>456</ele>
        <time>2020-05-23T06:32:55Z</time>
      </trkpt>
      <trkpt lat="44.14728" lon="5.02481">
        <ele>456</ele>
        <time>2020-05-23T06:32:57Z</time>
      </trkpt>
      <trkpt lat="44.14729" lon="5.02479">
        <ele>457</ele>
        <time>2020-05-23T06:32:58Z</time>
      </trkpt>
      <trkpt lat="44.1473" lon="5.02477">
        <ele>457</ele>
        <time>2020-05-23T06:32:59Z</time>
      </trkpt>
      <trkpt lat="44.14731" lon="5.02475">
        <ele>458</ele>
        <time>2020-05-23T06:33:00Z</time>
      </trkpt>
      <trkpt lat="44.14732" lon="5.02474">
        <ele>458</ele>
        <time>2020-05-23T06:33:01Z</time>
      </trkpt>
      <trkpt lat="44.14733" lon="5.02472">
        <ele>459</ele>
        <time>2020-05-23T06:33:02Z</time>
      </trkpt>
      <trkpt lat="44.14736" lon="5.0247">
        <ele>461</ele>
        <time>2020-05-23T06:37:46Z</time>
      </trkpt>
      <trkpt lat="44.14736" lon="5.02465">
        <ele>461</ele>
        <time>2020-05-23T06:38:14Z</time>
      </trkpt>
      <trkpt lat="44.14738" lon="5.02464">
        <ele>463</ele>
        <time>2020-05-23T06:38:25Z</time>
      </trkpt>
      <trkpt lat="44.14743" lon="5.02461">
        <ele>466</ele>
        <time>2020-05-23T06:38:37Z</time>
      </trkpt>
      <trkpt lat="44.14745" lon="5.02456">
        <ele>467</ele>
        <time>2020-05-23T06:38:47Z</time>
      </trkpt>
      <trkpt lat="44.14745" lon="5.02456">
        <ele>467</ele>
        <time>2020-05-23T06:38:48Z</time>
      </trkpt>
      <trkpt lat="44.14748" lon="5.02454">
        <ele>469</ele>
        <time>2020-05-23T06:38:59Z</time>
      </trkpt>
      <trkpt lat="44.14753" lon="5.02447">
        <ele>471</ele>
        <time>2020-05-23T06:39:11Z</time>
      </trkpt>
      <trkpt lat="44.14753" lon="5.02444">
        <ele>471</ele>
        <time>2020-05-23T06:39:21Z</time>
      </trkpt>
      <trkpt lat="44.14752" lon="5.02441">
        <ele>471</ele>
        <time>2020-05-23T06:40:12Z</time>
      </trkpt>
      <trkpt lat="44.14754" lon="5.02436">
        <ele>471</ele>
        <time>2020-05-23T06:40:17Z</time>
      </trkpt>
      <trkpt lat="44.14764" lon="5.02434">
        <ele>475</ele>
        <time>2020-05-23T06:40:29Z</time>
      </trkpt>
      <trkpt lat="44.14769" lon="5.02432">
        <ele>478</ele>
        <time>2020-05-23T06:40:40Z</time>
      </trkpt>
      <trkpt lat="44.14776" lon="5.0243">
        <ele>480</ele>
        <time>2020-05-23T06:40:50Z</time>
      </trkpt>
      <trkpt lat="44.14781" lon="5.02432">
        <ele>482</ele>
        <time>2020-05-23T06:40:56Z</time>
      </trkpt>
      <trkpt lat="44.14797" lon="5.02432">
        <ele>487</ele>
        <time>2020-05-23T06:41:09Z</time>
      </trkpt>
      <trkpt lat="44.14809" lon="5.02429">
        <ele>489</ele>
        <time>2020-05-23T06:41:19Z</time>
      </trkpt>
      <trkpt lat="44.14822" lon="5.02432">
        <ele>492</ele>
        <time>2020-05-23T06:41:32Z</time>
      </trkpt>
      <trkpt lat="44.1484" lon="5.02431">
        <ele>495</ele>
        <time>2020-05-23T06:41:44Z</time>
      </trkpt>
      <trkpt lat="44.14854" lon="5.02436">
        <ele>499</ele>
        <time>2020-05-23T06:41:56Z</time>
      </trkpt>
      <trkpt lat="44.1487" lon="5.02437">
        <ele>502</ele>
        <time>2020-05-23T06:42:08Z</time>
      </trkpt>
      <trkpt lat="44.14884" lon="5.02441">
        <ele>506</ele>
        <time>2020-05-23T06:42:20Z</time>
      </trkpt>
      <trkpt lat="44.14895" lon="5.02441">
        <ele>508</ele>
        <time>2020-05-23T06:42:29Z</time>
      </trkpt>
      <trkpt lat="44.14911" lon="5.02443">
        <ele>512</ele>
        <time>2020-05-23T06:42:42Z</time>
      </trkpt>
      <trkpt lat="44.1492" lon="5.02444">
        <ele>514</ele>
        <time>2020-05-23T06:42:52Z</time>
      </trkpt>
      <trkpt lat="44.1492" lon="5.02444">
        <ele>515</ele>
        <time>2020-05-23T06:42:53Z</time>
      </trkpt>
      <trkpt lat="44.14926" lon="5.02444">
        <ele>517</ele>
        <time>2020-05-23T06:43:01Z</time>
      </trkpt>
      <trkpt lat="44.14933" lon="5.02449">
        <ele>520</ele>
        <time>2020-05-23T06:43:12Z</time>
      </trkpt>
      <trkpt lat="44.14937" lon="5.02452">
        <ele>522</ele>
        <time>2020-05-23T06:43:21Z</time>
      </trkpt>
      <trkpt lat="44.14937" lon="5.02453">
        <ele>522</ele>
        <time>2020-05-23T06:43:35Z</time>
      </trkpt>
      <trkpt lat="44.14936" lon="5.02454">
        <ele>521</ele>
        <time>2020-05-23T06:43:36Z</time>
      </trkpt>
      <trkpt lat="44.14936" lon="5.02469">
        <ele>521</ele>
        <time>2020-05-23T06:43:51Z</time>
      </trkpt>
      <trkpt lat="44.14936" lon="5.02484">
        <ele>521</ele>
        <time>2020-05-23T06:44:05Z</time>
      </trkpt>
      <trkpt lat="44.14934" lon="5.02491">
        <ele>521</ele>
        <time>2020-05-23T06:44:15Z</time>
      </trkpt>
      <trkpt lat="44.14932" lon="5.02497">
        <ele>521</ele>
        <time>2020-05-23T06:44:21Z</time>
      </trkpt>
      <trkpt lat="44.14927" lon="5.02512">
        <ele>521</ele>
        <time>2020-05-23T06:44:32Z</time>
      </trkpt>
      <trkpt lat="44.14924" lon="5.02516">
        <ele>521</ele>
        <time>2020-05-23T06:44:44Z</time>
      </trkpt>
      <trkpt lat="44.14921" lon="5.02518">
        <ele>521</ele>
        <time>2020-05-23T06:44:55Z</time>
      </trkpt>
      <trkpt lat="44.14921" lon="5.02523">
        <ele>521</ele>
        <time>2020-05-23T06:45:04Z</time>
      </trkpt>
      <trkpt lat="44.14918" lon="5.02535">
        <ele>522</ele>
        <time>2020-05-23T06:45:16Z</time>
      </trkpt>
      <trkpt lat="44.14917" lon="5.02558">
        <ele>524</ele>
        <time>2020-05-23T06:45:33Z</time>
      </trkpt>
      <trkpt lat="44.14912" lon="5.02576">
        <ele>523</ele>
        <time>2020-05-23T06:45:46Z</time>
      </trkpt>
      <trkpt lat="44.1491" lon="5.02579">
        <ele>523</ele>
        <time>2020-05-23T06:45:48Z</time>
      </trkpt>
      <trkpt lat="44.14906" lon="5.02594">
        <ele>520</ele>
        <time>2020-05-23T06:45:58Z</time>
      </trkpt>
      <trkpt lat="44.14907" lon="5.02611">
        <ele>521</ele>
        <time>2020-05-23T06:46:07Z</time>
      </trkpt>
      <trkpt lat="44.14909" lon="5.02613">
        <ele>521</ele>
        <time>2020-05-23T06:46:09Z</time>
      </trkpt>
      <trkpt lat="44.14912" lon="5.02629">
        <ele>521</ele>
        <time>2020-05-23T06:46:19Z</time>
      </trkpt>
      <trkpt lat="44.14913" lon="5.02631">
        <ele>521</ele>
        <time>2020-05-23T06:46:22Z</time>
      </trkpt>
      <trkpt lat="44.14916" lon="5.02636">
        <ele>523</ele>
        <time>2020-05-23T06:46:27Z</time>
      </trkpt>
      <trkpt lat="44.14917" lon="5.02644">
        <ele>522</ele>
        <time>2020-05-23T06:46:32Z</time>
      </trkpt>
      <trkpt lat="44.14916" lon="5.02655">
        <ele>519</ele>
        <time>2020-05-23T06:46:41Z</time>
      </trkpt>
      <trkpt lat="44.14917" lon="5.02659">
        <ele>519</ele>
        <time>2020-05-23T06:47:09Z</time>
      </trkpt>
      <trkpt lat="44.14918" lon="5.02659">
        <ele>518</ele>
        <time>2020-05-23T06:47:39Z</time>
      </trkpt>
      <trkpt lat="44.14921" lon="5.0266">
        <ele>516</ele>
        <time>2020-05-23T06:47:51Z</time>
      </trkpt>
      <trkpt lat="44.14924" lon="5.0266">
        <ele>515</ele>
        <time>2020-05-23T06:49:21Z</time>
      </trkpt>
      <trkpt lat="44.14924" lon="5.02665">
        <ele>514</ele>
        <time>2020-05-23T06:49:30Z</time>
      </trkpt>
      <trkpt lat="44.14926" lon="5.02666">
        <ele>512</ele>
        <time>2020-05-23T06:49:43Z</time>
      </trkpt>
      <trkpt lat="44.14927" lon="5.02669">
        <ele>511</ele>
        <time>2020-05-23T06:49:53Z</time>
      </trkpt>
      <trkpt lat="44.14927" lon="5.02673">
        <ele>510</ele>
        <time>2020-05-23T06:51:04Z</time>
      </trkpt>
      <trkpt lat="44.14928" lon="5.02677">
        <ele>509</ele>
        <time>2020-05-23T06:51:18Z</time>
      </trkpt>
      <trkpt lat="44.14931" lon="5.02683">
        <ele>507</ele>
        <time>2020-05-23T06:51:40Z</time>
      </trkpt>
      <trkpt lat="44.14934" lon="5.0268">
        <ele>506</ele>
        <time>2020-05-23T06:51:53Z</time>
      </trkpt>
      <trkpt lat="44.14936" lon="5.02688">
        <ele>503</ele>
        <time>2020-05-23T06:52:06Z</time>
      </trkpt>
      <trkpt lat="44.14937" lon="5.02694">
        <ele>502</ele>
        <time>2020-05-23T06:52:18Z</time>
      </trkpt>
      <trkpt lat="44.1494" lon="5.02699">
        <ele>499</ele>
        <time>2020-05-23T06:52:30Z</time>
      </trkpt>
      <trkpt lat="44.14943" lon="5.02695">
        <ele>499</ele>
        <time>2020-05-23T06:52:43Z</time>
      </trkpt>
      <trkpt lat="44.14944" lon="5.02696">
        <ele>498</ele>
        <time>2020-05-23T06:53:01Z</time>
      </trkpt>
      <trkpt lat="44.14946" lon="5.02705">
        <ele>495</ele>
        <time>2020-05-23T06:53:27Z</time>
      </trkpt>
      <trkpt lat="44.14949" lon="5.02708">
        <ele>493</ele>
        <time>2020-05-23T06:53:38Z</time>
      </trkpt>
      <trkpt lat="44.14952" lon="5.02711">
        <ele>491</ele>
        <time>2020-05-23T06:53:47Z</time>
      </trkpt>
      <trkpt lat="44.14954" lon="5.02717">
        <ele>489</ele>
        <time>2020-05-23T06:53:56Z</time>
      </trkpt>
      <trkpt lat="44.14957" lon="5.02723">
        <ele>486</ele>
        <time>2020-05-23T06:54:06Z</time>
      </trkpt>
      <trkpt lat="44.14961" lon="5.02727">
        <ele>483</ele>
        <time>2020-05-23T06:54:15Z</time>
      </trkpt>
      <trkpt lat="44.14963" lon="5.02733">
        <ele>481</ele>
        <time>2020-05-23T06:54:20Z</time>
      </trkpt>
      <trkpt lat="44.14966" lon="5.02736">
        <ele>479</ele>
        <time>2020-05-23T06:54:31Z</time>
      </trkpt>
      <trkpt lat="44.14967" lon="5.02741">
        <ele>477</ele>
        <time>2020-05-23T06:54:36Z</time>
      </trkpt>
      <trkpt lat="44.1497" lon="5.02753">
        <ele>474</ele>
        <time>2020-05-23T06:54:43Z</time>
      </trkpt>
      <trkpt lat="44.14973" lon="5.02762">
        <ele>470</ele>
        <time>2020-05-23T06:54:48Z</time>
      </trkpt>
      <trkpt lat="44.14976" lon="5.02773">
        <ele>467</ele>
        <time>2020-05-23T06:54:53Z</time>
      </trkpt>
      <trkpt lat="44.14977" lon="5.02775">
        <ele>466</ele>
        <time>2020-05-23T06:54:54Z</time>
      </trkpt>
      <trkpt lat="44.14977" lon="5.0278">
        <ele>466</ele>
        <time>2020-05-23T06:54:56Z</time>
      </trkpt>
      <trkpt lat="44.14978" lon="5.02788">
        <ele>463</ele>
        <time>2020-05-23T06:55:00Z</time>
      </trkpt>
      <trkpt lat="44.14978" lon="5.0279">
        <ele>463</ele>
        <time>2020-05-23T06:55:01Z</time>
      </trkpt>
      <trkpt lat="44.1498" lon="5.02793">
        <ele>462</ele>
        <time>2020-05-23T06:55:03Z</time>
      </trkpt>
      <trkpt lat="44.14981" lon="5.02793">
        <ele>461</ele>
        <time>2020-05-23T06:55:04Z</time>
      </trkpt>
      <trkpt lat="44.14988" lon="5.02792">
        <ele>458</ele>
        <time>2020-05-23T06:55:09Z</time>
      </trkpt>
      <trkpt lat="44.14989" lon="5.02798">
        <ele>457</ele>
        <time>2020-05-23T06:55:16Z</time>
      </trkpt>
      <trkpt lat="44.1499" lon="5.02801">
        <ele>456</ele>
        <time>2020-05-23T06:56:26Z</time>
      </trkpt>
      <trkpt lat="44.1499" lon="5.02801">
        <ele>456</ele>
        <time>2020-05-23T06:56:30Z</time>
      </trkpt>
      <trkpt lat="44.14994" lon="5.02814">
        <ele>453</ele>
        <time>2020-05-23T06:56:37Z</time>
      </trkpt>
      <trkpt lat="44.14996" lon="5.02825">
        <ele>450</ele>
        <time>2020-05-23T06:56:42Z</time>
      </trkpt>
      <trkpt lat="44.14999" lon="5.02832">
        <ele>448</ele>
        <time>2020-05-23T06:56:45Z</time>
      </trkpt>
      <trkpt lat="44.15001" lon="5.02833">
        <ele>446</ele>
        <time>2020-05-23T06:57:06Z</time>
      </trkpt>
      <trkpt lat="44.15003" lon="5.02836">
        <ele>445</ele>
        <time>2020-05-23T06:57:09Z</time>
      </trkpt>
      <trkpt lat="44.15004" lon="5.02837">
        <ele>444</ele>
        <time>2020-05-23T06:57:10Z</time>
      </trkpt>
      <trkpt lat="44.15005" lon="5.02838">
        <ele>443</ele>
        <time>2020-05-23T06:57:11Z</time>
      </trkpt>
      <trkpt lat="44.15006" lon="5.0284">
        <ele>443</ele>
        <time>2020-05-23T06:57:12Z</time>
      </trkpt>
      <trkpt lat="44.15007" lon="5.02841">
        <ele>442</ele>
        <time>2020-05-23T06:57:13Z</time>
      </trkpt>
      <trkpt lat="44.15007" lon="5.02846">
        <ele>442</ele>
        <time>2020-05-23T06:57:18Z</time>
      </trkpt>
      <trkpt lat="44.15007" lon="5.02848">
        <ele>441</ele>
        <time>2020-05-23T06:57:19Z</time>
      </trkpt>
      <trkpt lat="44.15007" lon="5.02851">
        <ele>440</ele>
        <time>2020-05-23T06:57:20Z</time>
      </trkpt>
      <trkpt lat="44.15008" lon="5.02854">
        <ele>440</ele>
        <time>2020-05-23T06:57:21Z</time>
      </trkpt>
      <trkpt lat="44.15008" lon="5.02857">
        <ele>439</ele>
        <time>2020-05-23T06:57:22Z</time>
      </trkpt>
      <trkpt lat="44.15007" lon="5.02859">
        <ele>439</ele>
        <time>2020-05-23T06:57:23Z</time>
      </trkpt>
      <trkpt lat="44.15008" lon="5.02862">
        <ele>438</ele>
        <time>2020-05-23T06:57:24Z</time>
      </trkpt>
      <trkpt lat="44.15008" lon="5.02864">
        <ele>438</ele>
        <time>2020-05-23T06:57:25Z</time>
      </trkpt>
      <trkpt lat="44.15011" lon="5.02884">
        <ele>434</ele>
        <time>2020-05-23T06:57:31Z</time>
      </trkpt>
      <trkpt lat="44.15015" lon="5.02897">
        <ele>430</ele>
        <time>2020-05-23T06:57:36Z</time>
      </trkpt>
      <trkpt lat="44.15017" lon="5.02898">
        <ele>429</ele>
        <time>2020-05-23T06:57:38Z</time>
      </trkpt>
      <trkpt lat="44.15016" lon="5.02903">
        <ele>429</ele>
        <time>2020-05-23T06:57:47Z</time>
      </trkpt>
      <trkpt lat="44.15016" lon="5.02905">
        <ele>428</ele>
        <time>2020-05-23T06:57:48Z</time>
      </trkpt>
      <trkpt lat="44.15017" lon="5.02909">
        <ele>428</ele>
        <time>2020-05-23T06:57:49Z</time>
      </trkpt>
      <trkpt lat="44.15016" lon="5.02915">
        <ele>427</ele>
        <time>2020-05-23T06:57:51Z</time>
      </trkpt>
      <trkpt lat="44.15016" lon="5.02918">
        <ele>427</ele>
        <time>2020-05-23T06:57:52Z</time>
      </trkpt>
      <trkpt lat="44.15016" lon="5.02921">
        <ele>426</ele>
        <time>2020-05-23T06:57:53Z</time>
      </trkpt>
      <trkpt lat="44.15015" lon="5.02924">
        <ele>426</ele>
        <time>2020-05-23T06:57:54Z</time>
      </trkpt>
      <trkpt lat="44.15015" lon="5.02928">
        <ele>426</ele>
        <time>2020-05-23T06:57:55Z</time>
      </trkpt>
      <trkpt lat="44.15015" lon="5.02931">
        <ele>425</ele>
        <time>2020-05-23T06:57:56Z</time>
      </trkpt>
      <trkpt lat="44.15015" lon="5.02941">
        <ele>424</ele>
        <time>2020-05-23T06:57:59Z</time>
      </trkpt>
      <trkpt lat="44.15014" lon="5.02944">
        <ele>424</ele>
        <time>2020-05-23T06:58:00Z</time>
      </trkpt>
      <trkpt lat="44.15014" lon="5.02946">
        <ele>424</ele>
        <time>2020-05-23T06:58:01Z</time>
      </trkpt>
      <trkpt lat="44.15014" lon="5.02948">
        <ele>424</ele>
        <time>2020-05-23T06:58:02Z</time>
      </trkpt>
      <trkpt lat="44.15014" lon="5.0295">
        <ele>423</ele>
        <time>2020-05-23T06:58:03Z</time>
      </trkpt>
      <trkpt lat="44.15017" lon="5.02961">
        <ele>422</ele>
        <time>2020-05-23T06:58:07Z</time>
      </trkpt>
      <trkpt lat="44.15018" lon="5.02963">
        <ele>422</ele>
        <time>2020-05-23T06:58:08Z</time>
      </trkpt>
      <trkpt lat="44.15018" lon="5.02966">
        <ele>421</ele>
        <time>2020-05-23T06:58:09Z</time>
      </trkpt>
      <trkpt lat="44.15017" lon="5.02969">
        <ele>421</ele>
        <time>2020-05-23T06:58:10Z</time>
      </trkpt>
      <trkpt lat="44.15016" lon="5.02972">
        <ele>421</ele>
        <time>2020-05-23T06:58:11Z</time>
      </trkpt>
      <trkpt lat="44.15015" lon="5.02974">
        <ele>421</ele>
        <time>2020-05-23T06:58:12Z</time>
      </trkpt>
      <trkpt lat="44.15014" lon="5.02976">
        <ele>421</ele>
        <time>2020-05-23T06:58:13Z</time>
      </trkpt>
      <trkpt lat="44.15014" lon="5.02978">
        <ele>421</ele>
        <time>2020-05-23T06:58:14Z</time>
      </trkpt>
      <trkpt lat="44.15014" lon="5.02981">
        <ele>421</ele>
        <time>2020-05-23T06:58:15Z</time>
      </trkpt>
      <trkpt lat="44.15015" lon="5.02984">
        <ele>421</ele>
        <time>2020-05-23T06:58:16Z</time>
      </trkpt>
      <trkpt lat="44.15016" lon="5.02987">
        <ele>420</ele>
        <time>2020-05-23T06:58:17Z</time>
      </trkpt>
      <trkpt lat="44.15017" lon="5.0299">
        <ele>420</ele>
        <time>2020-05-23T06:58:18Z</time>
      </trkpt>
      <trkpt lat="44.15018" lon="5.02993">
        <ele>420</ele>
        <time>2020-05-23T06:58:19Z</time>
      </trkpt>
      <trkpt lat="44.15019" lon="5.02996">
        <ele>419</ele>
        <time>2020-05-23T06:58:20Z</time>
      </trkpt>
      <trkpt lat="44.15022" lon="5.03008">
        <ele>421</ele>
        <time>2020-05-23T06:58:23Z</time>
      </trkpt>
      <trkpt lat="44.15024" lon="5.0301">
        <ele>421</ele>
        <time>2020-05-23T06:58:24Z</time>
      </trkpt>
      <trkpt lat="44.15027" lon="5.03015">
        <ele>423</ele>
        <time>2020-05-23T06:58:26Z</time>
      </trkpt>
      <trkpt lat="44.15027" lon="5.03017">
        <ele>423</ele>
        <time>2020-05-23T06:58:27Z</time>
      </trkpt>
      <trkpt lat="44.15034" lon="5.03031">
        <ele>425</ele>
        <time>2020-05-23T06:58:35Z</time>
      </trkpt>
      <trkpt lat="44.15035" lon="5.03032">
        <ele>425</ele>
        <time>2020-05-23T06:58:36Z</time>
      </trkpt>
      <trkpt lat="44.15037" lon="5.03033">
        <ele>425</ele>
        <time>2020-05-23T06:58:37Z</time>
      </trkpt>
      <trkpt lat="44.15041" lon="5.03043">
        <ele>428</ele>
        <time>2020-05-23T06:58:45Z</time>
      </trkpt>
      <trkpt lat="44.15046" lon="5.03045">
        <ele>428</ele>
        <time>2020-05-23T06:58:49Z</time>
      </trkpt>
      <trkpt lat="44.15047" lon="5.03047">
        <ele>428</ele>
        <time>2020-05-23T06:58:50Z</time>
      </trkpt>
      <trkpt lat="44.15048" lon="5.03048">
        <ele>428</ele>
        <time>2020-05-23T06:58:51Z</time>
      </trkpt>
      <trkpt lat="44.1505" lon="5.03048">
        <ele>428</ele>
        <time>2020-05-23T06:58:52Z</time>
      </trkpt>
      <trkpt lat="44.15052" lon="5.03049">
        <ele>428</ele>
        <time>2020-05-23T06:58:53Z</time>
      </trkpt>
      <trkpt lat="44.15058" lon="5.03052">
        <ele>427</ele>
        <time>2020-05-23T06:58:57Z</time>
      </trkpt>
      <trkpt lat="44.1506" lon="5.03054">
        <ele>427</ele>
        <time>2020-05-23T06:58:58Z</time>
      </trkpt>
      <trkpt lat="44.15067" lon="5.0306">
        <ele>424</ele>
        <time>2020-05-23T06:59:02Z</time>
      </trkpt>
      <trkpt lat="44.15068" lon="5.03064">
        <ele>424</ele>
        <time>2020-05-23T06:59:05Z</time>
      </trkpt>
      <trkpt lat="44.1507" lon="5.03066">
        <ele>423</ele>
        <time>2020-05-23T06:59:09Z</time>
      </trkpt>
      <trkpt lat="44.15071" lon="5.03066">
        <ele>423</ele>
        <time>2020-05-23T06:59:10Z</time>
      </trkpt>
      <trkpt lat="44.15075" lon="5.03065">
        <ele>420</ele>
        <time>2020-05-23T06:59:17Z</time>
      </trkpt>
      <trkpt lat="44.15077" lon="5.03066">
        <ele>419</ele>
        <time>2020-05-23T06:59:19Z</time>
      </trkpt>
      <trkpt lat="44.15081" lon="5.03071">
        <ele>417</ele>
        <time>2020-05-23T06:59:28Z</time>
      </trkpt>
      <trkpt lat="44.15084" lon="5.03074">
        <ele>416</ele>
        <time>2020-05-23T06:59:31Z</time>
      </trkpt>
      <trkpt lat="44.15085" lon="5.03076">
        <ele>416</ele>
        <time>2020-05-23T06:59:32Z</time>
      </trkpt>
      <trkpt lat="44.15088" lon="5.03085">
        <ele>417</ele>
        <time>2020-05-23T06:59:38Z</time>
      </trkpt>
      <trkpt lat="44.15087" lon="5.03088">
        <ele>417</ele>
        <time>2020-05-23T06:59:45Z</time>
      </trkpt>
      <trkpt lat="44.15087" lon="5.03089">
        <ele>417</ele>
        <time>2020-05-23T06:59:46Z</time>
      </trkpt>
      <trkpt lat="44.15087" lon="5.03091">
        <ele>417</ele>
        <time>2020-05-23T06:59:47Z</time>
      </trkpt>
      <trkpt lat="44.15088" lon="5.03093">
        <ele>417</ele>
        <time>2020-05-23T06:59:49Z</time>
      </trkpt>
      <trkpt lat="44.15089" lon="5.03095">
        <ele>416</ele>
        <time>2020-05-23T06:59:50Z</time>
      </trkpt>
      <trkpt lat="44.1509" lon="5.03099">
        <ele>415</ele>
        <time>2020-05-23T06:59:52Z</time>
      </trkpt>
      <trkpt lat="44.1509" lon="5.03102">
        <ele>415</ele>
        <time>2020-05-23T06:59:53Z</time>
      </trkpt>
      <trkpt lat="44.1509" lon="5.03104">
        <ele>416</ele>
        <time>2020-05-23T06:59:54Z</time>
      </trkpt>
      <trkpt lat="44.15089" lon="5.03106">
        <ele>416</ele>
        <time>2020-05-23T06:59:55Z</time>
      </trkpt>
      <trkpt lat="44.15089" lon="5.03108">
        <ele>417</ele>
        <time>2020-05-23T06:59:56Z</time>
      </trkpt>
      <trkpt lat="44.15089" lon="5.0311">
        <ele>416</ele>
        <time>2020-05-23T06:59:57Z</time>
      </trkpt>
      <trkpt lat="44.15089" lon="5.03113">
        <ele>416</ele>
        <time>2020-05-23T06:59:58Z</time>
      </trkpt>
      <trkpt lat="44.1509" lon="5.03116">
        <ele>415</ele>
        <time>2020-05-23T06:59:59Z</time>
      </trkpt>
      <trkpt lat="44.1509" lon="5.03118">
        <ele>415</ele>
        <time>2020-05-23T07:00:00Z</time>
      </trkpt>
      <trkpt lat="44.1509" lon="5.03124">
        <ele>414</ele>
        <time>2020-05-23T07:00:03Z</time>
      </trkpt>
      <trkpt lat="44.15091" lon="5.03127">
        <ele>414</ele>
        <time>2020-05-23T07:00:04Z</time>
      </trkpt>
      <trkpt lat="44.15091" lon="5.03129">
        <ele>413</ele>
        <time>2020-05-23T07:00:05Z</time>
      </trkpt>
      <trkpt lat="44.15092" lon="5.03132">
        <ele>412</ele>
        <time>2020-05-23T07:00:06Z</time>
      </trkpt>
      <trkpt lat="44.15094" lon="5.03134">
        <ele>411</ele>
        <time>2020-05-23T07:00:07Z</time>
      </trkpt>
      <trkpt lat="44.15095" lon="5.03137">
        <ele>411</ele>
        <time>2020-05-23T07:00:08Z</time>
      </trkpt>
      <trkpt lat="44.15096" lon="5.03139">
        <ele>410</ele>
        <time>2020-05-23T07:00:09Z</time>
      </trkpt>
      <trkpt lat="44.15097" lon="5.03142">
        <ele>409</ele>
        <time>2020-05-23T07:00:10Z</time>
      </trkpt>
      <trkpt lat="44.15098" lon="5.03144">
        <ele>408</ele>
        <time>2020-05-23T07:00:11Z</time>
      </trkpt>
      <trkpt lat="44.15099" lon="5.03147">
        <ele>408</ele>
        <time>2020-05-23T07:00:12Z</time>
      </trkpt>
      <trkpt lat="44.151" lon="5.0315">
        <ele>407</ele>
        <time>2020-05-23T07:00:13Z</time>
      </trkpt>
      <trkpt lat="44.15101" lon="5.03152">
        <ele>407</ele>
        <time>2020-05-23T07:00:14Z</time>
      </trkpt>
      <trkpt lat="44.15102" lon="5.03156">
        <ele>406</ele>
        <time>2020-05-23T07:00:15Z</time>
      </trkpt>
      <trkpt lat="44.15103" lon="5.03159">
        <ele>405</ele>
        <time>2020-05-23T07:00:16Z</time>
      </trkpt>
      <trkpt lat="44.15107" lon="5.03182">
        <ele>403</ele>
        <time>2020-05-23T07:00:24Z</time>
      </trkpt>
      <trkpt lat="44.15112" lon="5.03196">
        <ele>398</ele>
        <time>2020-05-23T07:00:29Z</time>
      </trkpt>
      <trkpt lat="44.15114" lon="5.03198">
        <ele>398</ele>
        <time>2020-05-23T07:00:30Z</time>
      </trkpt>
      <trkpt lat="44.15115" lon="5.03202">
        <ele>397</ele>
        <time>2020-05-23T07:00:31Z</time>
      </trkpt>
      <trkpt lat="44.15115" lon="5.03205">
        <ele>397</ele>
        <time>2020-05-23T07:00:32Z</time>
      </trkpt>
      <trkpt lat="44.15115" lon="5.03208">
        <ele>397</ele>
        <time>2020-05-23T07:00:33Z</time>
      </trkpt>
      <trkpt lat="44.15115" lon="5.03211">
        <ele>397</ele>
        <time>2020-05-23T07:00:34Z</time>
      </trkpt>
      <trkpt lat="44.15115" lon="5.03214">
        <ele>397</ele>
        <time>2020-05-23T07:00:35Z</time>
      </trkpt>
      <trkpt lat="44.15115" lon="5.03217">
        <ele>397</ele>
        <time>2020-05-23T07:00:36Z</time>
      </trkpt>
      <trkpt lat="44.15116" lon="5.03221">
        <ele>397</ele>
        <time>2020-05-23T07:00:37Z</time>
      </trkpt>
      <trkpt lat="44.15127" lon="5.0326">
        <ele>392</ele>
        <time>2020-05-23T07:00:48Z</time>
      </trkpt>
      <trkpt lat="44.15133" lon="5.03277">
        <ele>388</ele>
        <time>2020-05-23T07:00:53Z</time>
      </trkpt>
      <trkpt lat="44.15137" lon="5.03302">
        <ele>387</ele>
        <time>2020-05-23T07:00:59Z</time>
      </trkpt>
      <trkpt lat="44.15138" lon="5.03312">
        <ele>386</ele>
        <time>2020-05-23T07:01:02Z</time>
      </trkpt>
      <trkpt lat="44.15145" lon="5.03331">
        <ele>382</ele>
        <time>2020-05-23T07:01:07Z</time>
      </trkpt>
      <trkpt lat="44.15148" lon="5.03339">
        <ele>381</ele>
        <time>2020-05-23T07:01:09Z</time>
      </trkpt>
      <trkpt lat="44.15155" lon="5.03361">
        <ele>377</ele>
        <time>2020-05-23T07:01:15Z</time>
      </trkpt>
      <trkpt lat="44.15162" lon="5.03404">
        <ele>373</ele>
        <time>2020-05-23T07:01:25Z</time>
      </trkpt>
      <trkpt lat="44.15166" lon="5.0344">
        <ele>374</ele>
        <time>2020-05-23T07:01:33Z</time>
      </trkpt>
      <trkpt lat="44.15171" lon="5.03462">
        <ele>372</ele>
        <time>2020-05-23T07:01:39Z</time>
      </trkpt>
      <trkpt lat="44.15173" lon="5.03463">
        <ele>371</ele>
        <time>2020-05-23T07:01:40Z</time>
      </trkpt>
      <trkpt lat="44.15174" lon="5.03465">
        <ele>370</ele>
        <time>2020-05-23T07:01:41Z</time>
      </trkpt>
      <trkpt lat="44.15176" lon="5.03467">
        <ele>369</ele>
        <time>2020-05-23T07:01:42Z</time>
      </trkpt>
      <trkpt lat="44.15177" lon="5.03469">
        <ele>368</ele>
        <time>2020-05-23T07:01:43Z</time>
      </trkpt>
      <trkpt lat="44.15179" lon="5.03471">
        <ele>367</ele>
        <time>2020-05-23T07:01:44Z</time>
      </trkpt>
      <trkpt lat="44.15181" lon="5.03473">
        <ele>366</ele>
        <time>2020-05-23T07:01:45Z</time>
      </trkpt>
      <trkpt lat="44.15183" lon="5.03475">
        <ele>365</ele>
        <time>2020-05-23T07:01:46Z</time>
      </trkpt>
      <trkpt lat="44.15184" lon="5.03478">
        <ele>365</ele>
        <time>2020-05-23T07:01:47Z</time>
      </trkpt>
      <trkpt lat="44.15193" lon="5.03491">
        <ele>361</ele>
        <time>2020-05-23T07:01:52Z</time>
      </trkpt>
      <trkpt lat="44.15208" lon="5.03529">
        <ele>357</ele>
        <time>2020-05-23T07:02:02Z</time>
      </trkpt>
      <trkpt lat="44.15225" lon="5.03563">
        <ele>352</ele>
        <time>2020-05-23T07:02:11Z</time>
      </trkpt>
      <trkpt lat="44.15237" lon="5.03586">
        <ele>347</ele>
        <time>2020-05-23T07:02:17Z</time>
      </trkpt>
      <trkpt lat="44.1525" lon="5.03617">
        <ele>343</ele>
        <time>2020-05-23T07:02:25Z</time>
      </trkpt>
      <trkpt lat="44.15257" lon="5.03642">
        <ele>341</ele>
        <time>2020-05-23T07:02:32Z</time>
      </trkpt>
      <trkpt lat="44.15259" lon="5.03645">
        <ele>341</ele>
        <time>2020-05-23T07:02:33Z</time>
      </trkpt>
      <trkpt lat="44.15261" lon="5.03647">
        <ele>340</ele>
        <time>2020-05-23T07:02:34Z</time>
      </trkpt>
      <trkpt lat="44.15263" lon="5.03649">
        <ele>339</ele>
        <time>2020-05-23T07:02:35Z</time>
      </trkpt>
      <trkpt lat="44.15266" lon="5.03651">
        <ele>337</ele>
        <time>2020-05-23T07:02:36Z</time>
      </trkpt>
      <trkpt lat="44.15268" lon="5.03653">
        <ele>336</ele>
        <time>2020-05-23T07:02:37Z</time>
      </trkpt>
      <trkpt lat="44.15275" lon="5.03659">
        <ele>332</ele>
        <time>2020-05-23T07:02:42Z</time>
      </trkpt>
      <trkpt lat="44.15276" lon="5.0366">
        <ele>332</ele>
        <time>2020-05-23T07:02:43Z</time>
      </trkpt>
      <trkpt lat="44.15282" lon="5.03661">
        <ele>331</ele>
        <time>2020-05-23T07:02:47Z</time>
      </trkpt>
      <trkpt lat="44.15283" lon="5.03661">
        <ele>331</ele>
        <time>2020-05-23T07:02:48Z</time>
      </trkpt>
      <trkpt lat="44.15285" lon="5.03661">
        <ele>331</ele>
        <time>2020-05-23T07:02:49Z</time>
      </trkpt>
      <trkpt lat="44.15286" lon="5.03662">
        <ele>331</ele>
        <time>2020-05-23T07:02:50Z</time>
      </trkpt>
      <trkpt lat="44.1529" lon="5.03662">
        <ele>330</ele>
        <time>2020-05-23T07:02:53Z</time>
      </trkpt>
      <trkpt lat="44.15291" lon="5.03661">
        <ele>330</ele>
        <time>2020-05-23T07:02:54Z</time>
      </trkpt>
      <trkpt lat="44.15292" lon="5.03661">
        <ele>330</ele>
        <time>2020-05-23T07:02:55Z</time>
      </trkpt>
      <trkpt lat="44.15294" lon="5.03662">
        <ele>330</ele>
        <time>2020-05-23T07:02:57Z</time>
      </trkpt>
      <trkpt lat="44.15295" lon="5.03663">
        <ele>330</ele>
        <time>2020-05-23T07:02:58Z</time>
      </trkpt>
      <trkpt lat="44.15298" lon="5.03664">
        <ele>330</ele>
        <time>2020-05-23T07:03:01Z</time>
      </trkpt>
      <trkpt lat="44.15299" lon="5.03662">
        <ele>330</ele>
        <time>2020-05-23T07:03:03Z</time>
      </trkpt>
      <trkpt lat="44.153" lon="5.03659">
        <ele>330</ele>
        <time>2020-05-23T07:03:05Z</time>
      </trkpt>
      <trkpt lat="44.15301" lon="5.03656">
        <ele>330</ele>
        <time>2020-05-23T07:03:08Z</time>
      </trkpt>
      <trkpt lat="44.15309" lon="5.03652">
        <ele>330</ele>
        <time>2020-05-23T07:03:16Z</time>
      </trkpt>
      <trkpt lat="44.15317" lon="5.03662">
        <ele>329</ele>
        <time>2020-05-23T07:03:25Z</time>
      </trkpt>
      <trkpt lat="44.15318" lon="5.03663">
        <ele>328</ele>
        <time>2020-05-23T07:03:27Z</time>
      </trkpt>
      <trkpt lat="44.15322" lon="5.03669">
        <ele>327</ele>
        <time>2020-05-23T07:03:32Z</time>
      </trkpt>
      <trkpt lat="44.15328" lon="5.03665">
        <ele>327</ele>
        <time>2020-05-23T07:03:36Z</time>
      </trkpt>
      <trkpt lat="44.15339" lon="5.03658">
        <ele>327</ele>
        <time>2020-05-23T07:03:42Z</time>
      </trkpt>
      <trkpt lat="44.15352" lon="5.03646">
        <ele>327</ele>
        <time>2020-05-23T07:03:50Z</time>
      </trkpt>
      <trkpt lat="44.15354" lon="5.03646">
        <ele>327</ele>
        <time>2020-05-23T07:03:51Z</time>
      </trkpt>
      <trkpt lat="44.15357" lon="5.03646">
        <ele>327</ele>
        <time>2020-05-23T07:03:52Z</time>
      </trkpt>
      <trkpt lat="44.15359" lon="5.03647">
        <ele>327</ele>
        <time>2020-05-23T07:03:53Z</time>
      </trkpt>
      <trkpt lat="44.15361" lon="5.03648">
        <ele>326</ele>
        <time>2020-05-23T07:03:54Z</time>
      </trkpt>
      <trkpt lat="44.15362" lon="5.03651">
        <ele>326</ele>
        <time>2020-05-23T07:03:55Z</time>
      </trkpt>
      <trkpt lat="44.15364" lon="5.03653">
        <ele>326</ele>
        <time>2020-05-23T07:03:56Z</time>
      </trkpt>
      <trkpt lat="44.15385" lon="5.03681">
        <ele>322</ele>
        <time>2020-05-23T07:04:06Z</time>
      </trkpt>
      <trkpt lat="44.15413" lon="5.03694">
        <ele>322</ele>
        <time>2020-05-23T07:04:14Z</time>
      </trkpt>
      <trkpt lat="44.15432" lon="5.03708">
        <ele>321</ele>
        <time>2020-05-23T07:04:21Z</time>
      </trkpt>
      <trkpt lat="44.15454" lon="5.03723">
        <ele>320</ele>
        <time>2020-05-23T07:04:29Z</time>
      </trkpt>
      <trkpt lat="44.15467" lon="5.03736">
        <ele>320</ele>
        <time>2020-05-23T07:04:35Z</time>
      </trkpt>
      <trkpt lat="44.15468" lon="5.0374">
        <ele>319</ele>
        <time>2020-05-23T07:04:36Z</time>
      </trkpt>
      <trkpt lat="44.15468" lon="5.03744">
        <ele>318</ele>
        <time>2020-05-23T07:04:37Z</time>
      </trkpt>
      <trkpt lat="44.1548" lon="5.03772">
        <ele>313</ele>
        <time>2020-05-23T07:04:45Z</time>
      </trkpt>
      <trkpt lat="44.15486" lon="5.03777">
        <ele>314</ele>
        <time>2020-05-23T07:04:47Z</time>
      </trkpt>
      <trkpt lat="44.15505" lon="5.03811">
        <ele>309</ele>
        <time>2020-05-23T07:04:56Z</time>
      </trkpt>
      <trkpt lat="44.15515" lon="5.03827">
        <ele>308</ele>
        <time>2020-05-23T07:05:02Z</time>
      </trkpt>
      <trkpt lat="44.15526" lon="5.03847">
        <ele>308</ele>
        <time>2020-05-23T07:05:08Z</time>
      </trkpt>
      <trkpt lat="44.15537" lon="5.03894">
        <ele>301</ele>
        <time>2020-05-23T07:05:18Z</time>
      </trkpt>
      <trkpt lat="44.15543" lon="5.03913">
        <ele>298</ele>
        <time>2020-05-23T07:05:23Z</time>
      </trkpt>
      <trkpt lat="44.15551" lon="5.03942">
        <ele>297</ele>
        <time>2020-05-23T07:05:33Z</time>
      </trkpt>
      <trkpt lat="44.15556" lon="5.03988">
        <ele>294</ele>
        <time>2020-05-23T07:05:44Z</time>
      </trkpt>
      <trkpt lat="44.15566" lon="5.04018">
        <ele>291</ele>
        <time>2020-05-23T07:05:51Z</time>
      </trkpt>
      <trkpt lat="44.1557" lon="5.04028">
        <ele>290</ele>
        <time>2020-05-23T07:05:53Z</time>
      </trkpt>
      <trkpt lat="44.15577" lon="5.04047">
        <ele>286</ele>
        <time>2020-05-23T07:05:58Z</time>
      </trkpt>
      <trkpt lat="44.15593" lon="5.04079">
        <ele>283</ele>
        <time>2020-05-23T07:06:07Z</time>
      </trkpt>
      <trkpt lat="44.15611" lon="5.04127">
        <ele>280</ele>
        <time>2020-05-23T07:06:18Z</time>
      </trkpt>
      <trkpt lat="44.15621" lon="5.04156">
        <ele>279</ele>
        <time>2020-05-23T07:06:25Z</time>
      </trkpt>
      <trkpt lat="44.15635" lon="5.04203">
        <ele>277</ele>
        <time>2020-05-23T07:06:37Z</time>
      </trkpt>
      <trkpt lat="44.15637" lon="5.04228">
        <ele>274</ele>
        <time>2020-05-23T07:06:44Z</time>
      </trkpt>
      <trkpt lat="44.15637" lon="5.04232">
        <ele>274</ele>
        <time>2020-05-23T07:06:45Z</time>
      </trkpt>
      <trkpt lat="44.15636" lon="5.04237">
        <ele>273</ele>
        <time>2020-05-23T07:06:46Z</time>
      </trkpt>
      <trkpt lat="44.15635" lon="5.04242">
        <ele>272</ele>
        <time>2020-05-23T07:06:47Z</time>
      </trkpt>
      <trkpt lat="44.15632" lon="5.04246">
        <ele>272</ele>
        <time>2020-05-23T07:06:48Z</time>
      </trkpt>
      <trkpt lat="44.1563" lon="5.0425">
        <ele>271</ele>
        <time>2020-05-23T07:06:49Z</time>
      </trkpt>
      <trkpt lat="44.15629" lon="5.04255">
        <ele>270</ele>
        <time>2020-05-23T07:06:50Z</time>
      </trkpt>
      <trkpt lat="44.15628" lon="5.04277">
        <ele>268</ele>
        <time>2020-05-23T07:06:55Z</time>
      </trkpt>
      <trkpt lat="44.15632" lon="5.04294">
        <ele>266</ele>
        <time>2020-05-23T07:07:00Z</time>
      </trkpt>
      <trkpt lat="44.15637" lon="5.04315">
        <ele>264</ele>
        <time>2020-05-23T07:07:07Z</time>
      </trkpt>
      <trkpt lat="44.15641" lon="5.0435">
        <ele>260</ele>
        <time>2020-05-23T07:07:16Z</time>
      </trkpt>
      <trkpt lat="44.15647" lon="5.04369">
        <ele>260</ele>
        <time>2020-05-23T07:07:22Z</time>
      </trkpt>
      <trkpt lat="44.15652" lon="5.04403">
        <ele>259</ele>
        <time>2020-05-23T07:07:32Z</time>
      </trkpt>
      <trkpt lat="44.15661" lon="5.04439">
        <ele>257</ele>
        <time>2020-05-23T07:07:45Z</time>
      </trkpt>
      <trkpt lat="44.15672" lon="5.04477">
        <ele>254</ele>
        <time>2020-05-23T07:07:55Z</time>
      </trkpt>
      <trkpt lat="44.15683" lon="5.045">
        <ele>254</ele>
        <time>2020-05-23T07:07:59Z</time>
      </trkpt>
      <trkpt lat="44.15691" lon="5.04508">
        <ele>254</ele>
        <time>2020-05-23T07:08:03Z</time>
      </trkpt>
      <trkpt lat="44.15706" lon="5.04528">
        <ele>254</ele>
        <time>2020-05-23T07:08:13Z</time>
      </trkpt>
      <trkpt lat="44.1571" lon="5.04532">
        <ele>254</ele>
        <time>2020-05-23T07:08:15Z</time>
      </trkpt>
      <trkpt lat="44.15726" lon="5.04557">
        <ele>254</ele>
        <time>2020-05-23T07:08:25Z</time>
      </trkpt>
      <trkpt lat="44.15734" lon="5.04567">
        <ele>256</ele>
        <time>2020-05-23T07:08:34Z</time>
      </trkpt>
      <trkpt lat="44.15734" lon="5.04569">
        <ele>256</ele>
        <time>2020-05-23T07:08:53Z</time>
      </trkpt>
      <trkpt lat="44.15734" lon="5.04569">
        <ele>256</ele>
        <time>2020-05-23T07:08:54Z</time>
      </trkpt>
      <trkpt lat="44.15733" lon="5.04574">
        <ele>257</ele>
        <time>2020-05-23T07:09:00Z</time>
      </trkpt>
      <trkpt lat="44.15732" lon="5.04583">
        <ele>257</ele>
        <time>2020-05-23T07:09:08Z</time>
      </trkpt>
      <trkpt lat="44.15726" lon="5.04594">
        <ele>258</ele>
        <time>2020-05-23T07:09:16Z</time>
      </trkpt>
      <trkpt lat="44.15708" lon="5.04622">
        <ele>263</ele>
        <time>2020-05-23T07:09:28Z</time>
      </trkpt>
      <trkpt lat="44.15704" lon="5.04635">
        <ele>267</ele>
        <time>2020-05-23T07:09:36Z</time>
      </trkpt>
      <trkpt lat="44.15697" lon="5.04646">
        <ele>270</ele>
        <time>2020-05-23T07:09:45Z</time>
      </trkpt>
      <trkpt lat="44.15695" lon="5.04647">
        <ele>270</ele>
        <time>2020-05-23T07:09:47Z</time>
      </trkpt>
      <trkpt lat="44.15688" lon="5.04657">
        <ele>273</ele>
        <time>2020-05-23T07:09:56Z</time>
      </trkpt>
      <trkpt lat="44.15688" lon="5.04657">
        <ele>273</ele>
        <time>2020-05-23T07:09:57Z</time>
      </trkpt>
      <trkpt lat="44.15682" lon="5.04665">
        <ele>275</ele>
        <time>2020-05-23T07:10:09Z</time>
      </trkpt>
      <trkpt lat="44.15675" lon="5.04673">
        <ele>277</ele>
        <time>2020-05-23T07:10:19Z</time>
      </trkpt>
      <trkpt lat="44.1567" lon="5.04682">
        <ele>279</ele>
        <time>2020-05-23T07:10:29Z</time>
      </trkpt>
      <trkpt lat="44.15663" lon="5.04692">
        <ele>282</ele>
        <time>2020-05-23T07:10:40Z</time>
      </trkpt>
      <trkpt lat="44.15662" lon="5.04698">
        <ele>283</ele>
        <time>2020-05-23T07:10:48Z</time>
      </trkpt>
      <trkpt lat="44.15659" lon="5.04712">
        <ele>285</ele>
        <time>2020-05-23T07:10:57Z</time>
      </trkpt>
      <trkpt lat="44.15657" lon="5.04715">
        <ele>285</ele>
        <time>2020-05-23T07:11:00Z</time>
      </trkpt>
      <trkpt lat="44.15656" lon="5.04716">
        <ele>285</ele>
        <time>2020-05-23T07:11:01Z</time>
      </trkpt>
      <trkpt lat="44.15655" lon="5.04719">
        <ele>285</ele>
        <time>2020-05-23T07:11:02Z</time>
      </trkpt>
      <trkpt lat="44.15654" lon="5.04721">
        <ele>285</ele>
        <time>2020-05-23T07:11:03Z</time>
      </trkpt>
      <trkpt lat="44.15653" lon="5.04724">
        <ele>285</ele>
        <time>2020-05-23T07:11:04Z</time>
      </trkpt>
      <trkpt lat="44.15653" lon="5.04727">
        <ele>285</ele>
        <time>2020-05-23T07:11:05Z</time>
      </trkpt>
      <trkpt lat="44.15653" lon="5.0473">
        <ele>285</ele>
        <time>2020-05-23T07:11:06Z</time>
      </trkpt>
      <trkpt lat="44.15654" lon="5.04735">
        <ele>285</ele>
        <time>2020-05-23T07:11:09Z</time>
      </trkpt>
      <trkpt lat="44.15655" lon="5.04737">
        <ele>286</ele>
        <time>2020-05-23T07:11:10Z</time>
      </trkpt>
      <trkpt lat="44.15657" lon="5.04739">
        <ele>287</ele>
        <time>2020-05-23T07:11:11Z</time>
      </trkpt>
      <trkpt lat="44.15661" lon="5.0474">
        <ele>290</ele>
        <time>2020-05-23T07:11:17Z</time>
      </trkpt>
      <trkpt lat="44.1567" lon="5.04746">
        <ele>295</ele>
        <time>2020-05-23T07:11:34Z</time>
      </trkpt>
      <trkpt lat="44.15672" lon="5.04746">
        <ele>296</ele>
        <time>2020-05-23T07:11:36Z</time>
      </trkpt>
      <trkpt lat="44.15674" lon="5.04746">
        <ele>297</ele>
        <time>2020-05-23T07:11:37Z</time>
      </trkpt>
      <trkpt lat="44.15675" lon="5.04746">
        <ele>298</ele>
        <time>2020-05-23T07:11:38Z</time>
      </trkpt>
      <trkpt lat="44.15676" lon="5.04746">
        <ele>299</ele>
        <time>2020-05-23T07:11:39Z</time>
      </trkpt>
      <trkpt lat="44.15683" lon="5.04757">
        <ele>303</ele>
        <time>2020-05-23T07:11:49Z</time>
      </trkpt>
      <trkpt lat="44.15689" lon="5.04759">
        <ele>306</ele>
        <time>2020-05-23T07:11:58Z</time>
      </trkpt>
      <trkpt lat="44.15693" lon="5.04762">
        <ele>309</ele>
        <time>2020-05-23T07:12:07Z</time>
      </trkpt>
      <trkpt lat="44.15696" lon="5.04763">
        <ele>312</ele>
        <time>2020-05-23T07:12:18Z</time>
      </trkpt>
      <trkpt lat="44.15698" lon="5.04755">
        <ele>313</ele>
        <time>2020-05-23T07:12:24Z</time>
      </trkpt>
      <trkpt lat="44.15699" lon="5.04748">
        <ele>314</ele>
        <time>2020-05-23T07:12:43Z</time>
      </trkpt>
      <trkpt lat="44.15703" lon="5.04753">
        <ele>319</ele>
        <time>2020-05-23T07:12:50Z</time>
      </trkpt>
      <trkpt lat="44.15704" lon="5.04751">
        <ele>319</ele>
        <time>2020-05-23T07:12:51Z</time>
      </trkpt>
      <trkpt lat="44.15706" lon="5.04745">
        <ele>319</ele>
        <time>2020-05-23T07:12:56Z</time>
      </trkpt>
      <trkpt lat="44.15707" lon="5.04744">
        <ele>321</ele>
        <time>2020-05-23T07:12:58Z</time>
      </trkpt>
      <trkpt lat="44.15708" lon="5.04745">
        <ele>322</ele>
        <time>2020-05-23T07:12:59Z</time>
      </trkpt>
      <trkpt lat="44.15713" lon="5.04756">
        <ele>331</ele>
        <time>2020-05-23T07:13:10Z</time>
      </trkpt>
      <trkpt lat="44.15714" lon="5.04754">
        <ele>332</ele>
        <time>2020-05-23T07:13:14Z</time>
      </trkpt>
      <trkpt lat="44.15715" lon="5.0475">
        <ele>332</ele>
        <time>2020-05-23T07:13:22Z</time>
      </trkpt>
      <trkpt lat="44.15716" lon="5.0475">
        <ele>333</ele>
        <time>2020-05-23T07:13:31Z</time>
      </trkpt>
      <trkpt lat="44.15718" lon="5.0475">
        <ele>335</ele>
        <time>2020-05-23T07:13:50Z</time>
      </trkpt>
      <trkpt lat="44.1572" lon="5.04747">
        <ele>335</ele>
        <time>2020-05-23T07:13:57Z</time>
      </trkpt>
      <trkpt lat="44.1572" lon="5.04747">
        <ele>335</ele>
        <time>2020-05-23T07:13:58Z</time>
      </trkpt>
      <trkpt lat="44.15721" lon="5.04746">
        <ele>336</ele>
        <time>2020-05-23T07:13:59Z</time>
      </trkpt>
      <trkpt lat="44.15724" lon="5.04744">
        <ele>335</ele>
        <time>2020-05-23T07:14:01Z</time>
      </trkpt>
      <trkpt lat="44.15725" lon="5.04744">
        <ele>336</ele>
        <time>2020-05-23T07:14:02Z</time>
      </trkpt>
      <trkpt lat="44.15727" lon="5.04744">
        <ele>336</ele>
        <time>2020-05-23T07:14:03Z</time>
      </trkpt>
      <trkpt lat="44.15739" lon="5.04742">
        <ele>338</ele>
        <time>2020-05-23T07:14:09Z</time>
      </trkpt>
      <trkpt lat="44.15742" lon="5.04741">
        <ele>338</ele>
        <time>2020-05-23T07:14:11Z</time>
      </trkpt>
      <trkpt lat="44.15744" lon="5.04741">
        <ele>338</ele>
        <time>2020-05-23T07:14:12Z</time>
      </trkpt>
      <trkpt lat="44.15746" lon="5.04742">
        <ele>339</ele>
        <time>2020-05-23T07:14:13Z</time>
      </trkpt>
      <trkpt lat="44.15747" lon="5.04743">
        <ele>340</ele>
        <time>2020-05-23T07:14:14Z</time>
      </trkpt>
      <trkpt lat="44.15748" lon="5.04744">
        <ele>341</ele>
        <time>2020-05-23T07:14:15Z</time>
      </trkpt>
      <trkpt lat="44.15757" lon="5.04753">
        <ele>345</ele>
        <time>2020-05-23T07:14:25Z</time>
      </trkpt>
      <trkpt lat="44.15758" lon="5.04753">
        <ele>344</ele>
        <time>2020-05-23T07:14:26Z</time>
      </trkpt>
      <trkpt lat="44.15764" lon="5.04751">
        <ele>342</ele>
        <time>2020-05-23T07:14:32Z</time>
      </trkpt>
      <trkpt lat="44.15769" lon="5.04756">
        <ele>343</ele>
        <time>2020-05-23T07:14:41Z</time>
      </trkpt>
      <trkpt lat="44.15772" lon="5.04756">
        <ele>342</ele>
        <time>2020-05-23T07:14:52Z</time>
      </trkpt>
      <trkpt lat="44.15775" lon="5.04763">
        <ele>344</ele>
        <time>2020-05-23T07:15:02Z</time>
      </trkpt>
      <trkpt lat="44.15777" lon="5.04767">
        <ele>346</ele>
        <time>2020-05-23T07:15:11Z</time>
      </trkpt>
      <trkpt lat="44.15782" lon="5.0477">
        <ele>346</ele>
        <time>2020-05-23T07:15:17Z</time>
      </trkpt>
      <trkpt lat="44.15786" lon="5.04773">
        <ele>346</ele>
        <time>2020-05-23T07:15:20Z</time>
      </trkpt>
      <trkpt lat="44.15796" lon="5.04775">
        <ele>345</ele>
        <time>2020-05-23T07:15:28Z</time>
      </trkpt>
      <trkpt lat="44.15805" lon="5.04783">
        <ele>347</ele>
        <time>2020-05-23T07:15:38Z</time>
      </trkpt>
      <trkpt lat="44.15808" lon="5.04793">
        <ele>351</ele>
        <time>2020-05-23T07:15:50Z</time>
      </trkpt>
      <trkpt lat="44.15812" lon="5.04797">
        <ele>352</ele>
        <time>2020-05-23T07:15:55Z</time>
      </trkpt>
      <trkpt lat="44.15817" lon="5.04804">
        <ele>354</ele>
        <time>2020-05-23T07:16:05Z</time>
      </trkpt>
      <trkpt lat="44.15822" lon="5.04808">
        <ele>355</ele>
        <time>2020-05-23T07:16:12Z</time>
      </trkpt>
      <trkpt lat="44.15827" lon="5.04816">
        <ele>356</ele>
        <time>2020-05-23T07:16:22Z</time>
      </trkpt>
      <trkpt lat="44.15832" lon="5.04824">
        <ele>357</ele>
        <time>2020-05-23T07:16:32Z</time>
      </trkpt>
      <trkpt lat="44.15833" lon="5.04831">
        <ele>358</ele>
        <time>2020-05-23T07:16:40Z</time>
      </trkpt>
      <trkpt lat="44.15838" lon="5.04842">
        <ele>359</ele>
        <time>2020-05-23T07:16:48Z</time>
      </trkpt>
      <trkpt lat="44.15837" lon="5.0485">
        <ele>359</ele>
        <time>2020-05-23T07:16:56Z</time>
      </trkpt>
      <trkpt lat="44.15837" lon="5.0485">
        <ele>359</ele>
        <time>2020-05-23T07:16:58Z</time>
      </trkpt>
      <trkpt lat="44.15843" lon="5.04852">
        <ele>359</ele>
        <time>2020-05-23T07:17:02Z</time>
      </trkpt>
      <trkpt lat="44.15846" lon="5.04854">
        <ele>359</ele>
        <time>2020-05-23T07:17:05Z</time>
      </trkpt>
      <trkpt lat="44.15845" lon="5.0486">
        <ele>360</ele>
        <time>2020-05-23T07:17:10Z</time>
      </trkpt>
      <trkpt lat="44.15847" lon="5.04872">
        <ele>359</ele>
        <time>2020-05-23T07:17:18Z</time>
      </trkpt>
      <trkpt lat="44.15851" lon="5.04882">
        <ele>358</ele>
        <time>2020-05-23T07:17:25Z</time>
      </trkpt>
      <trkpt lat="44.15856" lon="5.04884">
        <ele>359</ele>
        <time>2020-05-23T07:17:30Z</time>
      </trkpt>
      <trkpt lat="44.15858" lon="5.04884">
        <ele>359</ele>
        <time>2020-05-23T07:17:32Z</time>
      </trkpt>
      <trkpt lat="44.15864" lon="5.04879">
        <ele>359</ele>
        <time>2020-05-23T07:17:37Z</time>
      </trkpt>
      <trkpt lat="44.15865" lon="5.0488">
        <ele>359</ele>
        <time>2020-05-23T07:17:39Z</time>
      </trkpt>
      <trkpt lat="44.15872" lon="5.04889">
        <ele>359</ele>
        <time>2020-05-23T07:17:45Z</time>
      </trkpt>
      <trkpt lat="44.15881" lon="5.04889">
        <ele>359</ele>
        <time>2020-05-23T07:18:39Z</time>
      </trkpt>
      <trkpt lat="44.15893" lon="5.04888">
        <ele>358</ele>
        <time>2020-05-23T07:18:49Z</time>
      </trkpt>
      <trkpt lat="44.15909" lon="5.04894">
        <ele>354</ele>
        <time>2020-05-23T07:18:56Z</time>
      </trkpt>
      <trkpt lat="44.15919" lon="5.04903">
        <ele>351</ele>
        <time>2020-05-23T07:19:03Z</time>
      </trkpt>
      <trkpt lat="44.15924" lon="5.0491">
        <ele>349</ele>
        <time>2020-05-23T07:19:08Z</time>
      </trkpt>
      <trkpt lat="44.15926" lon="5.04912">
        <ele>348</ele>
        <time>2020-05-23T07:19:09Z</time>
      </trkpt>
      <trkpt lat="44.15928" lon="5.04913">
        <ele>348</ele>
        <time>2020-05-23T07:19:10Z</time>
      </trkpt>
      <trkpt lat="44.15938" lon="5.04917">
        <ele>345</ele>
        <time>2020-05-23T07:19:14Z</time>
      </trkpt>
      <trkpt lat="44.1594" lon="5.04918">
        <ele>344</ele>
        <time>2020-05-23T07:19:15Z</time>
      </trkpt>
      <trkpt lat="44.15942" lon="5.0492">
        <ele>343</ele>
        <time>2020-05-23T07:19:16Z</time>
      </trkpt>
      <trkpt lat="44.15943" lon="5.04922">
        <ele>343</ele>
        <time>2020-05-23T07:19:17Z</time>
      </trkpt>
      <trkpt lat="44.15945" lon="5.04925">
        <ele>342</ele>
        <time>2020-05-23T07:19:19Z</time>
      </trkpt>
      <trkpt lat="44.15946" lon="5.04927">
        <ele>342</ele>
        <time>2020-05-23T07:19:20Z</time>
      </trkpt>
      <trkpt lat="44.15947" lon="5.0493">
        <ele>341</ele>
        <time>2020-05-23T07:19:21Z</time>
      </trkpt>
      <trkpt lat="44.15949" lon="5.04932">
        <ele>341</ele>
        <time>2020-05-23T07:19:22Z</time>
      </trkpt>
      <trkpt lat="44.15949" lon="5.04934">
        <ele>341</ele>
        <time>2020-05-23T07:19:23Z</time>
      </trkpt>
      <trkpt lat="44.1595" lon="5.04936">
        <ele>341</ele>
        <time>2020-05-23T07:19:24Z</time>
      </trkpt>
      <trkpt lat="44.15951" lon="5.04938">
        <ele>341</ele>
        <time>2020-05-23T07:19:25Z</time>
      </trkpt>
      <trkpt lat="44.15953" lon="5.04939">
        <ele>340</ele>
        <time>2020-05-23T07:19:26Z</time>
      </trkpt>
      <trkpt lat="44.15956" lon="5.0494">
        <ele>340</ele>
        <time>2020-05-23T07:19:27Z</time>
      </trkpt>
      <trkpt lat="44.15958" lon="5.04941">
        <ele>340</ele>
        <time>2020-05-23T07:19:28Z</time>
      </trkpt>
      <trkpt lat="44.15961" lon="5.04942">
        <ele>340</ele>
        <time>2020-05-23T07:19:29Z</time>
      </trkpt>
      <trkpt lat="44.15966" lon="5.04946">
        <ele>339</ele>
        <time>2020-05-23T07:19:32Z</time>
      </trkpt>
      <trkpt lat="44.15967" lon="5.04949">
        <ele>339</ele>
        <time>2020-05-23T07:19:33Z</time>
      </trkpt>
      <trkpt lat="44.15967" lon="5.04951">
        <ele>339</ele>
        <time>2020-05-23T07:19:34Z</time>
      </trkpt>
      <trkpt lat="44.15971" lon="5.04954">
        <ele>339</ele>
        <time>2020-05-23T07:19:37Z</time>
      </trkpt>
      <trkpt lat="44.15979" lon="5.04955">
        <ele>337</ele>
        <time>2020-05-23T07:19:41Z</time>
      </trkpt>
      <trkpt lat="44.1598" lon="5.04956">
        <ele>337</ele>
        <time>2020-05-23T07:19:42Z</time>
      </trkpt>
      <trkpt lat="44.15982" lon="5.04957">
        <ele>336</ele>
        <time>2020-05-23T07:19:43Z</time>
      </trkpt>
      <trkpt lat="44.15985" lon="5.04958">
        <ele>335</ele>
        <time>2020-05-23T07:19:44Z</time>
      </trkpt>
      <trkpt lat="44.15987" lon="5.04958">
        <ele>335</ele>
        <time>2020-05-23T07:19:45Z</time>
      </trkpt>
      <trkpt lat="44.15989" lon="5.04959">
        <ele>334</ele>
        <time>2020-05-23T07:19:46Z</time>
      </trkpt>
      <trkpt lat="44.16004" lon="5.04974">
        <ele>331</ele>
        <time>2020-05-23T07:19:56Z</time>
      </trkpt>
      <trkpt lat="44.16006" lon="5.04976">
        <ele>330</ele>
        <time>2020-05-23T07:19:58Z</time>
      </trkpt>
      <trkpt lat="44.16009" lon="5.04977">
        <ele>330</ele>
        <time>2020-05-23T07:19:59Z</time>
      </trkpt>
      <trkpt lat="44.16011" lon="5.04977">
        <ele>330</ele>
        <time>2020-05-23T07:20:00Z</time>
      </trkpt>
      <trkpt lat="44.16012" lon="5.04978">
        <ele>329</ele>
        <time>2020-05-23T07:20:01Z</time>
      </trkpt>
      <trkpt lat="44.16019" lon="5.04982">
        <ele>328</ele>
        <time>2020-05-23T07:20:05Z</time>
      </trkpt>
      <trkpt lat="44.16028" lon="5.04986">
        <ele>327</ele>
        <time>2020-05-23T07:20:09Z</time>
      </trkpt>
      <trkpt lat="44.16031" lon="5.04987">
        <ele>326</ele>
        <time>2020-05-23T07:20:10Z</time>
      </trkpt>
      <trkpt lat="44.1604" lon="5.0499">
        <ele>325</ele>
        <time>2020-05-23T07:20:13Z</time>
      </trkpt>
      <trkpt lat="44.16043" lon="5.04991">
        <ele>324</ele>
        <time>2020-05-23T07:20:14Z</time>
      </trkpt>
      <trkpt lat="44.16077" lon="5.05006">
        <ele>320</ele>
        <time>2020-05-23T07:20:25Z</time>
      </trkpt>
      <trkpt lat="44.16109" lon="5.05018">
        <ele>320</ele>
        <time>2020-05-23T07:20:36Z</time>
      </trkpt>
      <trkpt lat="44.16132" lon="5.05023">
        <ele>320</ele>
        <time>2020-05-23T07:20:45Z</time>
      </trkpt>
      <trkpt lat="44.1614" lon="5.05023">
        <ele>320</ele>
        <time>2020-05-23T07:20:48Z</time>
      </trkpt>
      <trkpt lat="44.16142" lon="5.05022">
        <ele>319</ele>
        <time>2020-05-23T07:20:49Z</time>
      </trkpt>
      <trkpt lat="44.1615" lon="5.05008">
        <ele>318</ele>
        <time>2020-05-23T07:20:56Z</time>
      </trkpt>
      <trkpt lat="44.16154" lon="5.05">
        <ele>318</ele>
        <time>2020-05-23T07:20:59Z</time>
      </trkpt>
      <trkpt lat="44.16156" lon="5.04999">
        <ele>318</ele>
        <time>2020-05-23T07:21:00Z</time>
      </trkpt>
      <trkpt lat="44.16157" lon="5.04998">
        <ele>318</ele>
        <time>2020-05-23T07:21:01Z</time>
      </trkpt>
      <trkpt lat="44.1616" lon="5.04998">
        <ele>318</ele>
        <time>2020-05-23T07:21:02Z</time>
      </trkpt>
      <trkpt lat="44.16162" lon="5.04998">
        <ele>318</ele>
        <time>2020-05-23T07:21:03Z</time>
      </trkpt>
      <trkpt lat="44.16165" lon="5.04998">
        <ele>317</ele>
        <time>2020-05-23T07:21:04Z</time>
      </trkpt>
      <trkpt lat="44.16167" lon="5.04999">
        <ele>317</ele>
        <time>2020-05-23T07:21:05Z</time>
      </trkpt>
      <trkpt lat="44.16169" lon="5.05001">
        <ele>317</ele>
        <time>2020-05-23T07:21:06Z</time>
      </trkpt>
      <trkpt lat="44.16172" lon="5.05002">
        <ele>318</ele>
        <time>2020-05-23T07:21:07Z</time>
      </trkpt>
      <trkpt lat="44.16174" lon="5.05003">
        <ele>318</ele>
        <time>2020-05-23T07:21:08Z</time>
      </trkpt>
      <trkpt lat="44.16176" lon="5.05004">
        <ele>318</ele>
        <time>2020-05-23T07:21:09Z</time>
      </trkpt>
      <trkpt lat="44.16178" lon="5.05004">
        <ele>318</ele>
        <time>2020-05-23T07:21:10Z</time>
      </trkpt>
      <trkpt lat="44.16179" lon="5.05005">
        <ele>318</ele>
        <time>2020-05-23T07:21:11Z</time>
      </trkpt>
      <trkpt lat="44.16185" lon="5.05006">
        <ele>319</ele>
        <time>2020-05-23T07:21:14Z</time>
      </trkpt>
      <trkpt lat="44.16205" lon="5.05005">
        <ele>323</ele>
        <time>2020-05-23T07:21:24Z</time>
      </trkpt>
      <trkpt lat="44.16208" lon="5.05003">
        <ele>324</ele>
        <time>2020-05-23T07:21:26Z</time>
      </trkpt>
      <trkpt lat="44.16209" lon="5.05001">
        <ele>325</ele>
        <time>2020-05-23T07:21:27Z</time>
      </trkpt>
      <trkpt lat="44.16209" lon="5.05">
        <ele>325</ele>
        <time>2020-05-23T07:21:28Z</time>
      </trkpt>
      <trkpt lat="44.16211" lon="5.04996">
        <ele>327</ele>
        <time>2020-05-23T07:21:31Z</time>
      </trkpt>
      <trkpt lat="44.16211" lon="5.04994">
        <ele>327</ele>
        <time>2020-05-23T07:21:32Z</time>
      </trkpt>
      <trkpt lat="44.16211" lon="5.04992">
        <ele>328</ele>
        <time>2020-05-23T07:21:33Z</time>
      </trkpt>
      <trkpt lat="44.16206" lon="5.04982">
        <ele>329</ele>
        <time>2020-05-23T07:21:42Z</time>
      </trkpt>
      <trkpt lat="44.16205" lon="5.0498">
        <ele>330</ele>
        <time>2020-05-23T07:21:43Z</time>
      </trkpt>
      <trkpt lat="44.16205" lon="5.04978">
        <ele>330</ele>
        <time>2020-05-23T07:21:44Z</time>
      </trkpt>
      <trkpt lat="44.16205" lon="5.04965">
        <ele>333</ele>
        <time>2020-05-23T07:21:52Z</time>
      </trkpt>
      <trkpt lat="44.16207" lon="5.0495">
        <ele>335</ele>
        <time>2020-05-23T07:22:00Z</time>
      </trkpt>
      <trkpt lat="44.16208" lon="5.04948">
        <ele>336</ele>
        <time>2020-05-23T07:22:01Z</time>
      </trkpt>
      <trkpt lat="44.16208" lon="5.04945">
        <ele>336</ele>
        <time>2020-05-23T07:22:02Z</time>
      </trkpt>
      <trkpt lat="44.16209" lon="5.04944">
        <ele>337</ele>
        <time>2020-05-23T07:22:03Z</time>
      </trkpt>
      <trkpt lat="44.16209" lon="5.04942">
        <ele>337</ele>
        <time>2020-05-23T07:22:04Z</time>
      </trkpt>
      <trkpt lat="44.1621" lon="5.04941">
        <ele>337</ele>
        <time>2020-05-23T07:22:05Z</time>
      </trkpt>
      <trkpt lat="44.1621" lon="5.0494">
        <ele>337</ele>
        <time>2020-05-23T07:22:06Z</time>
      </trkpt>
      <trkpt lat="44.16211" lon="5.04938">
        <ele>337</ele>
        <time>2020-05-23T07:22:07Z</time>
      </trkpt>
      <trkpt lat="44.16211" lon="5.04937">
        <ele>338</ele>
        <time>2020-05-23T07:22:08Z</time>
      </trkpt>
      <trkpt lat="44.16212" lon="5.04935">
        <ele>338</ele>
        <time>2020-05-23T07:22:09Z</time>
      </trkpt>
      <trkpt lat="44.16212" lon="5.04934">
        <ele>338</ele>
        <time>2020-05-23T07:22:10Z</time>
      </trkpt>
      <trkpt lat="44.16213" lon="5.04933">
        <ele>338</ele>
        <time>2020-05-23T07:22:11Z</time>
      </trkpt>
      <trkpt lat="44.16213" lon="5.04931">
        <ele>339</ele>
        <time>2020-05-23T07:22:12Z</time>
      </trkpt>
      <trkpt lat="44.16214" lon="5.0493">
        <ele>339</ele>
        <time>2020-05-23T07:22:13Z</time>
      </trkpt>
      <trkpt lat="44.16215" lon="5.04929">
        <ele>339</ele>
        <time>2020-05-23T07:22:14Z</time>
      </trkpt>
      <trkpt lat="44.16216" lon="5.04927">
        <ele>340</ele>
        <time>2020-05-23T07:22:15Z</time>
      </trkpt>
      <trkpt lat="44.16217" lon="5.04925">
        <ele>340</ele>
        <time>2020-05-23T07:22:16Z</time>
      </trkpt>
      <trkpt lat="44.16226" lon="5.04911">
        <ele>344</ele>
        <time>2020-05-23T07:22:25Z</time>
      </trkpt>
      <trkpt lat="44.16235" lon="5.04901">
        <ele>347</ele>
        <time>2020-05-23T07:22:34Z</time>
      </trkpt>
      <trkpt lat="44.16243" lon="5.04886">
        <ele>350</ele>
        <time>2020-05-23T07:22:45Z</time>
      </trkpt>
      <trkpt lat="44.16245" lon="5.04879">
        <ele>350</ele>
        <time>2020-05-23T07:22:50Z</time>
      </trkpt>
      <trkpt lat="44.1625" lon="5.04877">
        <ele>352</ele>
        <time>2020-05-23T07:22:55Z</time>
      </trkpt>
      <trkpt lat="44.16259" lon="5.04878">
        <ele>355</ele>
        <time>2020-05-23T07:23:06Z</time>
      </trkpt>
      <trkpt lat="44.16267" lon="5.04883">
        <ele>358</ele>
        <time>2020-05-23T07:23:16Z</time>
      </trkpt>
      <trkpt lat="44.16268" lon="5.04884">
        <ele>358</ele>
        <time>2020-05-23T07:23:18Z</time>
      </trkpt>
      <trkpt lat="44.16276" lon="5.04891">
        <ele>361</ele>
        <time>2020-05-23T07:23:28Z</time>
      </trkpt>
      <trkpt lat="44.16287" lon="5.04898">
        <ele>364</ele>
        <time>2020-05-23T07:23:39Z</time>
      </trkpt>
      <trkpt lat="44.16297" lon="5.04902">
        <ele>366</ele>
        <time>2020-05-23T07:23:50Z</time>
      </trkpt>
      <trkpt lat="44.163" lon="5.04903">
        <ele>367</ele>
        <time>2020-05-23T07:23:53Z</time>
      </trkpt>
      <trkpt lat="44.16314" lon="5.04908">
        <ele>370</ele>
        <time>2020-05-23T07:24:06Z</time>
      </trkpt>
      <trkpt lat="44.16327" lon="5.04909">
        <ele>373</ele>
        <time>2020-05-23T07:24:15Z</time>
      </trkpt>
      <trkpt lat="44.16342" lon="5.04912">
        <ele>378</ele>
        <time>2020-05-23T07:24:27Z</time>
      </trkpt>
      <trkpt lat="44.16352" lon="5.04917">
        <ele>382</ele>
        <time>2020-05-23T07:24:39Z</time>
      </trkpt>
      <trkpt lat="44.16359" lon="5.04917">
        <ele>384</ele>
        <time>2020-05-23T07:24:49Z</time>
      </trkpt>
      <trkpt lat="44.16359" lon="5.04915">
        <ele>384</ele>
        <time>2020-05-23T07:25:04Z</time>
      </trkpt>
      <trkpt lat="44.16361" lon="5.04914">
        <ele>384</ele>
        <time>2020-05-23T07:25:24Z</time>
      </trkpt>
      <trkpt lat="44.16367" lon="5.04915">
        <ele>386</ele>
        <time>2020-05-23T07:25:39Z</time>
      </trkpt>
      <trkpt lat="44.16374" lon="5.0492">
        <ele>388</ele>
        <time>2020-05-23T07:25:50Z</time>
      </trkpt>
      <trkpt lat="44.16379" lon="5.04923">
        <ele>390</ele>
        <time>2020-05-23T07:25:58Z</time>
      </trkpt>
      <trkpt lat="44.16383" lon="5.04926">
        <ele>392</ele>
        <time>2020-05-23T07:26:04Z</time>
      </trkpt>
      <trkpt lat="44.16389" lon="5.04932">
        <ele>397</ele>
        <time>2020-05-23T07:26:14Z</time>
      </trkpt>
      <trkpt lat="44.16394" lon="5.04939">
        <ele>400</ele>
        <time>2020-05-23T07:26:23Z</time>
      </trkpt>
      <trkpt lat="44.16396" lon="5.04942">
        <ele>402</ele>
        <time>2020-05-23T07:26:26Z</time>
      </trkpt>
      <trkpt lat="44.16397" lon="5.04944">
        <ele>403</ele>
        <time>2020-05-23T07:26:28Z</time>
      </trkpt>
      <trkpt lat="44.164" lon="5.04943">
        <ele>403</ele>
        <time>2020-05-23T07:26:36Z</time>
      </trkpt>
      <trkpt lat="44.16401" lon="5.04944">
        <ele>404</ele>
        <time>2020-05-23T07:26:44Z</time>
      </trkpt>
      <trkpt lat="44.16405" lon="5.04947">
        <ele>406</ele>
        <time>2020-05-23T07:26:55Z</time>
      </trkpt>
      <trkpt lat="44.16404" lon="5.04947">
        <ele>406</ele>
        <time>2020-05-23T07:27:03Z</time>
      </trkpt>
      <trkpt lat="44.16405" lon="5.04951">
        <ele>406</ele>
        <time>2020-05-23T07:27:10Z</time>
      </trkpt>
      <trkpt lat="44.16407" lon="5.04954">
        <ele>407</ele>
        <time>2020-05-23T07:27:15Z</time>
      </trkpt>
      <trkpt lat="44.16409" lon="5.04956">
        <ele>408</ele>
        <time>2020-05-23T07:27:24Z</time>
      </trkpt>
      <trkpt lat="44.16412" lon="5.04959">
        <ele>410</ele>
        <time>2020-05-23T07:27:31Z</time>
      </trkpt>
      <trkpt lat="44.16416" lon="5.04963">
        <ele>413</ele>
        <time>2020-05-23T07:27:37Z</time>
      </trkpt>
      <trkpt lat="44.16421" lon="5.04964">
        <ele>414</ele>
        <time>2020-05-23T07:27:41Z</time>
      </trkpt>
      <trkpt lat="44.16425" lon="5.04967">
        <ele>415</ele>
        <time>2020-05-23T07:27:45Z</time>
      </trkpt>
      <trkpt lat="44.16428" lon="5.04971">
        <ele>417</ele>
        <time>2020-05-23T07:27:53Z</time>
      </trkpt>
      <trkpt lat="44.16432" lon="5.04977">
        <ele>418</ele>
        <time>2020-05-23T07:28:01Z</time>
      </trkpt>
      <trkpt lat="44.16434" lon="5.04983">
        <ele>420</ele>
        <time>2020-05-23T07:28:09Z</time>
      </trkpt>
      <trkpt lat="44.16436" lon="5.04985">
        <ele>422</ele>
        <time>2020-05-23T07:28:13Z</time>
      </trkpt>
      <trkpt lat="44.1644" lon="5.0499">
        <ele>425</ele>
        <time>2020-05-23T07:28:21Z</time>
      </trkpt>
      <trkpt lat="44.16444" lon="5.04995">
        <ele>429</ele>
        <time>2020-05-23T07:28:29Z</time>
      </trkpt>
      <trkpt lat="44.16444" lon="5.04999">
        <ele>430</ele>
        <time>2020-05-23T07:28:37Z</time>
      </trkpt>
      <trkpt lat="44.16444" lon="5.05004">
        <ele>430</ele>
        <time>2020-05-23T07:28:45Z</time>
      </trkpt>
      <trkpt lat="44.16444" lon="5.05009">
        <ele>429</ele>
        <time>2020-05-23T07:28:51Z</time>
      </trkpt>
      <trkpt lat="44.16449" lon="5.05011">
        <ele>429</ele>
        <time>2020-05-23T07:30:23Z</time>
      </trkpt>
      <trkpt lat="44.16453" lon="5.05014">
        <ele>428</ele>
        <time>2020-05-23T07:30:32Z</time>
      </trkpt>
      <trkpt lat="44.16456" lon="5.05016">
        <ele>427</ele>
        <time>2020-05-23T07:30:35Z</time>
      </trkpt>
      <trkpt lat="44.16467" lon="5.05023">
        <ele>427</ele>
        <time>2020-05-23T07:30:47Z</time>
      </trkpt>
      <trkpt lat="44.1647" lon="5.05023">
        <ele>427</ele>
        <time>2020-05-23T07:30:51Z</time>
      </trkpt>
      <trkpt lat="44.16477" lon="5.05023">
        <ele>425</ele>
        <time>2020-05-23T07:30:58Z</time>
      </trkpt>
      <trkpt lat="44.16481" lon="5.05017">
        <ele>422</ele>
        <time>2020-05-23T07:31:06Z</time>
      </trkpt>
      <trkpt lat="44.16485" lon="5.05014">
        <ele>419</ele>
        <time>2020-05-23T07:31:11Z</time>
      </trkpt>
      <trkpt lat="44.16487" lon="5.05011">
        <ele>418</ele>
        <time>2020-05-23T07:31:15Z</time>
      </trkpt>
      <trkpt lat="44.16492" lon="5.05008">
        <ele>415</ele>
        <time>2020-05-23T07:31:20Z</time>
      </trkpt>
      <trkpt lat="44.16497" lon="5.05003">
        <ele>413</ele>
        <time>2020-05-23T07:31:30Z</time>
      </trkpt>
      <trkpt lat="44.165" lon="5.04999">
        <ele>411</ele>
        <time>2020-05-23T07:31:34Z</time>
      </trkpt>
      <trkpt lat="44.16506" lon="5.04993">
        <ele>407</ele>
        <time>2020-05-23T07:31:39Z</time>
      </trkpt>
      <trkpt lat="44.1651" lon="5.04994">
        <ele>406</ele>
        <time>2020-05-23T07:31:41Z</time>
      </trkpt>
      <trkpt lat="44.16524" lon="5.04989">
        <ele>399</ele>
        <time>2020-05-23T07:31:49Z</time>
      </trkpt>
      <trkpt lat="44.16526" lon="5.04986">
        <ele>398</ele>
        <time>2020-05-23T07:31:51Z</time>
      </trkpt>
      <trkpt lat="44.16529" lon="5.04982">
        <ele>397</ele>
        <time>2020-05-23T07:31:54Z</time>
      </trkpt>
      <trkpt lat="44.16534" lon="5.04977">
        <ele>395</ele>
        <time>2020-05-23T07:31:58Z</time>
      </trkpt>
      <trkpt lat="44.16547" lon="5.04963">
        <ele>392</ele>
        <time>2020-05-23T07:32:06Z</time>
      </trkpt>
      <trkpt lat="44.16549" lon="5.04952">
        <ele>392</ele>
        <time>2020-05-23T07:32:10Z</time>
      </trkpt>
      <trkpt lat="44.1655" lon="5.04942">
        <ele>392</ele>
        <time>2020-05-23T07:32:13Z</time>
      </trkpt>
      <trkpt lat="44.16556" lon="5.04918">
        <ele>393</ele>
        <time>2020-05-23T07:32:20Z</time>
      </trkpt>
      <trkpt lat="44.16557" lon="5.04914">
        <ele>394</ele>
        <time>2020-05-23T07:32:21Z</time>
      </trkpt>
      <trkpt lat="44.16558" lon="5.04911">
        <ele>394</ele>
        <time>2020-05-23T07:32:22Z</time>
      </trkpt>
      <trkpt lat="44.16559" lon="5.04908">
        <ele>394</ele>
        <time>2020-05-23T07:32:23Z</time>
      </trkpt>
      <trkpt lat="44.16563" lon="5.04895">
        <ele>397</ele>
        <time>2020-05-23T07:32:32Z</time>
      </trkpt>
      <trkpt lat="44.16563" lon="5.04884">
        <ele>398</ele>
        <time>2020-05-23T07:32:41Z</time>
      </trkpt>
      <trkpt lat="44.16561" lon="5.04873">
        <ele>398</ele>
        <time>2020-05-23T07:32:53Z</time>
      </trkpt>
      <trkpt lat="44.16558" lon="5.0487">
        <ele>398</ele>
        <time>2020-05-23T07:32:57Z</time>
      </trkpt>
      <trkpt lat="44.16557" lon="5.04869">
        <ele>398</ele>
        <time>2020-05-23T07:32:58Z</time>
      </trkpt>
      <trkpt lat="44.16556" lon="5.04868">
        <ele>398</ele>
        <time>2020-05-23T07:32:59Z</time>
      </trkpt>
      <trkpt lat="44.16556" lon="5.04866">
        <ele>398</ele>
        <time>2020-05-23T07:33:00Z</time>
      </trkpt>
      <trkpt lat="44.16556" lon="5.04864">
        <ele>398</ele>
        <time>2020-05-23T07:33:01Z</time>
      </trkpt>
      <trkpt lat="44.16556" lon="5.04861">
        <ele>398</ele>
        <time>2020-05-23T07:33:02Z</time>
      </trkpt>
      <trkpt lat="44.16556" lon="5.04859">
        <ele>398</ele>
        <time>2020-05-23T07:33:03Z</time>
      </trkpt>
      <trkpt lat="44.16557" lon="5.04857">
        <ele>398</ele>
        <time>2020-05-23T07:33:04Z</time>
      </trkpt>
      <trkpt lat="44.16558" lon="5.04855">
        <ele>399</ele>
        <time>2020-05-23T07:33:05Z</time>
      </trkpt>
      <trkpt lat="44.16558" lon="5.04853">
        <ele>399</ele>
        <time>2020-05-23T07:33:06Z</time>
      </trkpt>
      <trkpt lat="44.16559" lon="5.04851">
        <ele>399</ele>
        <time>2020-05-23T07:33:07Z</time>
      </trkpt>
      <trkpt lat="44.16559" lon="5.04849">
        <ele>399</ele>
        <time>2020-05-23T07:33:08Z</time>
      </trkpt>
      <trkpt lat="44.16559" lon="5.04847">
        <ele>400</ele>
        <time>2020-05-23T07:33:09Z</time>
      </trkpt>
      <trkpt lat="44.1656" lon="5.04845">
        <ele>400</ele>
        <time>2020-05-23T07:33:10Z</time>
      </trkpt>
      <trkpt lat="44.16561" lon="5.04843">
        <ele>400</ele>
        <time>2020-05-23T07:33:11Z</time>
      </trkpt>
      <trkpt lat="44.16562" lon="5.04841">
        <ele>401</ele>
        <time>2020-05-23T07:33:12Z</time>
      </trkpt>
      <trkpt lat="44.16563" lon="5.04838">
        <ele>401</ele>
        <time>2020-05-23T07:33:13Z</time>
      </trkpt>
      <trkpt lat="44.16564" lon="5.04837">
        <ele>402</ele>
        <time>2020-05-23T07:33:14Z</time>
      </trkpt>
      <trkpt lat="44.16568" lon="5.04832">
        <ele>403</ele>
        <time>2020-05-23T07:33:24Z</time>
      </trkpt>
      <trkpt lat="44.16573" lon="5.04833">
        <ele>406</ele>
        <time>2020-05-23T07:33:38Z</time>
      </trkpt>
      <trkpt lat="44.16574" lon="5.04834">
        <ele>406</ele>
        <time>2020-05-23T07:33:39Z</time>
      </trkpt>
      <trkpt lat="44.16575" lon="5.04835">
        <ele>407</ele>
        <time>2020-05-23T07:33:40Z</time>
      </trkpt>
      <trkpt lat="44.16581" lon="5.04843">
        <ele>409</ele>
        <time>2020-05-23T07:33:46Z</time>
      </trkpt>
      <trkpt lat="44.16582" lon="5.04845">
        <ele>409</ele>
        <time>2020-05-23T07:33:47Z</time>
      </trkpt>
      <trkpt lat="44.166" lon="5.0486">
        <ele>411</ele>
        <time>2020-05-23T07:33:58Z</time>
      </trkpt>
      <trkpt lat="44.16618" lon="5.04867">
        <ele>413</ele>
        <time>2020-05-23T07:34:06Z</time>
      </trkpt>
      <trkpt lat="44.16635" lon="5.04866">
        <ele>415</ele>
        <time>2020-05-23T07:34:13Z</time>
      </trkpt>
      <trkpt lat="44.16636" lon="5.04865">
        <ele>416</ele>
        <time>2020-05-23T07:34:14Z</time>
      </trkpt>
      <trkpt lat="44.16667" lon="5.04859">
        <ele>417</ele>
        <time>2020-05-23T07:34:27Z</time>
      </trkpt>
      <trkpt lat="44.16688" lon="5.04853">
        <ele>419</ele>
        <time>2020-05-23T07:34:36Z</time>
      </trkpt>
      <trkpt lat="44.16708" lon="5.04849">
        <ele>418</ele>
        <time>2020-05-23T07:34:47Z</time>
      </trkpt>
      <trkpt lat="44.16717" lon="5.04847">
        <ele>418</ele>
        <time>2020-05-23T07:34:56Z</time>
      </trkpt>
      <trkpt lat="44.16731" lon="5.04841">
        <ele>417</ele>
        <time>2020-05-23T07:35:08Z</time>
      </trkpt>
      <trkpt lat="44.16749" lon="5.04832">
        <ele>416</ele>
        <time>2020-05-23T07:35:21Z</time>
      </trkpt>
      <trkpt lat="44.16756" lon="5.04828">
        <ele>415</ele>
        <time>2020-05-23T07:38:56Z</time>
      </trkpt>
      <trkpt lat="44.1676" lon="5.04829">
        <ele>414</ele>
        <time>2020-05-23T07:40:45Z</time>
      </trkpt>
      <trkpt lat="44.16775" lon="5.04832">
        <ele>410</ele>
        <time>2020-05-23T07:40:51Z</time>
      </trkpt>
      <trkpt lat="44.168" lon="5.04839">
        <ele>410</ele>
        <time>2020-05-23T07:41:01Z</time>
      </trkpt>
      <trkpt lat="44.16804" lon="5.04838">
        <ele>410</ele>
        <time>2020-05-23T07:41:03Z</time>
      </trkpt>
      <trkpt lat="44.16818" lon="5.04836">
        <ele>412</ele>
        <time>2020-05-23T07:41:11Z</time>
      </trkpt>
      <trkpt lat="44.16819" lon="5.04836">
        <ele>412</ele>
        <time>2020-05-23T07:41:12Z</time>
      </trkpt>
      <trkpt lat="44.1682" lon="5.04835">
        <ele>413</ele>
        <time>2020-05-23T07:41:13Z</time>
      </trkpt>
      <trkpt lat="44.16822" lon="5.04834">
        <ele>413</ele>
        <time>2020-05-23T07:41:14Z</time>
      </trkpt>
      <trkpt lat="44.16825" lon="5.04834">
        <ele>414</ele>
        <time>2020-05-23T07:41:16Z</time>
      </trkpt>
      <trkpt lat="44.16827" lon="5.04835">
        <ele>414</ele>
        <time>2020-05-23T07:41:17Z</time>
      </trkpt>
      <trkpt lat="44.16836" lon="5.04837">
        <ele>416</ele>
        <time>2020-05-23T07:41:23Z</time>
      </trkpt>
      <trkpt lat="44.16838" lon="5.04837">
        <ele>416</ele>
        <time>2020-05-23T07:41:24Z</time>
      </trkpt>
      <trkpt lat="44.16841" lon="5.04836">
        <ele>416</ele>
        <time>2020-05-23T07:41:26Z</time>
      </trkpt>
      <trkpt lat="44.16843" lon="5.04836">
        <ele>417</ele>
        <time>2020-05-23T07:41:27Z</time>
      </trkpt>
      <trkpt lat="44.16856" lon="5.04838">
        <ele>420</ele>
        <time>2020-05-23T07:41:36Z</time>
      </trkpt>
      <trkpt lat="44.16869" lon="5.04843">
        <ele>423</ele>
        <time>2020-05-23T07:41:45Z</time>
      </trkpt>
      <trkpt lat="44.16882" lon="5.04847">
        <ele>426</ele>
        <time>2020-05-23T07:41:55Z</time>
      </trkpt>
      <trkpt lat="44.16892" lon="5.04852">
        <ele>429</ele>
        <time>2020-05-23T07:42:03Z</time>
      </trkpt>
      <trkpt lat="44.16903" lon="5.04859">
        <ele>432</ele>
        <time>2020-05-23T07:42:13Z</time>
      </trkpt>
      <trkpt lat="44.16907" lon="5.04862">
        <ele>432</ele>
        <time>2020-05-23T07:42:16Z</time>
      </trkpt>
      <trkpt lat="44.16909" lon="5.04864">
        <ele>432</ele>
        <time>2020-05-23T07:42:17Z</time>
      </trkpt>
      <trkpt lat="44.16926" lon="5.0488">
        <ele>432</ele>
        <time>2020-05-23T07:42:28Z</time>
      </trkpt>
      <trkpt lat="44.16951" lon="5.04895">
        <ele>432</ele>
        <time>2020-05-23T07:42:40Z</time>
      </trkpt>
      <trkpt lat="44.16956" lon="5.04895">
        <ele>432</ele>
        <time>2020-05-23T07:42:43Z</time>
      </trkpt>
      <trkpt lat="44.16977" lon="5.04897">
        <ele>432</ele>
        <time>2020-05-23T07:42:52Z</time>
      </trkpt>
      <trkpt lat="44.17018" lon="5.04914">
        <ele>427</ele>
        <time>2020-05-23T07:43:04Z</time>
      </trkpt>
      <trkpt lat="44.17044" lon="5.0492">
        <ele>426</ele>
        <time>2020-05-23T07:43:12Z</time>
      </trkpt>
      <trkpt lat="44.17076" lon="5.04923">
        <ele>424</ele>
        <time>2020-05-23T07:43:22Z</time>
      </trkpt>
      <trkpt lat="44.17103" lon="5.04931">
        <ele>423</ele>
        <time>2020-05-23T07:43:30Z</time>
      </trkpt>
      <trkpt lat="44.17125" lon="5.04938">
        <ele>424</ele>
        <time>2020-05-23T07:43:38Z</time>
      </trkpt>
      <trkpt lat="44.17127" lon="5.04938">
        <ele>424</ele>
        <time>2020-05-23T07:43:39Z</time>
      </trkpt>
      <trkpt lat="44.17143" lon="5.04943">
        <ele>426</ele>
        <time>2020-05-23T07:43:47Z</time>
      </trkpt>
      <trkpt lat="44.17146" lon="5.04944">
        <ele>426</ele>
        <time>2020-05-23T07:43:49Z</time>
      </trkpt>
      <trkpt lat="44.17148" lon="5.04944">
        <ele>426</ele>
        <time>2020-05-23T07:43:50Z</time>
      </trkpt>
      <trkpt lat="44.17149" lon="5.04945">
        <ele>426</ele>
        <time>2020-05-23T07:43:51Z</time>
      </trkpt>
      <trkpt lat="44.17151" lon="5.04946">
        <ele>426</ele>
        <time>2020-05-23T07:43:52Z</time>
      </trkpt>
      <trkpt lat="44.17153" lon="5.04947">
        <ele>426</ele>
        <time>2020-05-23T07:43:53Z</time>
      </trkpt>
      <trkpt lat="44.17155" lon="5.04948">
        <ele>426</ele>
        <time>2020-05-23T07:43:54Z</time>
      </trkpt>
      <trkpt lat="44.17157" lon="5.0495">
        <ele>426</ele>
        <time>2020-05-23T07:43:55Z</time>
      </trkpt>
      <trkpt lat="44.17158" lon="5.04951">
        <ele>427</ele>
        <time>2020-05-23T07:43:56Z</time>
      </trkpt>
      <trkpt lat="44.1716" lon="5.04952">
        <ele>427</ele>
        <time>2020-05-23T07:43:57Z</time>
      </trkpt>
      <trkpt lat="44.17174" lon="5.04973">
        <ele>429</ele>
        <time>2020-05-23T07:44:09Z</time>
      </trkpt>
      <trkpt lat="44.17182" lon="5.04997">
        <ele>430</ele>
        <time>2020-05-23T07:44:18Z</time>
      </trkpt>
      <trkpt lat="44.17182" lon="5.05">
        <ele>430</ele>
        <time>2020-05-23T07:44:19Z</time>
      </trkpt>
      <trkpt lat="44.17183" lon="5.05002">
        <ele>430</ele>
        <time>2020-05-23T07:44:20Z</time>
      </trkpt>
      <trkpt lat="44.172" lon="5.05031">
        <ele>432</ele>
        <time>2020-05-23T07:44:30Z</time>
      </trkpt>
      <trkpt lat="44.1721" lon="5.05053">
        <ele>434</ele>
        <time>2020-05-23T07:44:39Z</time>
      </trkpt>
      <trkpt lat="44.17216" lon="5.05078">
        <ele>436</ele>
        <time>2020-05-23T07:44:49Z</time>
      </trkpt>
      <trkpt lat="44.17232" lon="5.05105">
        <ele>440</ele>
        <time>2020-05-23T07:45:00Z</time>
      </trkpt>
      <trkpt lat="44.17244" lon="5.05131">
        <ele>443</ele>
        <time>2020-05-23T07:45:11Z</time>
      </trkpt>
      <trkpt lat="44.17248" lon="5.0514">
        <ele>445</ele>
        <time>2020-05-23T07:45:15Z</time>
      </trkpt>
      <trkpt lat="44.17249" lon="5.05143">
        <ele>445</ele>
        <time>2020-05-23T07:45:16Z</time>
      </trkpt>
      <trkpt lat="44.1725" lon="5.05145">
        <ele>446</ele>
        <time>2020-05-23T07:45:17Z</time>
      </trkpt>
      <trkpt lat="44.17251" lon="5.05147">
        <ele>446</ele>
        <time>2020-05-23T07:45:18Z</time>
      </trkpt>
      <trkpt lat="44.17252" lon="5.0515">
        <ele>446</ele>
        <time>2020-05-23T07:45:19Z</time>
      </trkpt>
      <trkpt lat="44.17253" lon="5.05152">
        <ele>447</ele>
        <time>2020-05-23T07:45:20Z</time>
      </trkpt>
      <trkpt lat="44.17254" lon="5.05155">
        <ele>447</ele>
        <time>2020-05-23T07:45:21Z</time>
      </trkpt>
      <trkpt lat="44.17255" lon="5.05157">
        <ele>447</ele>
        <time>2020-05-23T07:45:22Z</time>
      </trkpt>
      <trkpt lat="44.17256" lon="5.0516">
        <ele>448</ele>
        <time>2020-05-23T07:45:23Z</time>
      </trkpt>
      <trkpt lat="44.17258" lon="5.05165">
        <ele>448</ele>
        <time>2020-05-23T07:45:26Z</time>
      </trkpt>
      <trkpt lat="44.17259" lon="5.05166">
        <ele>449</ele>
        <time>2020-05-23T07:45:27Z</time>
      </trkpt>
      <trkpt lat="44.17264" lon="5.0517">
        <ele>449</ele>
        <time>2020-05-23T07:45:30Z</time>
      </trkpt>
      <trkpt lat="44.17265" lon="5.05168">
        <ele>449</ele>
        <time>2020-05-23T07:45:31Z</time>
      </trkpt>
      <trkpt lat="44.17267" lon="5.05167">
        <ele>449</ele>
        <time>2020-05-23T07:45:32Z</time>
      </trkpt>
      <trkpt lat="44.17268" lon="5.05165">
        <ele>449</ele>
        <time>2020-05-23T07:45:33Z</time>
      </trkpt>
      <trkpt lat="44.1727" lon="5.05163">
        <ele>449</ele>
        <time>2020-05-23T07:45:34Z</time>
      </trkpt>
      <trkpt lat="44.17271" lon="5.05161">
        <ele>449</ele>
        <time>2020-05-23T07:45:35Z</time>
      </trkpt>
      <trkpt lat="44.17296" lon="5.05139">
        <ele>448</ele>
        <time>2020-05-23T07:45:48Z</time>
      </trkpt>
      <trkpt lat="44.17315" lon="5.0513">
        <ele>449</ele>
        <time>2020-05-23T07:45:56Z</time>
      </trkpt>
      <trkpt lat="44.17318" lon="5.05127">
        <ele>449</ele>
        <time>2020-05-23T07:45:58Z</time>
      </trkpt>
      <trkpt lat="44.1732" lon="5.05124">
        <ele>449</ele>
        <time>2020-05-23T07:45:59Z</time>
      </trkpt>
      <trkpt lat="44.17321" lon="5.05122">
        <ele>449</ele>
        <time>2020-05-23T07:46:00Z</time>
      </trkpt>
      <trkpt lat="44.17322" lon="5.0512">
        <ele>450</ele>
        <time>2020-05-23T07:46:01Z</time>
      </trkpt>
      <trkpt lat="44.17323" lon="5.05119">
        <ele>450</ele>
        <time>2020-05-23T07:46:02Z</time>
      </trkpt>
      <trkpt lat="44.17328" lon="5.05112">
        <ele>450</ele>
        <time>2020-05-23T07:46:06Z</time>
      </trkpt>
      <trkpt lat="44.17352" lon="5.05102">
        <ele>450</ele>
        <time>2020-05-23T07:46:16Z</time>
      </trkpt>
      <trkpt lat="44.17355" lon="5.05102">
        <ele>450</ele>
        <time>2020-05-23T07:46:17Z</time>
      </trkpt>
      <trkpt lat="44.17382" lon="5.05103">
        <ele>448</ele>
        <time>2020-05-23T07:46:26Z</time>
      </trkpt>
      <trkpt lat="44.17404" lon="5.05105">
        <ele>446</ele>
        <time>2020-05-23T07:46:33Z</time>
      </trkpt>
      <trkpt lat="44.17426" lon="5.0511">
        <ele>445</ele>
        <time>2020-05-23T07:46:41Z</time>
      </trkpt>
      <trkpt lat="44.17446" lon="5.05109">
        <ele>445</ele>
        <time>2020-05-23T07:46:49Z</time>
      </trkpt>
      <trkpt lat="44.17464" lon="5.05095">
        <ele>445</ele>
        <time>2020-05-23T07:46:58Z</time>
      </trkpt>
      <trkpt lat="44.17492" lon="5.05083">
        <ele>447</ele>
        <time>2020-05-23T07:47:12Z</time>
      </trkpt>
      <trkpt lat="44.17512" lon="5.05073">
        <ele>447</ele>
        <time>2020-05-23T07:47:20Z</time>
      </trkpt>
      <trkpt lat="44.17513" lon="5.05069">
        <ele>447</ele>
        <time>2020-05-23T07:47:21Z</time>
      </trkpt>
      <trkpt lat="44.17513" lon="5.05065">
        <ele>446</ele>
        <time>2020-05-23T07:47:22Z</time>
      </trkpt>
      <trkpt lat="44.17508" lon="5.05026">
        <ele>443</ele>
        <time>2020-05-23T07:47:34Z</time>
      </trkpt>
      <trkpt lat="44.1751" lon="5.05006">
        <ele>444</ele>
        <time>2020-05-23T07:47:40Z</time>
      </trkpt>
      <trkpt lat="44.17511" lon="5.05005">
        <ele>444</ele>
        <time>2020-05-23T07:47:41Z</time>
      </trkpt>
      <trkpt lat="44.17513" lon="5.05005">
        <ele>444</ele>
        <time>2020-05-23T07:47:42Z</time>
      </trkpt>
      <trkpt lat="44.17514" lon="5.05006">
        <ele>445</ele>
        <time>2020-05-23T07:47:43Z</time>
      </trkpt>
      <trkpt lat="44.17516" lon="5.05006">
        <ele>445</ele>
        <time>2020-05-23T07:47:44Z</time>
      </trkpt>
      <trkpt lat="44.17517" lon="5.05007">
        <ele>445</ele>
        <time>2020-05-23T07:47:45Z</time>
      </trkpt>
      <trkpt lat="44.17519" lon="5.05007">
        <ele>446</ele>
        <time>2020-05-23T07:47:46Z</time>
      </trkpt>
      <trkpt lat="44.17521" lon="5.05007">
        <ele>446</ele>
        <time>2020-05-23T07:47:47Z</time>
      </trkpt>
      <trkpt lat="44.17523" lon="5.05007">
        <ele>446</ele>
        <time>2020-05-23T07:47:48Z</time>
      </trkpt>
      <trkpt lat="44.17525" lon="5.05007">
        <ele>447</ele>
        <time>2020-05-23T07:47:49Z</time>
      </trkpt>
      <trkpt lat="44.17527" lon="5.05008">
        <ele>447</ele>
        <time>2020-05-23T07:47:50Z</time>
      </trkpt>
      <trkpt lat="44.17529" lon="5.05008">
        <ele>448</ele>
        <time>2020-05-23T07:47:51Z</time>
      </trkpt>
      <trkpt lat="44.17547" lon="5.05006">
        <ele>453</ele>
        <time>2020-05-23T07:48:00Z</time>
      </trkpt>
      <trkpt lat="44.17549" lon="5.05006">
        <ele>453</ele>
        <time>2020-05-23T07:48:01Z</time>
      </trkpt>
      <trkpt lat="44.1755" lon="5.05006">
        <ele>454</ele>
        <time>2020-05-23T07:48:02Z</time>
      </trkpt>
      <trkpt lat="44.17566" lon="5.05004">
        <ele>457</ele>
        <time>2020-05-23T07:48:11Z</time>
      </trkpt>
      <trkpt lat="44.17584" lon="5.05009">
        <ele>459</ele>
        <time>2020-05-23T07:48:21Z</time>
      </trkpt>
      <trkpt lat="44.17612" lon="5.05022">
        <ele>462</ele>
        <time>2020-05-23T07:48:35Z</time>
      </trkpt>
      <trkpt lat="44.1763" lon="5.05034">
        <ele>463</ele>
        <time>2020-05-23T07:48:46Z</time>
      </trkpt>
      <trkpt lat="44.17642" lon="5.05041">
        <ele>462</ele>
        <time>2020-05-23T07:48:54Z</time>
      </trkpt>
      <trkpt lat="44.17651" lon="5.05047">
        <ele>461</ele>
        <time>2020-05-23T07:48:59Z</time>
      </trkpt>
      <trkpt lat="44.17653" lon="5.05048">
        <ele>461</ele>
        <time>2020-05-23T07:49:00Z</time>
      </trkpt>
      <trkpt lat="44.17655" lon="5.05049">
        <ele>461</ele>
        <time>2020-05-23T07:49:01Z</time>
      </trkpt>
      <trkpt lat="44.17657" lon="5.05049">
        <ele>461</ele>
        <time>2020-05-23T07:49:02Z</time>
      </trkpt>
      <trkpt lat="44.17658" lon="5.05049">
        <ele>461</ele>
        <time>2020-05-23T07:49:03Z</time>
      </trkpt>
      <trkpt lat="44.1766" lon="5.05048">
        <ele>461</ele>
        <time>2020-05-23T07:49:04Z</time>
      </trkpt>
      <trkpt lat="44.17661" lon="5.05046">
        <ele>461</ele>
        <time>2020-05-23T07:49:05Z</time>
      </trkpt>
      <trkpt lat="44.17662" lon="5.05045">
        <ele>461</ele>
        <time>2020-05-23T07:49:06Z</time>
      </trkpt>
      <trkpt lat="44.17663" lon="5.05043">
        <ele>461</ele>
        <time>2020-05-23T07:49:07Z</time>
      </trkpt>
      <trkpt lat="44.17664" lon="5.05041">
        <ele>461</ele>
        <time>2020-05-23T07:49:08Z</time>
      </trkpt>
      <trkpt lat="44.17664" lon="5.05039">
        <ele>461</ele>
        <time>2020-05-23T07:49:09Z</time>
      </trkpt>
      <trkpt lat="44.17665" lon="5.05037">
        <ele>461</ele>
        <time>2020-05-23T07:49:10Z</time>
      </trkpt>
      <trkpt lat="44.17665" lon="5.05036">
        <ele>461</ele>
        <time>2020-05-23T07:49:11Z</time>
      </trkpt>
      <trkpt lat="44.17668" lon="5.0502">
        <ele>463</ele>
        <time>2020-05-23T07:49:19Z</time>
      </trkpt>
      <trkpt lat="44.17667" lon="5.04995">
        <ele>468</ele>
        <time>2020-05-23T07:49:29Z</time>
      </trkpt>
      <trkpt lat="44.17668" lon="5.04969">
        <ele>473</ele>
        <time>2020-05-23T07:49:39Z</time>
      </trkpt>
      <trkpt lat="44.17665" lon="5.04947">
        <ele>478</ele>
        <time>2020-05-23T07:49:51Z</time>
      </trkpt>
      <trkpt lat="44.17659" lon="5.04938">
        <ele>480</ele>
        <time>2020-05-23T07:50:04Z</time>
      </trkpt>
      <trkpt lat="44.17654" lon="5.04934">
        <ele>480</ele>
        <time>2020-05-23T07:50:14Z</time>
      </trkpt>
      <trkpt lat="44.17651" lon="5.0493">
        <ele>481</ele>
        <time>2020-05-23T07:50:18Z</time>
      </trkpt>
      <trkpt lat="44.17641" lon="5.04922">
        <ele>483</ele>
        <time>2020-05-23T07:50:29Z</time>
      </trkpt>
      <trkpt lat="44.17633" lon="5.04907">
        <ele>486</ele>
        <time>2020-05-23T07:50:38Z</time>
      </trkpt>
      <trkpt lat="44.17628" lon="5.04899">
        <ele>487</ele>
        <time>2020-05-23T07:50:42Z</time>
      </trkpt>
      <trkpt lat="44.17622" lon="5.04881">
        <ele>490</ele>
        <time>2020-05-23T07:50:51Z</time>
      </trkpt>
      <trkpt lat="44.17617" lon="5.04871">
        <ele>492</ele>
        <time>2020-05-23T07:50:57Z</time>
      </trkpt>
      <trkpt lat="44.17606" lon="5.04853">
        <ele>494</ele>
        <time>2020-05-23T07:51:07Z</time>
      </trkpt>
      <trkpt lat="44.17606" lon="5.0485">
        <ele>494</ele>
        <time>2020-05-23T07:51:08Z</time>
      </trkpt>
      <trkpt lat="44.17603" lon="5.0484">
        <ele>495</ele>
        <time>2020-05-23T07:51:13Z</time>
      </trkpt>
      <trkpt lat="44.17601" lon="5.04835">
        <ele>496</ele>
        <time>2020-05-23T07:51:16Z</time>
      </trkpt>
      <trkpt lat="44.17598" lon="5.04822">
        <ele>499</ele>
        <time>2020-05-23T07:51:23Z</time>
      </trkpt>
      <trkpt lat="44.17596" lon="5.04816">
        <ele>500</ele>
        <time>2020-05-23T07:51:26Z</time>
      </trkpt>
      <trkpt lat="44.17596" lon="5.0481">
        <ele>501</ele>
        <time>2020-05-23T07:51:29Z</time>
      </trkpt>
      <trkpt lat="44.17593" lon="5.04792">
        <ele>506</ele>
        <time>2020-05-23T07:51:40Z</time>
      </trkpt>
      <trkpt lat="44.17591" lon="5.04779">
        <ele>510</ele>
        <time>2020-05-23T07:51:48Z</time>
      </trkpt>
      <trkpt lat="44.17597" lon="5.04771">
        <ele>515</ele>
        <time>2020-05-23T07:52:00Z</time>
      </trkpt>
      <trkpt lat="44.17606" lon="5.04774">
        <ele>518</ele>
        <time>2020-05-23T07:52:12Z</time>
      </trkpt>
      <trkpt lat="44.17616" lon="5.04777">
        <ele>521</ele>
        <time>2020-05-23T07:52:23Z</time>
      </trkpt>
      <trkpt lat="44.17631" lon="5.0478">
        <ele>525</ele>
        <time>2020-05-23T07:52:36Z</time>
      </trkpt>
      <trkpt lat="44.17633" lon="5.0478">
        <ele>525</ele>
        <time>2020-05-23T07:52:38Z</time>
      </trkpt>
      <trkpt lat="44.17646" lon="5.04783">
        <ele>528</ele>
        <time>2020-05-23T07:52:48Z</time>
      </trkpt>
      <trkpt lat="44.17655" lon="5.04786">
        <ele>530</ele>
        <time>2020-05-23T07:52:57Z</time>
      </trkpt>
      <trkpt lat="44.17667" lon="5.0479">
        <ele>533</ele>
        <time>2020-05-23T07:53:08Z</time>
      </trkpt>
      <trkpt lat="44.17677" lon="5.04792">
        <ele>533</ele>
        <time>2020-05-23T07:53:18Z</time>
      </trkpt>
      <trkpt lat="44.1769" lon="5.0479">
        <ele>534</ele>
        <time>2020-05-23T07:53:28Z</time>
      </trkpt>
      <trkpt lat="44.17699" lon="5.0479">
        <ele>533</ele>
        <time>2020-05-23T07:53:41Z</time>
      </trkpt>
      <trkpt lat="44.17703" lon="5.04789">
        <ele>532</ele>
        <time>2020-05-23T07:53:44Z</time>
      </trkpt>
      <trkpt lat="44.17711" lon="5.0478">
        <ele>530</ele>
        <time>2020-05-23T07:53:55Z</time>
      </trkpt>
      <trkpt lat="44.17708" lon="5.04764">
        <ele>533</ele>
        <time>2020-05-23T07:54:06Z</time>
      </trkpt>
      <trkpt lat="44.17707" lon="5.04762">
        <ele>534</ele>
        <time>2020-05-23T07:54:08Z</time>
      </trkpt>
      <trkpt lat="44.177" lon="5.04744">
        <ele>538</ele>
        <time>2020-05-23T07:54:20Z</time>
      </trkpt>
      <trkpt lat="44.17692" lon="5.04734">
        <ele>541</ele>
        <time>2020-05-23T07:54:32Z</time>
      </trkpt>
      <trkpt lat="44.17687" lon="5.04717">
        <ele>543</ele>
        <time>2020-05-23T07:54:41Z</time>
      </trkpt>
      <trkpt lat="44.1768" lon="5.04699">
        <ele>546</ele>
        <time>2020-05-23T07:54:54Z</time>
      </trkpt>
      <trkpt lat="44.17673" lon="5.04685">
        <ele>549</ele>
        <time>2020-05-23T07:55:04Z</time>
      </trkpt>
      <trkpt lat="44.17664" lon="5.04666">
        <ele>554</ele>
        <time>2020-05-23T07:55:16Z</time>
      </trkpt>
      <trkpt lat="44.17655" lon="5.04644">
        <ele>556</ele>
        <time>2020-05-23T07:55:28Z</time>
      </trkpt>
      <trkpt lat="44.17644" lon="5.04615">
        <ele>560</ele>
        <time>2020-05-23T07:55:41Z</time>
      </trkpt>
      <trkpt lat="44.17633" lon="5.04595">
        <ele>563</ele>
        <time>2020-05-23T07:55:52Z</time>
      </trkpt>
      <trkpt lat="44.17632" lon="5.04593">
        <ele>563</ele>
        <time>2020-05-23T07:55:53Z</time>
      </trkpt>
      <trkpt lat="44.17622" lon="5.04555">
        <ele>567</ele>
        <time>2020-05-23T07:56:06Z</time>
      </trkpt>
      <trkpt lat="44.17619" lon="5.04537">
        <ele>569</ele>
        <time>2020-05-23T07:56:14Z</time>
      </trkpt>
      <trkpt lat="44.17613" lon="5.04527">
        <ele>571</ele>
        <time>2020-05-23T07:56:19Z</time>
      </trkpt>
      <trkpt lat="44.17603" lon="5.04506">
        <ele>572</ele>
        <time>2020-05-23T07:56:30Z</time>
      </trkpt>
      <trkpt lat="44.17594" lon="5.04477">
        <ele>575</ele>
        <time>2020-05-23T07:56:43Z</time>
      </trkpt>
      <trkpt lat="44.17575" lon="5.04446">
        <ele>579</ele>
        <time>2020-05-23T07:56:57Z</time>
      </trkpt>
      <trkpt lat="44.1756" lon="5.04422">
        <ele>580</ele>
        <time>2020-05-23T07:57:10Z</time>
      </trkpt>
      <trkpt lat="44.17543" lon="5.04397">
        <ele>578</ele>
        <time>2020-05-23T07:57:23Z</time>
      </trkpt>
      <trkpt lat="44.17531" lon="5.04381">
        <ele>578</ele>
        <time>2020-05-23T07:57:36Z</time>
      </trkpt>
      <trkpt lat="44.17515" lon="5.04363">
        <ele>578</ele>
        <time>2020-05-23T07:57:46Z</time>
      </trkpt>
      <trkpt lat="44.17514" lon="5.04349">
        <ele>576</ele>
        <time>2020-05-23T07:57:55Z</time>
      </trkpt>
      <trkpt lat="44.17509" lon="5.04336">
        <ele>575</ele>
        <time>2020-05-23T07:58:02Z</time>
      </trkpt>
      <trkpt lat="44.17494" lon="5.04325">
        <ele>577</ele>
        <time>2020-05-23T07:58:13Z</time>
      </trkpt>
      <trkpt lat="44.17493" lon="5.04324">
        <ele>577</ele>
        <time>2020-05-23T07:58:14Z</time>
      </trkpt>
      <trkpt lat="44.17491" lon="5.0432">
        <ele>577</ele>
        <time>2020-05-23T07:58:17Z</time>
      </trkpt>
      <trkpt lat="44.17482" lon="5.04296">
        <ele>577</ele>
        <time>2020-05-23T07:58:28Z</time>
      </trkpt>
      <trkpt lat="44.17477" lon="5.04287">
        <ele>578</ele>
        <time>2020-05-23T07:58:33Z</time>
      </trkpt>
      <trkpt lat="44.17463" lon="5.04267">
        <ele>578</ele>
        <time>2020-05-23T07:58:43Z</time>
      </trkpt>
      <trkpt lat="44.1745" lon="5.04242">
        <ele>578</ele>
        <time>2020-05-23T07:58:53Z</time>
      </trkpt>
      <trkpt lat="44.17441" lon="5.04224">
        <ele>580</ele>
        <time>2020-05-23T07:59:01Z</time>
      </trkpt>
      <trkpt lat="44.17432" lon="5.04203">
        <ele>579</ele>
        <time>2020-05-23T07:59:10Z</time>
      </trkpt>
      <trkpt lat="44.17429" lon="5.04198">
        <ele>580</ele>
        <time>2020-05-23T07:59:13Z</time>
      </trkpt>
      <trkpt lat="44.17418" lon="5.04182">
        <ele>584</ele>
        <time>2020-05-23T07:59:23Z</time>
      </trkpt>
      <trkpt lat="44.17418" lon="5.04176">
        <ele>584</ele>
        <time>2020-05-23T07:59:26Z</time>
      </trkpt>
      <trkpt lat="44.17414" lon="5.04165">
        <ele>583</ele>
        <time>2020-05-23T07:59:31Z</time>
      </trkpt>
      <trkpt lat="44.17411" lon="5.04156">
        <ele>581</ele>
        <time>2020-05-23T07:59:36Z</time>
      </trkpt>
      <trkpt lat="44.17405" lon="5.04141">
        <ele>580</ele>
        <time>2020-05-23T07:59:44Z</time>
      </trkpt>
      <trkpt lat="44.17403" lon="5.04139">
        <ele>581</ele>
        <time>2020-05-23T07:59:47Z</time>
      </trkpt>
      <trkpt lat="44.17404" lon="5.04129">
        <ele>578</ele>
        <time>2020-05-23T07:59:52Z</time>
      </trkpt>
      <trkpt lat="44.17401" lon="5.04105">
        <ele>574</ele>
        <time>2020-05-23T08:00:01Z</time>
      </trkpt>
      <trkpt lat="44.174" lon="5.04103">
        <ele>574</ele>
        <time>2020-05-23T08:00:03Z</time>
      </trkpt>
      <trkpt lat="44.174" lon="5.041">
        <ele>574</ele>
        <time>2020-05-23T08:00:07Z</time>
      </trkpt>
      <trkpt lat="44.17396" lon="5.04092">
        <ele>574</ele>
        <time>2020-05-23T08:00:21Z</time>
      </trkpt>
      <trkpt lat="44.17395" lon="5.04092">
        <ele>575</ele>
        <time>2020-05-23T08:00:39Z</time>
      </trkpt>
      <trkpt lat="44.17395" lon="5.04089">
        <ele>574</ele>
        <time>2020-05-23T08:00:55Z</time>
      </trkpt>
      <trkpt lat="44.17395" lon="5.0409">
        <ele>574</ele>
        <time>2020-05-23T08:01:18Z</time>
      </trkpt>
      <trkpt lat="44.17395" lon="5.04089">
        <ele>574</ele>
        <time>2020-05-23T08:01:35Z</time>
      </trkpt>
      <trkpt lat="44.17394" lon="5.04087">
        <ele>575</ele>
        <time>2020-05-23T08:01:47Z</time>
      </trkpt>
      <trkpt lat="44.17393" lon="5.04086">
        <ele>575</ele>
        <time>2020-05-23T08:01:48Z</time>
      </trkpt>
      <trkpt lat="44.17388" lon="5.04078">
        <ele>576</ele>
        <time>2020-05-23T08:01:56Z</time>
      </trkpt>
      <trkpt lat="44.17387" lon="5.04076">
        <ele>575</ele>
        <time>2020-05-23T08:01:58Z</time>
      </trkpt>
      <trkpt lat="44.17387" lon="5.04067">
        <ele>573</ele>
        <time>2020-05-23T08:02:03Z</time>
      </trkpt>
      <trkpt lat="44.17385" lon="5.04057">
        <ele>570</ele>
        <time>2020-05-23T08:02:08Z</time>
      </trkpt>
      <trkpt lat="44.17382" lon="5.04053">
        <ele>570</ele>
        <time>2020-05-23T08:02:10Z</time>
      </trkpt>
      <trkpt lat="44.1738" lon="5.04046">
        <ele>568</ele>
        <time>2020-05-23T08:02:14Z</time>
      </trkpt>
      <trkpt lat="44.17378" lon="5.04041">
        <ele>568</ele>
        <time>2020-05-23T08:02:17Z</time>
      </trkpt>
      <trkpt lat="44.17373" lon="5.04033">
        <ele>568</ele>
        <time>2020-05-23T08:02:22Z</time>
      </trkpt>
      <trkpt lat="44.17362" lon="5.04013">
        <ele>572</ele>
        <time>2020-05-23T08:02:33Z</time>
      </trkpt>
      <trkpt lat="44.17361" lon="5.04011">
        <ele>573</ele>
        <time>2020-05-23T08:02:34Z</time>
      </trkpt>
      <trkpt lat="44.17347" lon="5.03992">
        <ele>575</ele>
        <time>2020-05-23T08:02:44Z</time>
      </trkpt>
      <trkpt lat="44.17338" lon="5.03989">
        <ele>577</ele>
        <time>2020-05-23T08:02:49Z</time>
      </trkpt>
      <trkpt lat="44.17336" lon="5.03989">
        <ele>577</ele>
        <time>2020-05-23T08:02:50Z</time>
      </trkpt>
      <trkpt lat="44.17335" lon="5.03988">
        <ele>578</ele>
        <time>2020-05-23T08:02:51Z</time>
      </trkpt>
      <trkpt lat="44.17333" lon="5.03986">
        <ele>578</ele>
        <time>2020-05-23T08:02:52Z</time>
      </trkpt>
      <trkpt lat="44.17328" lon="5.03981">
        <ele>579</ele>
        <time>2020-05-23T08:02:55Z</time>
      </trkpt>
      <trkpt lat="44.17326" lon="5.0398">
        <ele>579</ele>
        <time>2020-05-23T08:02:56Z</time>
      </trkpt>
      <trkpt lat="44.17325" lon="5.03978">
        <ele>579</ele>
        <time>2020-05-23T08:02:57Z</time>
      </trkpt>
      <trkpt lat="44.17324" lon="5.03976">
        <ele>579</ele>
        <time>2020-05-23T08:02:58Z</time>
      </trkpt>
      <trkpt lat="44.17322" lon="5.03975">
        <ele>579</ele>
        <time>2020-05-23T08:02:59Z</time>
      </trkpt>
      <trkpt lat="44.1732" lon="5.03974">
        <ele>580</ele>
        <time>2020-05-23T08:03:00Z</time>
      </trkpt>
      <trkpt lat="44.17302" lon="5.03958">
        <ele>580</ele>
        <time>2020-05-23T08:03:09Z</time>
      </trkpt>
      <trkpt lat="44.173" lon="5.03957">
        <ele>580</ele>
        <time>2020-05-23T08:03:10Z</time>
      </trkpt>
      <trkpt lat="44.17297" lon="5.03955">
        <ele>580</ele>
        <time>2020-05-23T08:03:11Z</time>
      </trkpt>
      <trkpt lat="44.17295" lon="5.03953">
        <ele>579</ele>
        <time>2020-05-23T08:03:12Z</time>
      </trkpt>
      <trkpt lat="44.17289" lon="5.03948">
        <ele>579</ele>
        <time>2020-05-23T08:03:15Z</time>
      </trkpt>
      <trkpt lat="44.17288" lon="5.03946">
        <ele>580</ele>
        <time>2020-05-23T08:03:16Z</time>
      </trkpt>
      <trkpt lat="44.17288" lon="5.03944">
        <ele>580</ele>
        <time>2020-05-23T08:03:17Z</time>
      </trkpt>
      <trkpt lat="44.17286" lon="5.03938">
        <ele>579</ele>
        <time>2020-05-23T08:03:20Z</time>
      </trkpt>
      <trkpt lat="44.17284" lon="5.03936">
        <ele>579</ele>
        <time>2020-05-23T08:03:21Z</time>
      </trkpt>
      <trkpt lat="44.17284" lon="5.03933">
        <ele>579</ele>
        <time>2020-05-23T08:03:22Z</time>
      </trkpt>
      <trkpt lat="44.17282" lon="5.0393">
        <ele>579</ele>
        <time>2020-05-23T08:03:23Z</time>
      </trkpt>
      <trkpt lat="44.17282" lon="5.03926">
        <ele>579</ele>
        <time>2020-05-23T08:03:24Z</time>
      </trkpt>
      <trkpt lat="44.17281" lon="5.03923">
        <ele>579</ele>
        <time>2020-05-23T08:03:25Z</time>
      </trkpt>
      <trkpt lat="44.17282" lon="5.0392">
        <ele>578</ele>
        <time>2020-05-23T08:03:26Z</time>
      </trkpt>
      <trkpt lat="44.17281" lon="5.03918">
        <ele>578</ele>
        <time>2020-05-23T08:03:27Z</time>
      </trkpt>
      <trkpt lat="44.1728" lon="5.03916">
        <ele>578</ele>
        <time>2020-05-23T08:03:28Z</time>
      </trkpt>
      <trkpt lat="44.17277" lon="5.03908">
        <ele>576</ele>
        <time>2020-05-23T08:03:31Z</time>
      </trkpt>
      <trkpt lat="44.17276" lon="5.03905">
        <ele>575</ele>
        <time>2020-05-23T08:03:32Z</time>
      </trkpt>
      <trkpt lat="44.17274" lon="5.03903">
        <ele>574</ele>
        <time>2020-05-23T08:03:33Z</time>
      </trkpt>
      <trkpt lat="44.17272" lon="5.03902">
        <ele>573</ele>
        <time>2020-05-23T08:03:34Z</time>
      </trkpt>
      <trkpt lat="44.1727" lon="5.039">
        <ele>573</ele>
        <time>2020-05-23T08:03:35Z</time>
      </trkpt>
      <trkpt lat="44.17269" lon="5.03898">
        <ele>572</ele>
        <time>2020-05-23T08:03:36Z</time>
      </trkpt>
      <trkpt lat="44.17269" lon="5.03895">
        <ele>572</ele>
        <time>2020-05-23T08:03:37Z</time>
      </trkpt>
      <trkpt lat="44.17267" lon="5.03893">
        <ele>571</ele>
        <time>2020-05-23T08:03:38Z</time>
      </trkpt>
      <trkpt lat="44.17266" lon="5.03891">
        <ele>570</ele>
        <time>2020-05-23T08:03:39Z</time>
      </trkpt>
      <trkpt lat="44.17265" lon="5.03888">
        <ele>570</ele>
        <time>2020-05-23T08:03:40Z</time>
      </trkpt>
      <trkpt lat="44.17263" lon="5.03886">
        <ele>569</ele>
        <time>2020-05-23T08:03:41Z</time>
      </trkpt>
      <trkpt lat="44.17261" lon="5.03884">
        <ele>568</ele>
        <time>2020-05-23T08:03:42Z</time>
      </trkpt>
      <trkpt lat="44.17259" lon="5.03882">
        <ele>568</ele>
        <time>2020-05-23T08:03:43Z</time>
      </trkpt>
      <trkpt lat="44.17257" lon="5.03881">
        <ele>568</ele>
        <time>2020-05-23T08:03:44Z</time>
      </trkpt>
      <trkpt lat="44.17255" lon="5.03879">
        <ele>567</ele>
        <time>2020-05-23T08:03:45Z</time>
      </trkpt>
      <trkpt lat="44.17254" lon="5.03877">
        <ele>567</ele>
        <time>2020-05-23T08:03:46Z</time>
      </trkpt>
      <trkpt lat="44.17253" lon="5.03874">
        <ele>566</ele>
        <time>2020-05-23T08:03:47Z</time>
      </trkpt>
      <trkpt lat="44.17252" lon="5.03871">
        <ele>565</ele>
        <time>2020-05-23T08:03:48Z</time>
      </trkpt>
      <trkpt lat="44.17251" lon="5.03869">
        <ele>565</ele>
        <time>2020-05-23T08:03:49Z</time>
      </trkpt>
      <trkpt lat="44.17251" lon="5.03867">
        <ele>564</ele>
        <time>2020-05-23T08:03:50Z</time>
      </trkpt>
      <trkpt lat="44.17251" lon="5.03865">
        <ele>564</ele>
        <time>2020-05-23T08:03:51Z</time>
      </trkpt>
      <trkpt lat="44.17251" lon="5.03863">
        <ele>563</ele>
        <time>2020-05-23T08:03:52Z</time>
      </trkpt>
      <trkpt lat="44.1725" lon="5.03861">
        <ele>563</ele>
        <time>2020-05-23T08:03:53Z</time>
      </trkpt>
      <trkpt lat="44.17248" lon="5.03859">
        <ele>562</ele>
        <time>2020-05-23T08:03:54Z</time>
      </trkpt>
      <trkpt lat="44.17229" lon="5.03843">
        <ele>558</ele>
        <time>2020-05-23T08:04:03Z</time>
      </trkpt>
      <trkpt lat="44.17226" lon="5.03842">
        <ele>558</ele>
        <time>2020-05-23T08:04:04Z</time>
      </trkpt>
      <trkpt lat="44.17224" lon="5.03842">
        <ele>558</ele>
        <time>2020-05-23T08:04:05Z</time>
      </trkpt>
      <trkpt lat="44.17222" lon="5.03842">
        <ele>559</ele>
        <time>2020-05-23T08:04:06Z</time>
      </trkpt>
      <trkpt lat="44.17214" lon="5.03845">
        <ele>558</ele>
        <time>2020-05-23T08:04:12Z</time>
      </trkpt>
      <trkpt lat="44.17211" lon="5.03847">
        <ele>557</ele>
        <time>2020-05-23T08:04:15Z</time>
      </trkpt>
      <trkpt lat="44.17203" lon="5.03847">
        <ele>556</ele>
        <time>2020-05-23T08:04:20Z</time>
      </trkpt>
      <trkpt lat="44.17198" lon="5.03852">
        <ele>555</ele>
        <time>2020-05-23T08:04:24Z</time>
      </trkpt>
      <trkpt lat="44.17197" lon="5.03854">
        <ele>554</ele>
        <time>2020-05-23T08:04:25Z</time>
      </trkpt>
      <trkpt lat="44.17191" lon="5.03865">
        <ele>551</ele>
        <time>2020-05-23T08:04:30Z</time>
      </trkpt>
      <trkpt lat="44.17189" lon="5.03868">
        <ele>550</ele>
        <time>2020-05-23T08:04:31Z</time>
      </trkpt>
      <trkpt lat="44.17188" lon="5.03871">
        <ele>549</ele>
        <time>2020-05-23T08:04:32Z</time>
      </trkpt>
      <trkpt lat="44.17186" lon="5.03874">
        <ele>549</ele>
        <time>2020-05-23T08:04:33Z</time>
      </trkpt>
      <trkpt lat="44.17185" lon="5.03878">
        <ele>548</ele>
        <time>2020-05-23T08:04:34Z</time>
      </trkpt>
      <trkpt lat="44.17183" lon="5.03882">
        <ele>547</ele>
        <time>2020-05-23T08:04:35Z</time>
      </trkpt>
      <trkpt lat="44.17181" lon="5.03885">
        <ele>546</ele>
        <time>2020-05-23T08:04:36Z</time>
      </trkpt>
      <trkpt lat="44.17179" lon="5.03888">
        <ele>545</ele>
        <time>2020-05-23T08:04:37Z</time>
      </trkpt>
      <trkpt lat="44.17178" lon="5.03892">
        <ele>545</ele>
        <time>2020-05-23T08:04:38Z</time>
      </trkpt>
      <trkpt lat="44.17176" lon="5.03894">
        <ele>544</ele>
        <time>2020-05-23T08:04:39Z</time>
      </trkpt>
      <trkpt lat="44.17173" lon="5.03896">
        <ele>543</ele>
        <time>2020-05-23T08:04:42Z</time>
      </trkpt>
      <trkpt lat="44.17171" lon="5.03897">
        <ele>542</ele>
        <time>2020-05-23T08:04:43Z</time>
      </trkpt>
      <trkpt lat="44.17168" lon="5.03897">
        <ele>541</ele>
        <time>2020-05-23T08:04:45Z</time>
      </trkpt>
      <trkpt lat="44.17166" lon="5.03897">
        <ele>541</ele>
        <time>2020-05-23T08:04:46Z</time>
      </trkpt>
      <trkpt lat="44.17164" lon="5.03897">
        <ele>540</ele>
        <time>2020-05-23T08:04:47Z</time>
      </trkpt>
      <trkpt lat="44.17161" lon="5.03897">
        <ele>539</ele>
        <time>2020-05-23T08:04:48Z</time>
      </trkpt>
      <trkpt lat="44.17159" lon="5.03896">
        <ele>539</ele>
        <time>2020-05-23T08:04:49Z</time>
      </trkpt>
      <trkpt lat="44.17158" lon="5.03896">
        <ele>538</ele>
        <time>2020-05-23T08:04:50Z</time>
      </trkpt>
      <trkpt lat="44.17156" lon="5.03895">
        <ele>538</ele>
        <time>2020-05-23T08:04:51Z</time>
      </trkpt>
      <trkpt lat="44.17156" lon="5.03893">
        <ele>538</ele>
        <time>2020-05-23T08:04:52Z</time>
      </trkpt>
      <trkpt lat="44.17155" lon="5.03891">
        <ele>537</ele>
        <time>2020-05-23T08:04:53Z</time>
      </trkpt>
      <trkpt lat="44.17154" lon="5.03889">
        <ele>537</ele>
        <time>2020-05-23T08:04:54Z</time>
      </trkpt>
      <trkpt lat="44.17153" lon="5.03887">
        <ele>537</ele>
        <time>2020-05-23T08:04:55Z</time>
      </trkpt>
      <trkpt lat="44.17152" lon="5.03885">
        <ele>537</ele>
        <time>2020-05-23T08:04:56Z</time>
      </trkpt>
      <trkpt lat="44.17151" lon="5.03883">
        <ele>537</ele>
        <time>2020-05-23T08:04:57Z</time>
      </trkpt>
      <trkpt lat="44.17142" lon="5.03866">
        <ele>537</ele>
        <time>2020-05-23T08:05:06Z</time>
      </trkpt>
      <trkpt lat="44.17134" lon="5.03856">
        <ele>537</ele>
        <time>2020-05-23T08:05:12Z</time>
      </trkpt>
      <trkpt lat="44.1713" lon="5.03846">
        <ele>538</ele>
        <time>2020-05-23T08:05:16Z</time>
      </trkpt>
      <trkpt lat="44.17125" lon="5.03838">
        <ele>538</ele>
        <time>2020-05-23T08:05:20Z</time>
      </trkpt>
      <trkpt lat="44.17123" lon="5.03836">
        <ele>538</ele>
        <time>2020-05-23T08:05:21Z</time>
      </trkpt>
      <trkpt lat="44.17121" lon="5.03834">
        <ele>538</ele>
        <time>2020-05-23T08:05:22Z</time>
      </trkpt>
      <trkpt lat="44.17111" lon="5.03824">
        <ele>537</ele>
        <time>2020-05-23T08:05:29Z</time>
      </trkpt>
      <trkpt lat="44.17107" lon="5.0382">
        <ele>537</ele>
        <time>2020-05-23T08:05:32Z</time>
      </trkpt>
      <trkpt lat="44.17105" lon="5.03816">
        <ele>537</ele>
        <time>2020-05-23T08:05:34Z</time>
      </trkpt>
      <trkpt lat="44.17104" lon="5.03815">
        <ele>537</ele>
        <time>2020-05-23T08:05:35Z</time>
      </trkpt>
      <trkpt lat="44.17103" lon="5.03807">
        <ele>538</ele>
        <time>2020-05-23T08:05:39Z</time>
      </trkpt>
      <trkpt lat="44.17093" lon="5.03782">
        <ele>542</ele>
        <time>2020-05-23T08:05:47Z</time>
      </trkpt>
      <trkpt lat="44.17083" lon="5.03767">
        <ele>543</ele>
        <time>2020-05-23T08:05:54Z</time>
      </trkpt>
      <trkpt lat="44.17076" lon="5.03756">
        <ele>543</ele>
        <time>2020-05-23T08:06:05Z</time>
      </trkpt>
      <trkpt lat="44.17073" lon="5.03751">
        <ele>543</ele>
        <time>2020-05-23T08:06:20Z</time>
      </trkpt>
      <trkpt lat="44.1707" lon="5.03745">
        <ele>543</ele>
        <time>2020-05-23T08:06:32Z</time>
      </trkpt>
      <trkpt lat="44.17066" lon="5.03733">
        <ele>544</ele>
        <time>2020-05-23T08:06:38Z</time>
      </trkpt>
      <trkpt lat="44.17056" lon="5.0372">
        <ele>542</ele>
        <time>2020-05-23T08:06:45Z</time>
      </trkpt>
      <trkpt lat="44.17054" lon="5.03717">
        <ele>541</ele>
        <time>2020-05-23T08:06:46Z</time>
      </trkpt>
      <trkpt lat="44.17051" lon="5.03714">
        <ele>540</ele>
        <time>2020-05-23T08:06:47Z</time>
      </trkpt>
      <trkpt lat="44.17049" lon="5.03712">
        <ele>540</ele>
        <time>2020-05-23T08:06:48Z</time>
      </trkpt>
      <trkpt lat="44.17048" lon="5.0371">
        <ele>540</ele>
        <time>2020-05-23T08:06:49Z</time>
      </trkpt>
      <trkpt lat="44.17046" lon="5.03709">
        <ele>539</ele>
        <time>2020-05-23T08:06:50Z</time>
      </trkpt>
      <trkpt lat="44.17043" lon="5.03708">
        <ele>539</ele>
        <time>2020-05-23T08:06:51Z</time>
      </trkpt>
      <trkpt lat="44.17036" lon="5.03704">
        <ele>538</ele>
        <time>2020-05-23T08:06:54Z</time>
      </trkpt>
      <trkpt lat="44.1703" lon="5.03701">
        <ele>538</ele>
        <time>2020-05-23T08:06:57Z</time>
      </trkpt>
      <trkpt lat="44.17029" lon="5.03701">
        <ele>538</ele>
        <time>2020-05-23T08:06:58Z</time>
      </trkpt>
      <trkpt lat="44.17026" lon="5.03701">
        <ele>537</ele>
        <time>2020-05-23T08:06:59Z</time>
      </trkpt>
      <trkpt lat="44.17025" lon="5.037">
        <ele>537</ele>
        <time>2020-05-23T08:07:00Z</time>
      </trkpt>
      <trkpt lat="44.17023" lon="5.03699">
        <ele>536</ele>
        <time>2020-05-23T08:07:01Z</time>
      </trkpt>
      <trkpt lat="44.17021" lon="5.03699">
        <ele>535</ele>
        <time>2020-05-23T08:07:02Z</time>
      </trkpt>
      <trkpt lat="44.17019" lon="5.03698">
        <ele>535</ele>
        <time>2020-05-23T08:07:03Z</time>
      </trkpt>
      <trkpt lat="44.17018" lon="5.03697">
        <ele>534</ele>
        <time>2020-05-23T08:07:04Z</time>
      </trkpt>
      <trkpt lat="44.17007" lon="5.03682">
        <ele>531</ele>
        <time>2020-05-23T08:07:13Z</time>
      </trkpt>
      <trkpt lat="44.17005" lon="5.03676">
        <ele>531</ele>
        <time>2020-05-23T08:07:17Z</time>
      </trkpt>
      <trkpt lat="44.17001" lon="5.03667">
        <ele>531</ele>
        <time>2020-05-23T08:07:29Z</time>
      </trkpt>
      <trkpt lat="44.17" lon="5.03664">
        <ele>531</ele>
        <time>2020-05-23T08:07:32Z</time>
      </trkpt>
      <trkpt lat="44.16994" lon="5.03657">
        <ele>528</ele>
        <time>2020-05-23T08:07:36Z</time>
      </trkpt>
      <trkpt lat="44.16992" lon="5.03655">
        <ele>527</ele>
        <time>2020-05-23T08:07:37Z</time>
      </trkpt>
      <trkpt lat="44.16986" lon="5.0365">
        <ele>525</ele>
        <time>2020-05-23T08:07:41Z</time>
      </trkpt>
      <trkpt lat="44.16984" lon="5.0365">
        <ele>525</ele>
        <time>2020-05-23T08:07:42Z</time>
      </trkpt>
      <trkpt lat="44.16982" lon="5.03648">
        <ele>524</ele>
        <time>2020-05-23T08:07:49Z</time>
      </trkpt>
      <trkpt lat="44.16978" lon="5.03646">
        <ele>523</ele>
        <time>2020-05-23T08:08:08Z</time>
      </trkpt>
      <trkpt lat="44.16977" lon="5.03642">
        <ele>523</ele>
        <time>2020-05-23T08:08:16Z</time>
      </trkpt>
      <trkpt lat="44.16976" lon="5.03641">
        <ele>523</ele>
        <time>2020-05-23T08:08:23Z</time>
      </trkpt>
      <trkpt lat="44.16973" lon="5.03635">
        <ele>522</ele>
        <time>2020-05-23T08:08:29Z</time>
      </trkpt>
      <trkpt lat="44.16973" lon="5.03634">
        <ele>521</ele>
        <time>2020-05-23T08:08:30Z</time>
      </trkpt>
      <trkpt lat="44.16969" lon="5.03631">
        <ele>521</ele>
        <time>2020-05-23T08:08:35Z</time>
      </trkpt>
      <trkpt lat="44.16968" lon="5.03631">
        <ele>521</ele>
        <time>2020-05-23T08:08:36Z</time>
      </trkpt>
      <trkpt lat="44.16966" lon="5.0363">
        <ele>520</ele>
        <time>2020-05-23T08:08:38Z</time>
      </trkpt>
      <trkpt lat="44.16965" lon="5.03629">
        <ele>520</ele>
        <time>2020-05-23T08:08:39Z</time>
      </trkpt>
      <trkpt lat="44.16964" lon="5.03629">
        <ele>520</ele>
        <time>2020-05-23T08:08:40Z</time>
      </trkpt>
      <trkpt lat="44.16961" lon="5.0363">
        <ele>520</ele>
        <time>2020-05-23T08:08:45Z</time>
      </trkpt>
      <trkpt lat="44.16958" lon="5.03631">
        <ele>520</ele>
        <time>2020-05-23T08:08:47Z</time>
      </trkpt>
      <trkpt lat="44.16956" lon="5.03631">
        <ele>520</ele>
        <time>2020-05-23T08:08:48Z</time>
      </trkpt>
      <trkpt lat="44.16954" lon="5.03631">
        <ele>520</ele>
        <time>2020-05-23T08:08:49Z</time>
      </trkpt>
      <trkpt lat="44.16952" lon="5.0363">
        <ele>520</ele>
        <time>2020-05-23T08:08:50Z</time>
      </trkpt>
      <trkpt lat="44.16951" lon="5.0363">
        <ele>520</ele>
        <time>2020-05-23T08:08:51Z</time>
      </trkpt>
      <trkpt lat="44.16949" lon="5.0363">
        <ele>520</ele>
        <time>2020-05-23T08:08:53Z</time>
      </trkpt>
      <trkpt lat="44.16948" lon="5.0363">
        <ele>520</ele>
        <time>2020-05-23T08:08:54Z</time>
      </trkpt>
      <trkpt lat="44.16946" lon="5.03629">
        <ele>520</ele>
        <time>2020-05-23T08:08:55Z</time>
      </trkpt>
      <trkpt lat="44.16945" lon="5.03628">
        <ele>520</ele>
        <time>2020-05-23T08:08:56Z</time>
      </trkpt>
      <trkpt lat="44.16943" lon="5.03628">
        <ele>520</ele>
        <time>2020-05-23T08:08:57Z</time>
      </trkpt>
      <trkpt lat="44.16941" lon="5.03627">
        <ele>520</ele>
        <time>2020-05-23T08:08:58Z</time>
      </trkpt>
      <trkpt lat="44.16938" lon="5.03626">
        <ele>520</ele>
        <time>2020-05-23T08:08:59Z</time>
      </trkpt>
      <trkpt lat="44.16934" lon="5.03625">
        <ele>521</ele>
        <time>2020-05-23T08:09:01Z</time>
      </trkpt>
      <trkpt lat="44.16932" lon="5.03624">
        <ele>521</ele>
        <time>2020-05-23T08:09:02Z</time>
      </trkpt>
      <trkpt lat="44.16922" lon="5.0362">
        <ele>522</ele>
        <time>2020-05-23T08:09:07Z</time>
      </trkpt>
      <trkpt lat="44.1692" lon="5.03621">
        <ele>522</ele>
        <time>2020-05-23T08:09:08Z</time>
      </trkpt>
      <trkpt lat="44.16918" lon="5.03621">
        <ele>522</ele>
        <time>2020-05-23T08:09:10Z</time>
      </trkpt>
      <trkpt lat="44.16908" lon="5.03614">
        <ele>525</ele>
        <time>2020-05-23T08:09:21Z</time>
      </trkpt>
      <trkpt lat="44.169" lon="5.03612">
        <ele>527</ele>
        <time>2020-05-23T08:09:31Z</time>
      </trkpt>
      <trkpt lat="44.16896" lon="5.03611">
        <ele>528</ele>
        <time>2020-05-23T08:09:34Z</time>
      </trkpt>
      <trkpt lat="44.16895" lon="5.03612">
        <ele>528</ele>
        <time>2020-05-23T08:09:35Z</time>
      </trkpt>
      <trkpt lat="44.16887" lon="5.03606">
        <ele>529</ele>
        <time>2020-05-23T08:09:44Z</time>
      </trkpt>
      <trkpt lat="44.16885" lon="5.03606">
        <ele>529</ele>
        <time>2020-05-23T08:09:46Z</time>
      </trkpt>
      <trkpt lat="44.16883" lon="5.03607">
        <ele>529</ele>
        <time>2020-05-23T08:09:47Z</time>
      </trkpt>
      <trkpt lat="44.16881" lon="5.03607">
        <ele>529</ele>
        <time>2020-05-23T08:09:48Z</time>
      </trkpt>
      <trkpt lat="44.16879" lon="5.03607">
        <ele>529</ele>
        <time>2020-05-23T08:09:49Z</time>
      </trkpt>
      <trkpt lat="44.16878" lon="5.03607">
        <ele>529</ele>
        <time>2020-05-23T08:09:50Z</time>
      </trkpt>
      <trkpt lat="44.16877" lon="5.03608">
        <ele>529</ele>
        <time>2020-05-23T08:09:51Z</time>
      </trkpt>
      <trkpt lat="44.16873" lon="5.03609">
        <ele>529</ele>
        <time>2020-05-23T08:09:53Z</time>
      </trkpt>
      <trkpt lat="44.16871" lon="5.03608">
        <ele>530</ele>
        <time>2020-05-23T08:09:54Z</time>
      </trkpt>
      <trkpt lat="44.1687" lon="5.03606">
        <ele>530</ele>
        <time>2020-05-23T08:09:55Z</time>
      </trkpt>
      <trkpt lat="44.1687" lon="5.03605">
        <ele>530</ele>
        <time>2020-05-23T08:09:56Z</time>
      </trkpt>
      <trkpt lat="44.16866" lon="5.03598">
        <ele>532</ele>
        <time>2020-05-23T08:10:05Z</time>
      </trkpt>
      <trkpt lat="44.1685" lon="5.03581">
        <ele>535</ele>
        <time>2020-05-23T08:10:16Z</time>
      </trkpt>
      <trkpt lat="44.16838" lon="5.0357">
        <ele>535</ele>
        <time>2020-05-23T08:10:22Z</time>
      </trkpt>
      <trkpt lat="44.16827" lon="5.03565">
        <ele>533</ele>
        <time>2020-05-23T08:10:27Z</time>
      </trkpt>
      <trkpt lat="44.16825" lon="5.03564">
        <ele>533</ele>
        <time>2020-05-23T08:10:28Z</time>
      </trkpt>
      <trkpt lat="44.16823" lon="5.03563">
        <ele>533</ele>
        <time>2020-05-23T08:10:29Z</time>
      </trkpt>
      <trkpt lat="44.1682" lon="5.03562">
        <ele>532</ele>
        <time>2020-05-23T08:10:30Z</time>
      </trkpt>
      <trkpt lat="44.16819" lon="5.03562">
        <ele>532</ele>
        <time>2020-05-23T08:10:31Z</time>
      </trkpt>
      <trkpt lat="44.16814" lon="5.0356">
        <ele>532</ele>
        <time>2020-05-23T08:10:33Z</time>
      </trkpt>
      <trkpt lat="44.16793" lon="5.0354">
        <ele>529</ele>
        <time>2020-05-23T08:10:43Z</time>
      </trkpt>
      <trkpt lat="44.16783" lon="5.03533">
        <ele>529</ele>
        <time>2020-05-23T08:10:53Z</time>
      </trkpt>
      <trkpt lat="44.1678" lon="5.03529">
        <ele>530</ele>
        <time>2020-05-23T08:11:16Z</time>
      </trkpt>
      <trkpt lat="44.16776" lon="5.03529">
        <ele>529</ele>
        <time>2020-05-23T08:11:25Z</time>
      </trkpt>
      <trkpt lat="44.16775" lon="5.0353">
        <ele>529</ele>
        <time>2020-05-23T08:11:26Z</time>
      </trkpt>
      <trkpt lat="44.16774" lon="5.0353">
        <ele>529</ele>
        <time>2020-05-23T08:11:27Z</time>
      </trkpt>
      <trkpt lat="44.16772" lon="5.03527">
        <ele>529</ele>
        <time>2020-05-23T08:11:30Z</time>
      </trkpt>
      <trkpt lat="44.16771" lon="5.03525">
        <ele>528</ele>
        <time>2020-05-23T08:11:31Z</time>
      </trkpt>
      <trkpt lat="44.1677" lon="5.03524">
        <ele>528</ele>
        <time>2020-05-23T08:11:32Z</time>
      </trkpt>
      <trkpt lat="44.16769" lon="5.03522">
        <ele>527</ele>
        <time>2020-05-23T08:11:33Z</time>
      </trkpt>
      <trkpt lat="44.16768" lon="5.03521">
        <ele>527</ele>
        <time>2020-05-23T08:11:34Z</time>
      </trkpt>
      <trkpt lat="44.16766" lon="5.03519">
        <ele>527</ele>
        <time>2020-05-23T08:11:35Z</time>
      </trkpt>
      <trkpt lat="44.16764" lon="5.03519">
        <ele>526</ele>
        <time>2020-05-23T08:11:36Z</time>
      </trkpt>
      <trkpt lat="44.16762" lon="5.03518">
        <ele>526</ele>
        <time>2020-05-23T08:11:37Z</time>
      </trkpt>
      <trkpt lat="44.16761" lon="5.03518">
        <ele>526</ele>
        <time>2020-05-23T08:11:38Z</time>
      </trkpt>
      <trkpt lat="44.1676" lon="5.03516">
        <ele>525</ele>
        <time>2020-05-23T08:11:39Z</time>
      </trkpt>
      <trkpt lat="44.16759" lon="5.03515">
        <ele>525</ele>
        <time>2020-05-23T08:11:40Z</time>
      </trkpt>
      <trkpt lat="44.16757" lon="5.03515">
        <ele>525</ele>
        <time>2020-05-23T08:11:41Z</time>
      </trkpt>
      <trkpt lat="44.16755" lon="5.03515">
        <ele>525</ele>
        <time>2020-05-23T08:11:42Z</time>
      </trkpt>
      <trkpt lat="44.16754" lon="5.03516">
        <ele>524</ele>
        <time>2020-05-23T08:11:43Z</time>
      </trkpt>
      <trkpt lat="44.16748" lon="5.03516">
        <ele>523</ele>
        <time>2020-05-23T08:11:46Z</time>
      </trkpt>
      <trkpt lat="44.16746" lon="5.03515">
        <ele>523</ele>
        <time>2020-05-23T08:11:47Z</time>
      </trkpt>
      <trkpt lat="44.16744" lon="5.03513">
        <ele>523</ele>
        <time>2020-05-23T08:11:48Z</time>
      </trkpt>
      <trkpt lat="44.16743" lon="5.0351">
        <ele>523</ele>
        <time>2020-05-23T08:11:49Z</time>
      </trkpt>
      <trkpt lat="44.16742" lon="5.03507">
        <ele>522</ele>
        <time>2020-05-23T08:11:50Z</time>
      </trkpt>
      <trkpt lat="44.1674" lon="5.03505">
        <ele>522</ele>
        <time>2020-05-23T08:11:51Z</time>
      </trkpt>
      <trkpt lat="44.16739" lon="5.03503">
        <ele>522</ele>
        <time>2020-05-23T08:11:52Z</time>
      </trkpt>
      <trkpt lat="44.16737" lon="5.03501">
        <ele>522</ele>
        <time>2020-05-23T08:11:53Z</time>
      </trkpt>
      <trkpt lat="44.16735" lon="5.035">
        <ele>522</ele>
        <time>2020-05-23T08:11:54Z</time>
      </trkpt>
      <trkpt lat="44.16728" lon="5.03495">
        <ele>521</ele>
        <time>2020-05-23T08:11:58Z</time>
      </trkpt>
      <trkpt lat="44.16726" lon="5.03493">
        <ele>521</ele>
        <time>2020-05-23T08:11:59Z</time>
      </trkpt>
      <trkpt lat="44.16725" lon="5.03492">
        <ele>520</ele>
        <time>2020-05-23T08:12:00Z</time>
      </trkpt>
      <trkpt lat="44.16724" lon="5.0349">
        <ele>520</ele>
        <time>2020-05-23T08:12:01Z</time>
      </trkpt>
      <trkpt lat="44.16723" lon="5.03488">
        <ele>520</ele>
        <time>2020-05-23T08:12:02Z</time>
      </trkpt>
      <trkpt lat="44.16717" lon="5.03479">
        <ele>521</ele>
        <time>2020-05-23T08:12:06Z</time>
      </trkpt>
      <trkpt lat="44.16715" lon="5.03475">
        <ele>521</ele>
        <time>2020-05-23T08:12:08Z</time>
      </trkpt>
      <trkpt lat="44.16714" lon="5.03473">
        <ele>522</ele>
        <time>2020-05-23T08:12:09Z</time>
      </trkpt>
      <trkpt lat="44.16712" lon="5.03471">
        <ele>522</ele>
        <time>2020-05-23T08:12:10Z</time>
      </trkpt>
      <trkpt lat="44.16711" lon="5.0347">
        <ele>522</ele>
        <time>2020-05-23T08:12:11Z</time>
      </trkpt>
      <trkpt lat="44.1671" lon="5.03468">
        <ele>522</ele>
        <time>2020-05-23T08:12:12Z</time>
      </trkpt>
      <trkpt lat="44.16709" lon="5.03466">
        <ele>522</ele>
        <time>2020-05-23T08:12:13Z</time>
      </trkpt>
      <trkpt lat="44.16708" lon="5.03464">
        <ele>522</ele>
        <time>2020-05-23T08:12:14Z</time>
      </trkpt>
      <trkpt lat="44.16703" lon="5.03456">
        <ele>524</ele>
        <time>2020-05-23T08:12:19Z</time>
      </trkpt>
      <trkpt lat="44.16694" lon="5.03445">
        <ele>528</ele>
        <time>2020-05-23T08:12:28Z</time>
      </trkpt>
      <trkpt lat="44.16693" lon="5.03443">
        <ele>527</ele>
        <time>2020-05-23T08:12:29Z</time>
      </trkpt>
      <trkpt lat="44.16691" lon="5.03436">
        <ele>526</ele>
        <time>2020-05-23T08:12:33Z</time>
      </trkpt>
      <trkpt lat="44.1669" lon="5.03434">
        <ele>526</ele>
        <time>2020-05-23T08:12:34Z</time>
      </trkpt>
      <trkpt lat="44.16689" lon="5.03431">
        <ele>525</ele>
        <time>2020-05-23T08:12:35Z</time>
      </trkpt>
      <trkpt lat="44.16688" lon="5.03428">
        <ele>525</ele>
        <time>2020-05-23T08:12:36Z</time>
      </trkpt>
      <trkpt lat="44.16687" lon="5.03425">
        <ele>525</ele>
        <time>2020-05-23T08:12:37Z</time>
      </trkpt>
      <trkpt lat="44.16686" lon="5.03422">
        <ele>525</ele>
        <time>2020-05-23T08:12:38Z</time>
      </trkpt>
      <trkpt lat="44.16685" lon="5.03419">
        <ele>525</ele>
        <time>2020-05-23T08:12:39Z</time>
      </trkpt>
      <trkpt lat="44.16683" lon="5.03417">
        <ele>525</ele>
        <time>2020-05-23T08:12:40Z</time>
      </trkpt>
      <trkpt lat="44.16681" lon="5.03415">
        <ele>525</ele>
        <time>2020-05-23T08:12:41Z</time>
      </trkpt>
      <trkpt lat="44.1668" lon="5.03412">
        <ele>524</ele>
        <time>2020-05-23T08:12:42Z</time>
      </trkpt>
      <trkpt lat="44.16678" lon="5.03409">
        <ele>524</ele>
        <time>2020-05-23T08:12:43Z</time>
      </trkpt>
      <trkpt lat="44.16662" lon="5.03379">
        <ele>524</ele>
        <time>2020-05-23T08:12:52Z</time>
      </trkpt>
      <trkpt lat="44.1666" lon="5.03377">
        <ele>523</ele>
        <time>2020-05-23T08:12:53Z</time>
      </trkpt>
      <trkpt lat="44.16658" lon="5.03377">
        <ele>523</ele>
        <time>2020-05-23T08:12:54Z</time>
      </trkpt>
      <trkpt lat="44.16657" lon="5.03376">
        <ele>523</ele>
        <time>2020-05-23T08:12:55Z</time>
      </trkpt>
      <trkpt lat="44.16655" lon="5.03375">
        <ele>522</ele>
        <time>2020-05-23T08:12:56Z</time>
      </trkpt>
      <trkpt lat="44.16654" lon="5.03374">
        <ele>522</ele>
        <time>2020-05-23T08:12:57Z</time>
      </trkpt>
      <trkpt lat="44.16653" lon="5.03372">
        <ele>522</ele>
        <time>2020-05-23T08:12:58Z</time>
      </trkpt>
      <trkpt lat="44.16652" lon="5.03369">
        <ele>521</ele>
        <time>2020-05-23T08:12:59Z</time>
      </trkpt>
      <trkpt lat="44.16651" lon="5.03367">
        <ele>521</ele>
        <time>2020-05-23T08:13:00Z</time>
      </trkpt>
      <trkpt lat="44.16651" lon="5.03364">
        <ele>521</ele>
        <time>2020-05-23T08:13:01Z</time>
      </trkpt>
      <trkpt lat="44.16649" lon="5.03353">
        <ele>520</ele>
        <time>2020-05-23T08:13:08Z</time>
      </trkpt>
      <trkpt lat="44.16648" lon="5.03351">
        <ele>519</ele>
        <time>2020-05-23T08:13:09Z</time>
      </trkpt>
      <trkpt lat="44.16648" lon="5.03348">
        <ele>519</ele>
        <time>2020-05-23T08:13:10Z</time>
      </trkpt>
      <trkpt lat="44.16644" lon="5.03339">
        <ele>519</ele>
        <time>2020-05-23T08:13:14Z</time>
      </trkpt>
      <trkpt lat="44.16625" lon="5.03305">
        <ele>518</ele>
        <time>2020-05-23T08:13:24Z</time>
      </trkpt>
      <trkpt lat="44.16617" lon="5.03284">
        <ele>518</ele>
        <time>2020-05-23T08:13:30Z</time>
      </trkpt>
      <trkpt lat="44.16609" lon="5.03257">
        <ele>517</ele>
        <time>2020-05-23T08:13:39Z</time>
      </trkpt>
      <trkpt lat="44.16608" lon="5.03254">
        <ele>516</ele>
        <time>2020-05-23T08:13:40Z</time>
      </trkpt>
      <trkpt lat="44.16607" lon="5.03248">
        <ele>515</ele>
        <time>2020-05-23T08:13:42Z</time>
      </trkpt>
      <trkpt lat="44.16607" lon="5.03246">
        <ele>515</ele>
        <time>2020-05-23T08:13:43Z</time>
      </trkpt>
      <trkpt lat="44.16607" lon="5.03243">
        <ele>514</ele>
        <time>2020-05-23T08:13:44Z</time>
      </trkpt>
      <trkpt lat="44.16606" lon="5.0324">
        <ele>514</ele>
        <time>2020-05-23T08:13:45Z</time>
      </trkpt>
      <trkpt lat="44.16604" lon="5.03238">
        <ele>513</ele>
        <time>2020-05-23T08:13:46Z</time>
      </trkpt>
      <trkpt lat="44.16603" lon="5.03236">
        <ele>513</ele>
        <time>2020-05-23T08:13:47Z</time>
      </trkpt>
      <trkpt lat="44.16602" lon="5.03233">
        <ele>513</ele>
        <time>2020-05-23T08:13:48Z</time>
      </trkpt>
      <trkpt lat="44.16602" lon="5.0323">
        <ele>512</ele>
        <time>2020-05-23T08:13:49Z</time>
      </trkpt>
      <trkpt lat="44.16601" lon="5.03226">
        <ele>512</ele>
        <time>2020-05-23T08:13:50Z</time>
      </trkpt>
      <trkpt lat="44.166" lon="5.03223">
        <ele>512</ele>
        <time>2020-05-23T08:13:51Z</time>
      </trkpt>
      <trkpt lat="44.16596" lon="5.03208">
        <ele>511</ele>
        <time>2020-05-23T08:13:56Z</time>
      </trkpt>
      <trkpt lat="44.16595" lon="5.03206">
        <ele>511</ele>
        <time>2020-05-23T08:13:57Z</time>
      </trkpt>
      <trkpt lat="44.16594" lon="5.03204">
        <ele>511</ele>
        <time>2020-05-23T08:13:58Z</time>
      </trkpt>
      <trkpt lat="44.16594" lon="5.03202">
        <ele>512</ele>
        <time>2020-05-23T08:13:59Z</time>
      </trkpt>
      <trkpt lat="44.16593" lon="5.032">
        <ele>512</ele>
        <time>2020-05-23T08:14:00Z</time>
      </trkpt>
      <trkpt lat="44.16593" lon="5.03198">
        <ele>512</ele>
        <time>2020-05-23T08:14:01Z</time>
      </trkpt>
      <trkpt lat="44.16589" lon="5.03173">
        <ele>514</ele>
        <time>2020-05-23T08:14:12Z</time>
      </trkpt>
      <trkpt lat="44.16588" lon="5.03171">
        <ele>514</ele>
        <time>2020-05-23T08:14:13Z</time>
      </trkpt>
      <trkpt lat="44.16581" lon="5.03154">
        <ele>517</ele>
        <time>2020-05-23T08:14:20Z</time>
      </trkpt>
      <trkpt lat="44.16579" lon="5.03152">
        <ele>517</ele>
        <time>2020-05-23T08:14:21Z</time>
      </trkpt>
      <trkpt lat="44.16577" lon="5.03149">
        <ele>517</ele>
        <time>2020-05-23T08:14:22Z</time>
      </trkpt>
      <trkpt lat="44.16575" lon="5.03144">
        <ele>518</ele>
        <time>2020-05-23T08:14:23Z</time>
      </trkpt>
      <trkpt lat="44.16574" lon="5.0314">
        <ele>518</ele>
        <time>2020-05-23T08:14:24Z</time>
      </trkpt>
      <trkpt lat="44.16574" lon="5.03136">
        <ele>518</ele>
        <time>2020-05-23T08:14:25Z</time>
      </trkpt>
      <trkpt lat="44.16574" lon="5.03133">
        <ele>518</ele>
        <time>2020-05-23T08:14:26Z</time>
      </trkpt>
      <trkpt lat="44.16573" lon="5.03129">
        <ele>518</ele>
        <time>2020-05-23T08:14:27Z</time>
      </trkpt>
      <trkpt lat="44.1657" lon="5.03118">
        <ele>517</ele>
        <time>2020-05-23T08:14:30Z</time>
      </trkpt>
      <trkpt lat="44.16568" lon="5.03116">
        <ele>517</ele>
        <time>2020-05-23T08:14:31Z</time>
      </trkpt>
      <trkpt lat="44.16554" lon="5.03099">
        <ele>518</ele>
        <time>2020-05-23T08:14:38Z</time>
      </trkpt>
      <trkpt lat="44.16552" lon="5.03098">
        <ele>518</ele>
        <time>2020-05-23T08:14:39Z</time>
      </trkpt>
      <trkpt lat="44.1655" lon="5.03096">
        <ele>517</ele>
        <time>2020-05-23T08:14:40Z</time>
      </trkpt>
      <trkpt lat="44.16548" lon="5.03095">
        <ele>517</ele>
        <time>2020-05-23T08:14:41Z</time>
      </trkpt>
      <trkpt lat="44.16545" lon="5.03094">
        <ele>516</ele>
        <time>2020-05-23T08:14:42Z</time>
      </trkpt>
      <trkpt lat="44.1654" lon="5.03087">
        <ele>515</ele>
        <time>2020-05-23T08:14:45Z</time>
      </trkpt>
      <trkpt lat="44.16532" lon="5.03068">
        <ele>514</ele>
        <time>2020-05-23T08:14:52Z</time>
      </trkpt>
      <trkpt lat="44.16524" lon="5.03048">
        <ele>512</ele>
        <time>2020-05-23T08:14:59Z</time>
      </trkpt>
      <trkpt lat="44.16515" lon="5.03023">
        <ele>507</ele>
        <time>2020-05-23T08:15:08Z</time>
      </trkpt>
      <trkpt lat="44.16504" lon="5.03008">
        <ele>501</ele>
        <time>2020-05-23T08:15:13Z</time>
      </trkpt>
      <trkpt lat="44.16502" lon="5.03005">
        <ele>501</ele>
        <time>2020-05-23T08:15:14Z</time>
      </trkpt>
      <trkpt lat="44.16501" lon="5.03001">
        <ele>501</ele>
        <time>2020-05-23T08:15:15Z</time>
      </trkpt>
      <trkpt lat="44.16501" lon="5.02997">
        <ele>501</ele>
        <time>2020-05-23T08:15:16Z</time>
      </trkpt>
      <trkpt lat="44.16502" lon="5.02994">
        <ele>502</ele>
        <time>2020-05-23T08:15:17Z</time>
      </trkpt>
      <trkpt lat="44.16502" lon="5.02991">
        <ele>502</ele>
        <time>2020-05-23T08:15:18Z</time>
      </trkpt>
      <trkpt lat="44.16501" lon="5.02988">
        <ele>502</ele>
        <time>2020-05-23T08:15:19Z</time>
      </trkpt>
      <trkpt lat="44.165" lon="5.02986">
        <ele>502</ele>
        <time>2020-05-23T08:15:20Z</time>
      </trkpt>
      <trkpt lat="44.16487" lon="5.0296">
        <ele>500</ele>
        <time>2020-05-23T08:15:29Z</time>
      </trkpt>
      <trkpt lat="44.16471" lon="5.02941">
        <ele>497</ele>
        <time>2020-05-23T08:15:37Z</time>
      </trkpt>
      <trkpt lat="44.16463" lon="5.02931">
        <ele>495</ele>
        <time>2020-05-23T08:15:41Z</time>
      </trkpt>
      <trkpt lat="44.16461" lon="5.02929">
        <ele>495</ele>
        <time>2020-05-23T08:15:42Z</time>
      </trkpt>
      <trkpt lat="44.16459" lon="5.02926">
        <ele>495</ele>
        <time>2020-05-23T08:15:43Z</time>
      </trkpt>
      <trkpt lat="44.16442" lon="5.02905">
        <ele>494</ele>
        <time>2020-05-23T08:15:52Z</time>
      </trkpt>
      <trkpt lat="44.16439" lon="5.02903">
        <ele>493</ele>
        <time>2020-05-23T08:15:54Z</time>
      </trkpt>
      <trkpt lat="44.16437" lon="5.02901">
        <ele>492</ele>
        <time>2020-05-23T08:15:55Z</time>
      </trkpt>
      <trkpt lat="44.1643" lon="5.02892">
        <ele>491</ele>
        <time>2020-05-23T08:16:00Z</time>
      </trkpt>
      <trkpt lat="44.1643" lon="5.02889">
        <ele>491</ele>
        <time>2020-05-23T08:16:01Z</time>
      </trkpt>
      <trkpt lat="44.16429" lon="5.02887">
        <ele>491</ele>
        <time>2020-05-23T08:16:02Z</time>
      </trkpt>
      <trkpt lat="44.16427" lon="5.02874">
        <ele>492</ele>
        <time>2020-05-23T08:16:08Z</time>
      </trkpt>
      <trkpt lat="44.16425" lon="5.02859">
        <ele>492</ele>
        <time>2020-05-23T08:16:14Z</time>
      </trkpt>
      <trkpt lat="44.16425" lon="5.02857">
        <ele>491</ele>
        <time>2020-05-23T08:16:15Z</time>
      </trkpt>
      <trkpt lat="44.16424" lon="5.02852">
        <ele>491</ele>
        <time>2020-05-23T08:16:17Z</time>
      </trkpt>
      <trkpt lat="44.16425" lon="5.0285">
        <ele>491</ele>
        <time>2020-05-23T08:16:18Z</time>
      </trkpt>
      <trkpt lat="44.16424" lon="5.02838">
        <ele>490</ele>
        <time>2020-05-23T08:16:24Z</time>
      </trkpt>
      <trkpt lat="44.16423" lon="5.02836">
        <ele>490</ele>
        <time>2020-05-23T08:16:25Z</time>
      </trkpt>
      <trkpt lat="44.16422" lon="5.02833">
        <ele>489</ele>
        <time>2020-05-23T08:16:26Z</time>
      </trkpt>
      <trkpt lat="44.16421" lon="5.0283">
        <ele>488</ele>
        <time>2020-05-23T08:16:27Z</time>
      </trkpt>
      <trkpt lat="44.1642" lon="5.02826">
        <ele>487</ele>
        <time>2020-05-23T08:16:28Z</time>
      </trkpt>
      <trkpt lat="44.1642" lon="5.02823">
        <ele>487</ele>
        <time>2020-05-23T08:16:29Z</time>
      </trkpt>
      <trkpt lat="44.16413" lon="5.028">
        <ele>483</ele>
        <time>2020-05-23T08:16:35Z</time>
      </trkpt>
      <trkpt lat="44.16406" lon="5.02784">
        <ele>481</ele>
        <time>2020-05-23T08:16:41Z</time>
      </trkpt>
      <trkpt lat="44.16405" lon="5.02782">
        <ele>481</ele>
        <time>2020-05-23T08:16:42Z</time>
      </trkpt>
      <trkpt lat="44.16404" lon="5.0278">
        <ele>481</ele>
        <time>2020-05-23T08:16:43Z</time>
      </trkpt>
      <trkpt lat="44.16402" lon="5.02777">
        <ele>480</ele>
        <time>2020-05-23T08:16:44Z</time>
      </trkpt>
      <trkpt lat="44.16397" lon="5.02769">
        <ele>480</ele>
        <time>2020-05-23T08:16:48Z</time>
      </trkpt>
      <trkpt lat="44.16386" lon="5.0276">
        <ele>477</ele>
        <time>2020-05-23T08:16:54Z</time>
      </trkpt>
      <trkpt lat="44.1638" lon="5.02756">
        <ele>475</ele>
        <time>2020-05-23T08:16:57Z</time>
      </trkpt>
      <trkpt lat="44.16378" lon="5.02754">
        <ele>475</ele>
        <time>2020-05-23T08:16:58Z</time>
      </trkpt>
      <trkpt lat="44.16376" lon="5.02753">
        <ele>475</ele>
        <time>2020-05-23T08:16:59Z</time>
      </trkpt>
      <trkpt lat="44.16374" lon="5.02751">
        <ele>474</ele>
        <time>2020-05-23T08:17:00Z</time>
      </trkpt>
      <trkpt lat="44.16373" lon="5.02749">
        <ele>474</ele>
        <time>2020-05-23T08:17:01Z</time>
      </trkpt>
      <trkpt lat="44.16371" lon="5.02747">
        <ele>474</ele>
        <time>2020-05-23T08:17:02Z</time>
      </trkpt>
      <trkpt lat="44.16365" lon="5.02737">
        <ele>473</ele>
        <time>2020-05-23T08:17:07Z</time>
      </trkpt>
      <trkpt lat="44.1636" lon="5.02727">
        <ele>471</ele>
        <time>2020-05-23T08:17:13Z</time>
      </trkpt>
      <trkpt lat="44.16359" lon="5.02726">
        <ele>471</ele>
        <time>2020-05-23T08:17:14Z</time>
      </trkpt>
      <trkpt lat="44.16351" lon="5.02722">
        <ele>468</ele>
        <time>2020-05-23T08:17:21Z</time>
      </trkpt>
      <trkpt lat="44.1635" lon="5.02722">
        <ele>468</ele>
        <time>2020-05-23T08:17:22Z</time>
      </trkpt>
      <trkpt lat="44.16349" lon="5.0272">
        <ele>467</ele>
        <time>2020-05-23T08:17:25Z</time>
      </trkpt>
      <trkpt lat="44.16346" lon="5.02713">
        <ele>465</ele>
        <time>2020-05-23T08:17:31Z</time>
      </trkpt>
      <trkpt lat="44.16345" lon="5.02712">
        <ele>465</ele>
        <time>2020-05-23T08:17:32Z</time>
      </trkpt>
      <trkpt lat="44.16341" lon="5.02708">
        <ele>462</ele>
        <time>2020-05-23T08:17:37Z</time>
      </trkpt>
      <trkpt lat="44.1634" lon="5.02705">
        <ele>461</ele>
        <time>2020-05-23T08:17:39Z</time>
      </trkpt>
      <trkpt lat="44.16334" lon="5.02698">
        <ele>459</ele>
        <time>2020-05-23T08:17:46Z</time>
      </trkpt>
      <trkpt lat="44.16331" lon="5.02695">
        <ele>457</ele>
        <time>2020-05-23T08:17:47Z</time>
      </trkpt>
      <trkpt lat="44.16328" lon="5.02693">
        <ele>456</ele>
        <time>2020-05-23T08:17:48Z</time>
      </trkpt>
      <trkpt lat="44.16318" lon="5.02688">
        <ele>454</ele>
        <time>2020-05-23T08:17:54Z</time>
      </trkpt>
      <trkpt lat="44.16314" lon="5.02688">
        <ele>452</ele>
        <time>2020-05-23T08:18:00Z</time>
      </trkpt>
      <trkpt lat="44.16309" lon="5.02686">
        <ele>451</ele>
        <time>2020-05-23T08:18:05Z</time>
      </trkpt>
      <trkpt lat="44.16306" lon="5.02684">
        <ele>450</ele>
        <time>2020-05-23T08:18:08Z</time>
      </trkpt>
      <trkpt lat="44.16297" lon="5.02683">
        <ele>445</ele>
        <time>2020-05-23T08:18:15Z</time>
      </trkpt>
      <trkpt lat="44.16287" lon="5.02681">
        <ele>440</ele>
        <time>2020-05-23T08:18:19Z</time>
      </trkpt>
      <trkpt lat="44.16284" lon="5.02682">
        <ele>439</ele>
        <time>2020-05-23T08:18:20Z</time>
      </trkpt>
      <trkpt lat="44.16276" lon="5.02682">
        <ele>435</ele>
        <time>2020-05-23T08:18:24Z</time>
      </trkpt>
      <trkpt lat="44.16269" lon="5.02691">
        <ele>433</ele>
        <time>2020-05-23T08:18:31Z</time>
      </trkpt>
      <trkpt lat="44.16262" lon="5.02694">
        <ele>430</ele>
        <time>2020-05-23T08:18:39Z</time>
      </trkpt>
      <trkpt lat="44.16256" lon="5.02698">
        <ele>428</ele>
        <time>2020-05-23T08:18:45Z</time>
      </trkpt>
      <trkpt lat="44.16247" lon="5.02697">
        <ele>424</ele>
        <time>2020-05-23T08:18:54Z</time>
      </trkpt>
      <trkpt lat="44.16245" lon="5.02697">
        <ele>423</ele>
        <time>2020-05-23T08:18:55Z</time>
      </trkpt>
      <trkpt lat="44.16239" lon="5.02699">
        <ele>421</ele>
        <time>2020-05-23T08:19:02Z</time>
      </trkpt>
      <trkpt lat="44.16235" lon="5.02701">
        <ele>420</ele>
        <time>2020-05-23T08:19:05Z</time>
      </trkpt>
      <trkpt lat="44.16229" lon="5.02704">
        <ele>418</ele>
        <time>2020-05-23T08:19:08Z</time>
      </trkpt>
      <trkpt lat="44.16226" lon="5.02704">
        <ele>417</ele>
        <time>2020-05-23T08:19:09Z</time>
      </trkpt>
      <trkpt lat="44.16219" lon="5.02703">
        <ele>414</ele>
        <time>2020-05-23T08:19:12Z</time>
      </trkpt>
      <trkpt lat="44.16209" lon="5.02699">
        <ele>412</ele>
        <time>2020-05-23T08:19:18Z</time>
      </trkpt>
      <trkpt lat="44.16203" lon="5.02696">
        <ele>411</ele>
        <time>2020-05-23T08:19:22Z</time>
      </trkpt>
      <trkpt lat="44.16196" lon="5.027">
        <ele>409</ele>
        <time>2020-05-23T08:19:28Z</time>
      </trkpt>
      <trkpt lat="44.1619" lon="5.02704">
        <ele>408</ele>
        <time>2020-05-23T08:19:33Z</time>
      </trkpt>
      <trkpt lat="44.16188" lon="5.02704">
        <ele>407</ele>
        <time>2020-05-23T08:19:34Z</time>
      </trkpt>
      <trkpt lat="44.16181" lon="5.02712">
        <ele>405</ele>
        <time>2020-05-23T08:19:40Z</time>
      </trkpt>
      <trkpt lat="44.16179" lon="5.02716">
        <ele>403</ele>
        <time>2020-05-23T08:19:42Z</time>
      </trkpt>
      <trkpt lat="44.16176" lon="5.02735">
        <ele>398</ele>
        <time>2020-05-23T08:19:52Z</time>
      </trkpt>
      <trkpt lat="44.16173" lon="5.02736">
        <ele>397</ele>
        <time>2020-05-23T08:19:57Z</time>
      </trkpt>
      <trkpt lat="44.1617" lon="5.02736">
        <ele>395</ele>
        <time>2020-05-23T08:20:02Z</time>
      </trkpt>
      <trkpt lat="44.16168" lon="5.02736">
        <ele>394</ele>
        <time>2020-05-23T08:20:03Z</time>
      </trkpt>
      <trkpt lat="44.16165" lon="5.02736">
        <ele>393</ele>
        <time>2020-05-23T08:20:04Z</time>
      </trkpt>
      <trkpt lat="44.16163" lon="5.02736">
        <ele>393</ele>
        <time>2020-05-23T08:20:05Z</time>
      </trkpt>
      <trkpt lat="44.1616" lon="5.02736">
        <ele>392</ele>
        <time>2020-05-23T08:20:06Z</time>
      </trkpt>
      <trkpt lat="44.16157" lon="5.02736">
        <ele>392</ele>
        <time>2020-05-23T08:20:07Z</time>
      </trkpt>
      <trkpt lat="44.16154" lon="5.02736">
        <ele>391</ele>
        <time>2020-05-23T08:20:08Z</time>
      </trkpt>
      <trkpt lat="44.16152" lon="5.02736">
        <ele>390</ele>
        <time>2020-05-23T08:20:09Z</time>
      </trkpt>
      <trkpt lat="44.1615" lon="5.02736">
        <ele>390</ele>
        <time>2020-05-23T08:20:10Z</time>
      </trkpt>
      <trkpt lat="44.16148" lon="5.02736">
        <ele>389</ele>
        <time>2020-05-23T08:20:11Z</time>
      </trkpt>
      <trkpt lat="44.16128" lon="5.02735">
        <ele>387</ele>
        <time>2020-05-23T08:20:21Z</time>
      </trkpt>
      <trkpt lat="44.16097" lon="5.02726">
        <ele>385</ele>
        <time>2020-05-23T08:20:32Z</time>
      </trkpt>
      <trkpt lat="44.16071" lon="5.02701">
        <ele>384</ele>
        <time>2020-05-23T08:20:42Z</time>
      </trkpt>
      <trkpt lat="44.16046" lon="5.02676">
        <ele>383</ele>
        <time>2020-05-23T08:20:54Z</time>
      </trkpt>
      <trkpt lat="44.16026" lon="5.02662">
        <ele>382</ele>
        <time>2020-05-23T08:21:03Z</time>
      </trkpt>
      <trkpt lat="44.16024" lon="5.02659">
        <ele>382</ele>
        <time>2020-05-23T08:21:04Z</time>
      </trkpt>
      <trkpt lat="44.16022" lon="5.02658">
        <ele>381</ele>
        <time>2020-05-23T08:21:05Z</time>
      </trkpt>
      <trkpt lat="44.16016" lon="5.02653">
        <ele>381</ele>
        <time>2020-05-23T08:21:08Z</time>
      </trkpt>
      <trkpt lat="44.16014" lon="5.02651">
        <ele>380</ele>
        <time>2020-05-23T08:21:09Z</time>
      </trkpt>
      <trkpt lat="44.16011" lon="5.02649">
        <ele>380</ele>
        <time>2020-05-23T08:21:10Z</time>
      </trkpt>
      <trkpt lat="44.16009" lon="5.02648">
        <ele>380</ele>
        <time>2020-05-23T08:21:11Z</time>
      </trkpt>
      <trkpt lat="44.16007" lon="5.02646">
        <ele>380</ele>
        <time>2020-05-23T08:21:12Z</time>
      </trkpt>
      <trkpt lat="44.16005" lon="5.02645">
        <ele>379</ele>
        <time>2020-05-23T08:21:13Z</time>
      </trkpt>
      <trkpt lat="44.16003" lon="5.02643">
        <ele>379</ele>
        <time>2020-05-23T08:21:14Z</time>
      </trkpt>
      <trkpt lat="44.16001" lon="5.02641">
        <ele>379</ele>
        <time>2020-05-23T08:21:15Z</time>
      </trkpt>
      <trkpt lat="44.15999" lon="5.02639">
        <ele>379</ele>
        <time>2020-05-23T08:21:16Z</time>
      </trkpt>
      <trkpt lat="44.15997" lon="5.02637">
        <ele>379</ele>
        <time>2020-05-23T08:21:17Z</time>
      </trkpt>
      <trkpt lat="44.15977" lon="5.02617">
        <ele>382</ele>
        <time>2020-05-23T08:21:28Z</time>
      </trkpt>
      <trkpt lat="44.15967" lon="5.02605">
        <ele>384</ele>
        <time>2020-05-23T08:21:34Z</time>
      </trkpt>
      <trkpt lat="44.15951" lon="5.02583">
        <ele>388</ele>
        <time>2020-05-23T08:21:46Z</time>
      </trkpt>
      <trkpt lat="44.15942" lon="5.02566">
        <ele>390</ele>
        <time>2020-05-23T08:21:56Z</time>
      </trkpt>
      <trkpt lat="44.1594" lon="5.02562">
        <ele>390</ele>
        <time>2020-05-23T08:21:58Z</time>
      </trkpt>
      <trkpt lat="44.15938" lon="5.02558">
        <ele>391</ele>
        <time>2020-05-23T08:22:00Z</time>
      </trkpt>
      <trkpt lat="44.15938" lon="5.02555">
        <ele>391</ele>
        <time>2020-05-23T08:22:01Z</time>
      </trkpt>
      <trkpt lat="44.15937" lon="5.02553">
        <ele>391</ele>
        <time>2020-05-23T08:22:02Z</time>
      </trkpt>
      <trkpt lat="44.15936" lon="5.02551">
        <ele>392</ele>
        <time>2020-05-23T08:22:03Z</time>
      </trkpt>
      <trkpt lat="44.15936" lon="5.02549">
        <ele>392</ele>
        <time>2020-05-23T08:22:04Z</time>
      </trkpt>
      <trkpt lat="44.15926" lon="5.0253">
        <ele>394</ele>
        <time>2020-05-23T08:22:15Z</time>
      </trkpt>
      <trkpt lat="44.15909" lon="5.02496">
        <ele>395</ele>
        <time>2020-05-23T08:22:26Z</time>
      </trkpt>
      <trkpt lat="44.15896" lon="5.0247">
        <ele>395</ele>
        <time>2020-05-23T08:22:34Z</time>
      </trkpt>
      <trkpt lat="44.15882" lon="5.0245">
        <ele>395</ele>
        <time>2020-05-23T08:22:42Z</time>
      </trkpt>
      <trkpt lat="44.1588" lon="5.02448">
        <ele>396</ele>
        <time>2020-05-23T08:22:43Z</time>
      </trkpt>
      <trkpt lat="44.15879" lon="5.02447">
        <ele>396</ele>
        <time>2020-05-23T08:22:44Z</time>
      </trkpt>
      <trkpt lat="44.15877" lon="5.02445">
        <ele>396</ele>
        <time>2020-05-23T08:22:45Z</time>
      </trkpt>
      <trkpt lat="44.15876" lon="5.02443">
        <ele>396</ele>
        <time>2020-05-23T08:22:46Z</time>
      </trkpt>
      <trkpt lat="44.15874" lon="5.02441">
        <ele>396</ele>
        <time>2020-05-23T08:22:47Z</time>
      </trkpt>
      <trkpt lat="44.15873" lon="5.02439">
        <ele>397</ele>
        <time>2020-05-23T08:22:48Z</time>
      </trkpt>
      <trkpt lat="44.15871" lon="5.02436">
        <ele>397</ele>
        <time>2020-05-23T08:22:49Z</time>
      </trkpt>
      <trkpt lat="44.15855" lon="5.02405">
        <ele>399</ele>
        <time>2020-05-23T08:23:01Z</time>
      </trkpt>
      <trkpt lat="44.15841" lon="5.02372">
        <ele>401</ele>
        <time>2020-05-23T08:23:12Z</time>
      </trkpt>
      <trkpt lat="44.15831" lon="5.02342">
        <ele>401</ele>
        <time>2020-05-23T08:23:22Z</time>
      </trkpt>
      <trkpt lat="44.15823" lon="5.0231">
        <ele>401</ele>
        <time>2020-05-23T08:23:32Z</time>
      </trkpt>
      <trkpt lat="44.15813" lon="5.02265">
        <ele>402</ele>
        <time>2020-05-23T08:23:47Z</time>
      </trkpt>
      <trkpt lat="44.15807" lon="5.02225">
        <ele>404</ele>
        <time>2020-05-23T08:24:00Z</time>
      </trkpt>
      <trkpt lat="44.15798" lon="5.02192">
        <ele>405</ele>
        <time>2020-05-23T08:24:11Z</time>
      </trkpt>
      <trkpt lat="44.15785" lon="5.02158">
        <ele>407</ele>
        <time>2020-05-23T08:24:23Z</time>
      </trkpt>
      <trkpt lat="44.15768" lon="5.02135">
        <ele>410</ele>
        <time>2020-05-23T08:24:32Z</time>
      </trkpt>
      <trkpt lat="44.15755" lon="5.02123">
        <ele>411</ele>
        <time>2020-05-23T08:24:39Z</time>
      </trkpt>
      <trkpt lat="44.15753" lon="5.02121">
        <ele>411</ele>
        <time>2020-05-23T08:24:40Z</time>
      </trkpt>
      <trkpt lat="44.15752" lon="5.0212">
        <ele>411</ele>
        <time>2020-05-23T08:24:41Z</time>
      </trkpt>
      <trkpt lat="44.15751" lon="5.02119">
        <ele>411</ele>
        <time>2020-05-23T08:24:42Z</time>
      </trkpt>
      <trkpt lat="44.15749" lon="5.02117">
        <ele>411</ele>
        <time>2020-05-23T08:24:43Z</time>
      </trkpt>
      <trkpt lat="44.15748" lon="5.02116">
        <ele>411</ele>
        <time>2020-05-23T08:24:44Z</time>
      </trkpt>
      <trkpt lat="44.15747" lon="5.02114">
        <ele>412</ele>
        <time>2020-05-23T08:24:45Z</time>
      </trkpt>
      <trkpt lat="44.15745" lon="5.02112">
        <ele>412</ele>
        <time>2020-05-23T08:24:46Z</time>
      </trkpt>
      <trkpt lat="44.15744" lon="5.0211">
        <ele>412</ele>
        <time>2020-05-23T08:24:47Z</time>
      </trkpt>
      <trkpt lat="44.15743" lon="5.02108">
        <ele>412</ele>
        <time>2020-05-23T08:24:48Z</time>
      </trkpt>
      <trkpt lat="44.15741" lon="5.02106">
        <ele>412</ele>
        <time>2020-05-23T08:24:49Z</time>
      </trkpt>
      <trkpt lat="44.1574" lon="5.02103">
        <ele>412</ele>
        <time>2020-05-23T08:24:50Z</time>
      </trkpt>
      <trkpt lat="44.1573" lon="5.02071">
        <ele>409</ele>
        <time>2020-05-23T08:25:01Z</time>
      </trkpt>
      <trkpt lat="44.15716" lon="5.02034">
        <ele>408</ele>
        <time>2020-05-23T08:25:13Z</time>
      </trkpt>
      <trkpt lat="44.15709" lon="5.02012">
        <ele>409</ele>
        <time>2020-05-23T08:25:25Z</time>
      </trkpt>
      <trkpt lat="44.15705" lon="5.01984">
        <ele>410</ele>
        <time>2020-05-23T08:25:41Z</time>
      </trkpt>
      <trkpt lat="44.157" lon="5.01958">
        <ele>412</ele>
        <time>2020-05-23T08:25:54Z</time>
      </trkpt>
      <trkpt lat="44.15693" lon="5.01924">
        <ele>417</ele>
        <time>2020-05-23T08:26:09Z</time>
      </trkpt>
      <trkpt lat="44.15695" lon="5.01894">
        <ele>416</ele>
        <time>2020-05-23T08:26:24Z</time>
      </trkpt>
      <trkpt lat="44.15695" lon="5.01872">
        <ele>416</ele>
        <time>2020-05-23T08:26:36Z</time>
      </trkpt>
      <trkpt lat="44.15694" lon="5.01853">
        <ele>416</ele>
        <time>2020-05-23T08:26:43Z</time>
      </trkpt>
      <trkpt lat="44.15692" lon="5.01829">
        <ele>416</ele>
        <time>2020-05-23T08:26:52Z</time>
      </trkpt>
      <trkpt lat="44.15686" lon="5.01797">
        <ele>416</ele>
        <time>2020-05-23T08:27:02Z</time>
      </trkpt>
      <trkpt lat="44.15673" lon="5.01777">
        <ele>421</ele>
        <time>2020-05-23T08:27:11Z</time>
      </trkpt>
      <trkpt lat="44.15669" lon="5.0175">
        <ele>422</ele>
        <time>2020-05-23T08:27:19Z</time>
      </trkpt>
      <trkpt lat="44.15675" lon="5.01721">
        <ele>420</ele>
        <time>2020-05-23T08:27:28Z</time>
      </trkpt>
      <trkpt lat="44.15679" lon="5.01688">
        <ele>420</ele>
        <time>2020-05-23T08:27:38Z</time>
      </trkpt>
      <trkpt lat="44.15676" lon="5.01648">
        <ele>421</ele>
        <time>2020-05-23T08:27:50Z</time>
      </trkpt>
      <trkpt lat="44.15666" lon="5.01615">
        <ele>422</ele>
        <time>2020-05-23T08:28:02Z</time>
      </trkpt>
      <trkpt lat="44.15656" lon="5.01581">
        <ele>423</ele>
        <time>2020-05-23T08:28:14Z</time>
      </trkpt>
      <trkpt lat="44.15654" lon="5.01543">
        <ele>420</ele>
        <time>2020-05-23T08:28:25Z</time>
      </trkpt>
      <trkpt lat="44.15649" lon="5.01502">
        <ele>421</ele>
        <time>2020-05-23T08:28:37Z</time>
      </trkpt>
      <trkpt lat="44.15648" lon="5.01464">
        <ele>421</ele>
        <time>2020-05-23T08:28:49Z</time>
      </trkpt>
      <trkpt lat="44.1565" lon="5.01427">
        <ele>423</ele>
        <time>2020-05-23T08:29:00Z</time>
      </trkpt>
      <trkpt lat="44.15652" lon="5.01404">
        <ele>424</ele>
        <time>2020-05-23T08:29:07Z</time>
      </trkpt>
      <trkpt lat="44.15655" lon="5.01375">
        <ele>424</ele>
        <time>2020-05-23T08:29:16Z</time>
      </trkpt>
      <trkpt lat="44.15662" lon="5.0134">
        <ele>423</ele>
        <time>2020-05-23T08:29:27Z</time>
      </trkpt>
      <trkpt lat="44.15667" lon="5.01305">
        <ele>425</ele>
        <time>2020-05-23T08:29:38Z</time>
      </trkpt>
      <trkpt lat="44.15674" lon="5.01272">
        <ele>428</ele>
        <time>2020-05-23T08:29:49Z</time>
      </trkpt>
      <trkpt lat="44.15687" lon="5.01238">
        <ele>429</ele>
        <time>2020-05-23T08:30:00Z</time>
      </trkpt>
      <trkpt lat="44.15698" lon="5.01206">
        <ele>431</ele>
        <time>2020-05-23T08:30:11Z</time>
      </trkpt>
      <trkpt lat="44.15711" lon="5.01172">
        <ele>432</ele>
        <time>2020-05-23T08:30:23Z</time>
      </trkpt>
      <trkpt lat="44.15718" lon="5.01132">
        <ele>433</ele>
        <time>2020-05-23T08:30:35Z</time>
      </trkpt>
      <trkpt lat="44.15712" lon="5.01115">
        <ele>434</ele>
        <time>2020-05-23T08:30:40Z</time>
      </trkpt>
      <trkpt lat="44.15691" lon="5.01096">
        <ele>432</ele>
        <time>2020-05-23T08:30:49Z</time>
      </trkpt>
      <trkpt lat="44.15665" lon="5.01078">
        <ele>430</ele>
        <time>2020-05-23T08:31:00Z</time>
      </trkpt>
      <trkpt lat="44.15644" lon="5.01059">
        <ele>427</ele>
        <time>2020-05-23T08:31:09Z</time>
      </trkpt>
      <trkpt lat="44.15624" lon="5.01036">
        <ele>422</ele>
        <time>2020-05-23T08:31:18Z</time>
      </trkpt>
      <trkpt lat="44.15602" lon="5.01026">
        <ele>419</ele>
        <time>2020-05-23T08:31:27Z</time>
      </trkpt>
      <trkpt lat="44.1559" lon="5.01021">
        <ele>419</ele>
        <time>2020-05-23T08:31:34Z</time>
      </trkpt>
      <trkpt lat="44.1559" lon="5.0102">
        <ele>419</ele>
        <time>2020-05-23T08:31:35Z</time>
      </trkpt>
      <trkpt lat="44.15591" lon="5.01019">
        <ele>419</ele>
        <time>2020-05-23T08:31:36Z</time>
      </trkpt>
      <trkpt lat="44.15596" lon="5.01005">
        <ele>417</ele>
        <time>2020-05-23T08:31:45Z</time>
      </trkpt>
      <trkpt lat="44.15597" lon="5.01005">
        <ele>417</ele>
        <time>2020-05-23T08:31:46Z</time>
      </trkpt>
      <trkpt lat="44.15598" lon="5.01003">
        <ele>417</ele>
        <time>2020-05-23T08:31:47Z</time>
      </trkpt>
      <trkpt lat="44.15599" lon="5.01002">
        <ele>416</ele>
        <time>2020-05-23T08:31:48Z</time>
      </trkpt>
      <trkpt lat="44.15599" lon="5.01">
        <ele>416</ele>
        <time>2020-05-23T08:31:49Z</time>
      </trkpt>
      <trkpt lat="44.156" lon="5.00998">
        <ele>416</ele>
        <time>2020-05-23T08:31:50Z</time>
      </trkpt>
      <trkpt lat="44.15608" lon="5.00984">
        <ele>416</ele>
        <time>2020-05-23T08:31:58Z</time>
      </trkpt>
      <trkpt lat="44.15614" lon="5.0098">
        <ele>414</ele>
        <time>2020-05-23T08:32:01Z</time>
      </trkpt>
      <trkpt lat="44.15617" lon="5.00978">
        <ele>413</ele>
        <time>2020-05-23T08:32:02Z</time>
      </trkpt>
      <trkpt lat="44.15629" lon="5.00972">
        <ele>409</ele>
        <time>2020-05-23T08:32:07Z</time>
      </trkpt>
      <trkpt lat="44.1563" lon="5.0097">
        <ele>409</ele>
        <time>2020-05-23T08:32:08Z</time>
      </trkpt>
      <trkpt lat="44.15639" lon="5.00963">
        <ele>406</ele>
        <time>2020-05-23T08:32:13Z</time>
      </trkpt>
      <trkpt lat="44.15644" lon="5.0096">
        <ele>404</ele>
        <time>2020-05-23T08:32:16Z</time>
      </trkpt>
      <trkpt lat="44.1565" lon="5.00949">
        <ele>402</ele>
        <time>2020-05-23T08:32:21Z</time>
      </trkpt>
      <trkpt lat="44.15658" lon="5.00928">
        <ele>399</ele>
        <time>2020-05-23T08:32:29Z</time>
      </trkpt>
      <trkpt lat="44.15659" lon="5.00922">
        <ele>399</ele>
        <time>2020-05-23T08:32:32Z</time>
      </trkpt>
      <trkpt lat="44.15661" lon="5.00919">
        <ele>398</ele>
        <time>2020-05-23T08:32:33Z</time>
      </trkpt>
      <trkpt lat="44.15662" lon="5.00917">
        <ele>398</ele>
        <time>2020-05-23T08:32:34Z</time>
      </trkpt>
      <trkpt lat="44.15663" lon="5.00914">
        <ele>397</ele>
        <time>2020-05-23T08:32:35Z</time>
      </trkpt>
      <trkpt lat="44.15673" lon="5.00898">
        <ele>391</ele>
        <time>2020-05-23T08:32:42Z</time>
      </trkpt>
      <trkpt lat="44.15677" lon="5.00878">
        <ele>388</ele>
        <time>2020-05-23T08:32:48Z</time>
      </trkpt>
      <trkpt lat="44.15682" lon="5.00861">
        <ele>384</ele>
        <time>2020-05-23T08:32:54Z</time>
      </trkpt>
      <trkpt lat="44.15689" lon="5.00847">
        <ele>380</ele>
        <time>2020-05-23T08:32:58Z</time>
      </trkpt>
      <trkpt lat="44.15692" lon="5.00841">
        <ele>378</ele>
        <time>2020-05-23T08:33:01Z</time>
      </trkpt>
      <trkpt lat="44.15695" lon="5.00835">
        <ele>377</ele>
        <time>2020-05-23T08:33:04Z</time>
      </trkpt>
      <trkpt lat="44.157" lon="5.00828">
        <ele>375</ele>
        <time>2020-05-23T08:33:11Z</time>
      </trkpt>
      <trkpt lat="44.15701" lon="5.00824">
        <ele>374</ele>
        <time>2020-05-23T08:33:13Z</time>
      </trkpt>
      <trkpt lat="44.15701" lon="5.00822">
        <ele>374</ele>
        <time>2020-05-23T08:33:14Z</time>
      </trkpt>
      <trkpt lat="44.15702" lon="5.00811">
        <ele>374</ele>
        <time>2020-05-23T08:33:20Z</time>
      </trkpt>
      <trkpt lat="44.15709" lon="5.00798">
        <ele>370</ele>
        <time>2020-05-23T08:33:25Z</time>
      </trkpt>
      <trkpt lat="44.15713" lon="5.00793">
        <ele>367</ele>
        <time>2020-05-23T08:33:27Z</time>
      </trkpt>
      <trkpt lat="44.1572" lon="5.00785">
        <ele>363</ele>
        <time>2020-05-23T08:33:31Z</time>
      </trkpt>
      <trkpt lat="44.15721" lon="5.00783">
        <ele>362</ele>
        <time>2020-05-23T08:33:32Z</time>
      </trkpt>
      <trkpt lat="44.15724" lon="5.00778">
        <ele>360</ele>
        <time>2020-05-23T08:33:35Z</time>
      </trkpt>
      <trkpt lat="44.15725" lon="5.00774">
        <ele>360</ele>
        <time>2020-05-23T08:33:38Z</time>
      </trkpt>
      <trkpt lat="44.15725" lon="5.00772">
        <ele>360</ele>
        <time>2020-05-23T08:33:39Z</time>
      </trkpt>
      <trkpt lat="44.15727" lon="5.00768">
        <ele>359</ele>
        <time>2020-05-23T08:33:42Z</time>
      </trkpt>
      <trkpt lat="44.15731" lon="5.00761">
        <ele>357</ele>
        <time>2020-05-23T08:33:47Z</time>
      </trkpt>
      <trkpt lat="44.15732" lon="5.00758">
        <ele>357</ele>
        <time>2020-05-23T08:33:48Z</time>
      </trkpt>
      <trkpt lat="44.15733" lon="5.00755">
        <ele>356</ele>
        <time>2020-05-23T08:33:49Z</time>
      </trkpt>
      <trkpt lat="44.15742" lon="5.00726">
        <ele>351</ele>
        <time>2020-05-23T08:33:58Z</time>
      </trkpt>
      <trkpt lat="44.1574" lon="5.00697">
        <ele>352</ele>
        <time>2020-05-23T08:34:09Z</time>
      </trkpt>
      <trkpt lat="44.15743" lon="5.00666">
        <ele>349</ele>
        <time>2020-05-23T08:34:19Z</time>
      </trkpt>
      <trkpt lat="44.15747" lon="5.00667">
        <ele>347</ele>
        <time>2020-05-23T08:34:27Z</time>
      </trkpt>
      <trkpt lat="44.15749" lon="5.00671">
        <ele>346</ele>
        <time>2020-05-23T08:34:29Z</time>
      </trkpt>
      <trkpt lat="44.15753" lon="5.00676">
        <ele>344</ele>
        <time>2020-05-23T08:34:34Z</time>
      </trkpt>
      <trkpt lat="44.15756" lon="5.00679">
        <ele>343</ele>
        <time>2020-05-23T08:34:36Z</time>
      </trkpt>
      <trkpt lat="44.15757" lon="5.00681">
        <ele>343</ele>
        <time>2020-05-23T08:34:37Z</time>
      </trkpt>
      <trkpt lat="44.15764" lon="5.00688">
        <ele>339</ele>
        <time>2020-05-23T08:34:44Z</time>
      </trkpt>
      <trkpt lat="44.15768" lon="5.00688">
        <ele>337</ele>
        <time>2020-05-23T08:34:47Z</time>
      </trkpt>
      <trkpt lat="44.1577" lon="5.00686">
        <ele>336</ele>
        <time>2020-05-23T08:34:49Z</time>
      </trkpt>
      <trkpt lat="44.15771" lon="5.00684">
        <ele>335</ele>
        <time>2020-05-23T08:34:50Z</time>
      </trkpt>
      <trkpt lat="44.15771" lon="5.00682">
        <ele>335</ele>
        <time>2020-05-23T08:34:51Z</time>
      </trkpt>
      <trkpt lat="44.15772" lon="5.00676">
        <ele>334</ele>
        <time>2020-05-23T08:34:54Z</time>
      </trkpt>
      <trkpt lat="44.15772" lon="5.00672">
        <ele>334</ele>
        <time>2020-05-23T08:34:57Z</time>
      </trkpt>
      <trkpt lat="44.15775" lon="5.00661">
        <ele>331</ele>
        <time>2020-05-23T08:35:03Z</time>
      </trkpt>
      <trkpt lat="44.15777" lon="5.00643">
        <ele>329</ele>
        <time>2020-05-23T08:35:11Z</time>
      </trkpt>
      <trkpt lat="44.15778" lon="5.0064">
        <ele>328</ele>
        <time>2020-05-23T08:35:12Z</time>
      </trkpt>
      <trkpt lat="44.15778" lon="5.00637">
        <ele>328</ele>
        <time>2020-05-23T08:35:13Z</time>
      </trkpt>
      <trkpt lat="44.15782" lon="5.00627">
        <ele>327</ele>
        <time>2020-05-23T08:35:18Z</time>
      </trkpt>
      <trkpt lat="44.15789" lon="5.00614">
        <ele>324</ele>
        <time>2020-05-23T08:35:25Z</time>
      </trkpt>
      <trkpt lat="44.1579" lon="5.00613">
        <ele>324</ele>
        <time>2020-05-23T08:35:26Z</time>
      </trkpt>
      <trkpt lat="44.15801" lon="5.00589">
        <ele>319</ele>
        <time>2020-05-23T08:35:38Z</time>
      </trkpt>
      <trkpt lat="44.15807" lon="5.00561">
        <ele>317</ele>
        <time>2020-05-23T08:35:49Z</time>
      </trkpt>
      <trkpt lat="44.15811" lon="5.0054">
        <ele>317</ele>
        <time>2020-05-23T08:35:59Z</time>
      </trkpt>
      <trkpt lat="44.15815" lon="5.00533">
        <ele>317</ele>
        <time>2020-05-23T08:36:02Z</time>
      </trkpt>
      <trkpt lat="44.15817" lon="5.00531">
        <ele>316</ele>
        <time>2020-05-23T08:36:03Z</time>
      </trkpt>
      <trkpt lat="44.15819" lon="5.00531">
        <ele>316</ele>
        <time>2020-05-23T08:36:04Z</time>
      </trkpt>
      <trkpt lat="44.15821" lon="5.0053">
        <ele>315</ele>
        <time>2020-05-23T08:36:05Z</time>
      </trkpt>
      <trkpt lat="44.15823" lon="5.00529">
        <ele>314</ele>
        <time>2020-05-23T08:36:06Z</time>
      </trkpt>
      <trkpt lat="44.15833" lon="5.00521">
        <ele>312</ele>
        <time>2020-05-23T08:36:14Z</time>
      </trkpt>
      <trkpt lat="44.15833" lon="5.00516">
        <ele>312</ele>
        <time>2020-05-23T08:36:58Z</time>
      </trkpt>
      <trkpt lat="44.15835" lon="5.00507">
        <ele>313</ele>
        <time>2020-05-23T08:37:09Z</time>
      </trkpt>
      <trkpt lat="44.15836" lon="5.00499">
        <ele>313</ele>
        <time>2020-05-23T08:37:19Z</time>
      </trkpt>
      <trkpt lat="44.15837" lon="5.00494">
        <ele>313</ele>
        <time>2020-05-23T08:37:22Z</time>
      </trkpt>
      <trkpt lat="44.15837" lon="5.00486">
        <ele>312</ele>
        <time>2020-05-23T08:37:28Z</time>
      </trkpt>
      <trkpt lat="44.15833" lon="5.00477">
        <ele>312</ele>
        <time>2020-05-23T08:37:33Z</time>
      </trkpt>
      <trkpt lat="44.15833" lon="5.00475">
        <ele>312</ele>
        <time>2020-05-23T08:37:34Z</time>
      </trkpt>
      <trkpt lat="44.15831" lon="5.00468">
        <ele>312</ele>
        <time>2020-05-23T08:37:39Z</time>
      </trkpt>
      <trkpt lat="44.1583" lon="5.00468">
        <ele>312</ele>
        <time>2020-05-23T08:37:40Z</time>
      </trkpt>
      <trkpt lat="44.15829" lon="5.00467">
        <ele>312</ele>
        <time>2020-05-23T08:37:41Z</time>
      </trkpt>
      <trkpt lat="44.15829" lon="5.00465">
        <ele>312</ele>
        <time>2020-05-23T08:37:42Z</time>
      </trkpt>
      <trkpt lat="44.15829" lon="5.00461">
        <ele>311</ele>
        <time>2020-05-23T08:37:44Z</time>
      </trkpt>
      <trkpt lat="44.1583" lon="5.00459">
        <ele>311</ele>
        <time>2020-05-23T08:37:45Z</time>
      </trkpt>
      <trkpt lat="44.15832" lon="5.00457">
        <ele>311</ele>
        <time>2020-05-23T08:37:46Z</time>
      </trkpt>
      <trkpt lat="44.15833" lon="5.00454">
        <ele>310</ele>
        <time>2020-05-23T08:37:47Z</time>
      </trkpt>
      <trkpt lat="44.15834" lon="5.00449">
        <ele>309</ele>
        <time>2020-05-23T08:37:49Z</time>
      </trkpt>
      <trkpt lat="44.15834" lon="5.00446">
        <ele>309</ele>
        <time>2020-05-23T08:37:50Z</time>
      </trkpt>
      <trkpt lat="44.15835" lon="5.00439">
        <ele>307</ele>
        <time>2020-05-23T08:37:53Z</time>
      </trkpt>
      <trkpt lat="44.15834" lon="5.00437">
        <ele>307</ele>
        <time>2020-05-23T08:37:54Z</time>
      </trkpt>
      <trkpt lat="44.15833" lon="5.00435">
        <ele>306</ele>
        <time>2020-05-23T08:37:55Z</time>
      </trkpt>
      <trkpt lat="44.15832" lon="5.00433">
        <ele>306</ele>
        <time>2020-05-23T08:37:56Z</time>
      </trkpt>
      <trkpt lat="44.15831" lon="5.00431">
        <ele>305</ele>
        <time>2020-05-23T08:37:57Z</time>
      </trkpt>
      <trkpt lat="44.15829" lon="5.00424">
        <ele>303</ele>
        <time>2020-05-23T08:38:02Z</time>
      </trkpt>
      <trkpt lat="44.15829" lon="5.00423">
        <ele>303</ele>
        <time>2020-05-23T08:38:03Z</time>
      </trkpt>
      <trkpt lat="44.15826" lon="5.00419">
        <ele>302</ele>
        <time>2020-05-23T08:38:05Z</time>
      </trkpt>
      <trkpt lat="44.15811" lon="5.004">
        <ele>298</ele>
        <time>2020-05-23T08:38:15Z</time>
      </trkpt>
      <trkpt lat="44.1581" lon="5.00397">
        <ele>297</ele>
        <time>2020-05-23T08:38:16Z</time>
      </trkpt>
      <trkpt lat="44.15803" lon="5.00368">
        <ele>290</ele>
        <time>2020-05-23T08:38:24Z</time>
      </trkpt>
      <trkpt lat="44.15802" lon="5.0035">
        <ele>287</ele>
        <time>2020-05-23T08:38:30Z</time>
      </trkpt>
      <trkpt lat="44.15797" lon="5.0033">
        <ele>284</ele>
        <time>2020-05-23T08:38:37Z</time>
      </trkpt>
      <trkpt lat="44.15795" lon="5.00322">
        <ele>284</ele>
        <time>2020-05-23T08:38:39Z</time>
      </trkpt>
      <trkpt lat="44.15791" lon="5.00313">
        <ele>283</ele>
        <time>2020-05-23T08:38:42Z</time>
      </trkpt>
      <trkpt lat="44.1579" lon="5.00307">
        <ele>283</ele>
        <time>2020-05-23T08:38:44Z</time>
      </trkpt>
      <trkpt lat="44.15784" lon="5.00274">
        <ele>278</ele>
        <time>2020-05-23T08:38:56Z</time>
      </trkpt>
      <trkpt lat="44.15777" lon="5.0025">
        <ele>276</ele>
        <time>2020-05-23T08:39:07Z</time>
      </trkpt>
      <trkpt lat="44.15781" lon="5.00243">
        <ele>274</ele>
        <time>2020-05-23T08:39:16Z</time>
      </trkpt>
      <trkpt lat="44.15784" lon="5.00245">
        <ele>273</ele>
        <time>2020-05-23T08:39:26Z</time>
      </trkpt>
      <trkpt lat="44.15791" lon="5.0025">
        <ele>273</ele>
        <time>2020-05-23T08:39:31Z</time>
      </trkpt>
      <trkpt lat="44.15797" lon="5.00254">
        <ele>272</ele>
        <time>2020-05-23T08:39:34Z</time>
      </trkpt>
      <trkpt lat="44.15814" lon="5.00268">
        <ele>273</ele>
        <time>2020-05-23T08:39:41Z</time>
      </trkpt>
      <trkpt lat="44.15822" lon="5.00282">
        <ele>276</ele>
        <time>2020-05-23T08:39:47Z</time>
      </trkpt>
      <trkpt lat="44.15823" lon="5.00282">
        <ele>276</ele>
        <time>2020-05-23T08:39:48Z</time>
      </trkpt>
      <trkpt lat="44.15825" lon="5.00281">
        <ele>276</ele>
        <time>2020-05-23T08:39:49Z</time>
      </trkpt>
      <trkpt lat="44.15827" lon="5.00279">
        <ele>276</ele>
        <time>2020-05-23T08:39:50Z</time>
      </trkpt>
      <trkpt lat="44.15828" lon="5.00275">
        <ele>276</ele>
        <time>2020-05-23T08:39:51Z</time>
      </trkpt>
      <trkpt lat="44.1583" lon="5.00273">
        <ele>276</ele>
        <time>2020-05-23T08:39:52Z</time>
      </trkpt>
      <trkpt lat="44.15832" lon="5.00265">
        <ele>276</ele>
        <time>2020-05-23T08:39:55Z</time>
      </trkpt>
      <trkpt lat="44.15839" lon="5.00241">
        <ele>275</ele>
        <time>2020-05-23T08:40:05Z</time>
      </trkpt>
      <trkpt lat="44.15857" lon="5.00231">
        <ele>278</ele>
        <time>2020-05-23T08:40:14Z</time>
      </trkpt>
      <trkpt lat="44.15862" lon="5.00228">
        <ele>279</ele>
        <time>2020-05-23T08:40:17Z</time>
      </trkpt>
      <trkpt lat="44.15864" lon="5.00228">
        <ele>279</ele>
        <time>2020-05-23T08:40:18Z</time>
      </trkpt>
      <trkpt lat="44.15865" lon="5.00227">
        <ele>279</ele>
        <time>2020-05-23T08:40:19Z</time>
      </trkpt>
      <trkpt lat="44.15867" lon="5.00226">
        <ele>279</ele>
        <time>2020-05-23T08:40:20Z</time>
      </trkpt>
      <trkpt lat="44.15868" lon="5.00225">
        <ele>279</ele>
        <time>2020-05-23T08:40:21Z</time>
      </trkpt>
      <trkpt lat="44.1587" lon="5.00224">
        <ele>279</ele>
        <time>2020-05-23T08:40:22Z</time>
      </trkpt>
      <trkpt lat="44.15872" lon="5.00223">
        <ele>279</ele>
        <time>2020-05-23T08:40:23Z</time>
      </trkpt>
      <trkpt lat="44.15884" lon="5.00218">
        <ele>279</ele>
        <time>2020-05-23T08:40:30Z</time>
      </trkpt>
      <trkpt lat="44.15885" lon="5.00218">
        <ele>279</ele>
        <time>2020-05-23T08:40:31Z</time>
      </trkpt>
      <trkpt lat="44.15886" lon="5.00219">
        <ele>279</ele>
        <time>2020-05-23T08:40:32Z</time>
      </trkpt>
      <trkpt lat="44.15898" lon="5.00225">
        <ele>281</ele>
        <time>2020-05-23T08:40:42Z</time>
      </trkpt>
      <trkpt lat="44.15914" lon="5.0023">
        <ele>282</ele>
        <time>2020-05-23T08:40:51Z</time>
      </trkpt>
      <trkpt lat="44.15934" lon="5.00237">
        <ele>285</ele>
        <time>2020-05-23T08:41:01Z</time>
      </trkpt>
      <trkpt lat="44.15954" lon="5.0024">
        <ele>286</ele>
        <time>2020-05-23T08:41:11Z</time>
      </trkpt>
      <trkpt lat="44.15964" lon="5.00238">
        <ele>286</ele>
        <time>2020-05-23T08:41:17Z</time>
      </trkpt>
      <trkpt lat="44.15964" lon="5.00236">
        <ele>285</ele>
        <time>2020-05-23T08:41:18Z</time>
      </trkpt>
      <trkpt lat="44.15965" lon="5.00234">
        <ele>285</ele>
        <time>2020-05-23T08:41:19Z</time>
      </trkpt>
      <trkpt lat="44.15964" lon="5.00204">
        <ele>283</ele>
        <time>2020-05-23T08:41:28Z</time>
      </trkpt>
      <trkpt lat="44.15964" lon="5.00177">
        <ele>281</ele>
        <time>2020-05-23T08:41:36Z</time>
      </trkpt>
      <trkpt lat="44.15963" lon="5.00168">
        <ele>280</ele>
        <time>2020-05-23T08:41:39Z</time>
      </trkpt>
      <trkpt lat="44.15961" lon="5.00166">
        <ele>280</ele>
        <time>2020-05-23T08:41:40Z</time>
      </trkpt>
      <trkpt lat="44.15959" lon="5.00165">
        <ele>280</ele>
        <time>2020-05-23T08:41:41Z</time>
      </trkpt>
      <trkpt lat="44.15957" lon="5.00163">
        <ele>280</ele>
        <time>2020-05-23T08:41:42Z</time>
      </trkpt>
      <trkpt lat="44.15954" lon="5.00162">
        <ele>279</ele>
        <time>2020-05-23T08:41:43Z</time>
      </trkpt>
      <trkpt lat="44.15952" lon="5.00161">
        <ele>279</ele>
        <time>2020-05-23T08:41:44Z</time>
      </trkpt>
      <trkpt lat="44.15951" lon="5.00159">
        <ele>279</ele>
        <time>2020-05-23T08:41:45Z</time>
      </trkpt>
      <trkpt lat="44.15949" lon="5.00158">
        <ele>279</ele>
        <time>2020-05-23T08:41:46Z</time>
      </trkpt>
      <trkpt lat="44.15949" lon="5.00156">
        <ele>278</ele>
        <time>2020-05-23T08:41:47Z</time>
      </trkpt>
      <trkpt lat="44.1595" lon="5.00155">
        <ele>278</ele>
        <time>2020-05-23T08:41:48Z</time>
      </trkpt>
      <trkpt lat="44.15951" lon="5.00153">
        <ele>278</ele>
        <time>2020-05-23T08:41:49Z</time>
      </trkpt>
      <trkpt lat="44.15953" lon="5.00153">
        <ele>278</ele>
        <time>2020-05-23T08:41:50Z</time>
      </trkpt>
      <trkpt lat="44.15955" lon="5.00153">
        <ele>279</ele>
        <time>2020-05-23T08:41:51Z</time>
      </trkpt>
      <trkpt lat="44.15957" lon="5.00153">
        <ele>279</ele>
        <time>2020-05-23T08:41:52Z</time>
      </trkpt>
      <trkpt lat="44.15959" lon="5.00153">
        <ele>279</ele>
        <time>2020-05-23T08:41:53Z</time>
      </trkpt>
      <trkpt lat="44.15962" lon="5.00153">
        <ele>279</ele>
        <time>2020-05-23T08:41:54Z</time>
      </trkpt>
      <trkpt lat="44.15965" lon="5.00152">
        <ele>279</ele>
        <time>2020-05-23T08:41:55Z</time>
      </trkpt>
      <trkpt lat="44.15967" lon="5.00151">
        <ele>279</ele>
        <time>2020-05-23T08:41:56Z</time>
      </trkpt>
      <trkpt lat="44.15978" lon="5.00131">
        <ele>277</ele>
        <time>2020-05-23T08:42:03Z</time>
      </trkpt>
      <trkpt lat="44.15981" lon="5.00111">
        <ele>275</ele>
        <time>2020-05-23T08:42:09Z</time>
      </trkpt>
      <trkpt lat="44.15996" lon="5.00088">
        <ele>274</ele>
        <time>2020-05-23T08:42:18Z</time>
      </trkpt>
      <trkpt lat="44.15997" lon="5.00085">
        <ele>274</ele>
        <time>2020-05-23T08:42:19Z</time>
      </trkpt>
      <trkpt lat="44.15997" lon="5.00083">
        <ele>273</ele>
        <time>2020-05-23T08:42:20Z</time>
      </trkpt>
      <trkpt lat="44.15995" lon="5.00079">
        <ele>272</ele>
        <time>2020-05-23T08:42:21Z</time>
      </trkpt>
      <trkpt lat="44.15972" lon="5.00057">
        <ele>261</ele>
        <time>2020-05-23T08:42:30Z</time>
      </trkpt>
      <trkpt lat="44.15961" lon="5.00049">
        <ele>261</ele>
        <time>2020-05-23T08:42:35Z</time>
      </trkpt>
      <trkpt lat="44.15959" lon="5.00046">
        <ele>261</ele>
        <time>2020-05-23T08:42:36Z</time>
      </trkpt>
      <trkpt lat="44.15957" lon="5.00043">
        <ele>260</ele>
        <time>2020-05-23T08:42:37Z</time>
      </trkpt>
      <trkpt lat="44.15955" lon="5.00041">
        <ele>260</ele>
        <time>2020-05-23T08:42:38Z</time>
      </trkpt>
      <trkpt lat="44.15954" lon="5.00038">
        <ele>260</ele>
        <time>2020-05-23T08:42:39Z</time>
      </trkpt>
      <trkpt lat="44.15952" lon="5.00036">
        <ele>259</ele>
        <time>2020-05-23T08:42:40Z</time>
      </trkpt>
      <trkpt lat="44.1595" lon="5.00033">
        <ele>259</ele>
        <time>2020-05-23T08:42:41Z</time>
      </trkpt>
      <trkpt lat="44.15948" lon="5.00031">
        <ele>258</ele>
        <time>2020-05-23T08:42:42Z</time>
      </trkpt>
      <trkpt lat="44.15946" lon="5.00029">
        <ele>258</ele>
        <time>2020-05-23T08:42:43Z</time>
      </trkpt>
      <trkpt lat="44.15944" lon="5.00026">
        <ele>258</ele>
        <time>2020-05-23T08:42:44Z</time>
      </trkpt>
      <trkpt lat="44.15942" lon="5.00024">
        <ele>259</ele>
        <time>2020-05-23T08:42:45Z</time>
      </trkpt>
      <trkpt lat="44.15922" lon="4.99995">
        <ele>261</ele>
        <time>2020-05-23T08:42:55Z</time>
      </trkpt>
      <trkpt lat="44.15913" lon="4.99977">
        <ele>259</ele>
        <time>2020-05-23T08:43:00Z</time>
      </trkpt>
      <trkpt lat="44.15894" lon="4.99967">
        <ele>259</ele>
        <time>2020-05-23T08:43:08Z</time>
      </trkpt>
      <trkpt lat="44.15873" lon="4.99958">
        <ele>261</ele>
        <time>2020-05-23T08:43:17Z</time>
      </trkpt>
      <trkpt lat="44.15855" lon="4.99949">
        <ele>263</ele>
        <time>2020-05-23T08:43:25Z</time>
      </trkpt>
      <trkpt lat="44.15834" lon="4.99935">
        <ele>265</ele>
        <time>2020-05-23T08:43:33Z</time>
      </trkpt>
      <trkpt lat="44.15814" lon="4.99918">
        <ele>265</ele>
        <time>2020-05-23T08:43:42Z</time>
      </trkpt>
      <trkpt lat="44.15803" lon="4.99902">
        <ele>263</ele>
        <time>2020-05-23T08:43:48Z</time>
      </trkpt>
      <trkpt lat="44.15802" lon="4.99899">
        <ele>262</ele>
        <time>2020-05-23T08:43:49Z</time>
      </trkpt>
      <trkpt lat="44.158" lon="4.99895">
        <ele>262</ele>
        <time>2020-05-23T08:43:50Z</time>
      </trkpt>
      <trkpt lat="44.15799" lon="4.99892">
        <ele>262</ele>
        <time>2020-05-23T08:43:51Z</time>
      </trkpt>
      <trkpt lat="44.15798" lon="4.99888">
        <ele>261</ele>
        <time>2020-05-23T08:43:52Z</time>
      </trkpt>
      <trkpt lat="44.15797" lon="4.99885">
        <ele>261</ele>
        <time>2020-05-23T08:43:53Z</time>
      </trkpt>
      <trkpt lat="44.15796" lon="4.99881">
        <ele>260</ele>
        <time>2020-05-23T08:43:54Z</time>
      </trkpt>
      <trkpt lat="44.15795" lon="4.99877">
        <ele>260</ele>
        <time>2020-05-23T08:43:55Z</time>
      </trkpt>
      <trkpt lat="44.15785" lon="4.99842">
        <ele>257</ele>
        <time>2020-05-23T08:44:04Z</time>
      </trkpt>
      <trkpt lat="44.15763" lon="4.99825">
        <ele>257</ele>
        <time>2020-05-23T08:44:12Z</time>
      </trkpt>
      <trkpt lat="44.15735" lon="4.99825">
        <ele>258</ele>
        <time>2020-05-23T08:44:22Z</time>
      </trkpt>
      <trkpt lat="44.15711" lon="4.9983">
        <ele>258</ele>
        <time>2020-05-23T08:44:31Z</time>
      </trkpt>
      <trkpt lat="44.15683" lon="4.99833">
        <ele>258</ele>
        <time>2020-05-23T08:44:41Z</time>
      </trkpt>
      <trkpt lat="44.15654" lon="4.99834">
        <ele>256</ele>
        <time>2020-05-23T08:44:51Z</time>
      </trkpt>
      <trkpt lat="44.15631" lon="4.9984">
        <ele>255</ele>
        <time>2020-05-23T08:44:59Z</time>
      </trkpt>
      <trkpt lat="44.15605" lon="4.99847">
        <ele>254</ele>
        <time>2020-05-23T08:45:08Z</time>
      </trkpt>
      <trkpt lat="44.15579" lon="4.99855">
        <ele>252</ele>
        <time>2020-05-23T08:45:17Z</time>
      </trkpt>
      <trkpt lat="44.15555" lon="4.99861">
        <ele>249</ele>
        <time>2020-05-23T08:45:26Z</time>
      </trkpt>
      <trkpt lat="44.15534" lon="4.99864">
        <ele>246</ele>
        <time>2020-05-23T08:45:35Z</time>
      </trkpt>
      <trkpt lat="44.15517" lon="4.99863">
        <ele>243</ele>
        <time>2020-05-23T08:45:44Z</time>
      </trkpt>
      <trkpt lat="44.15512" lon="4.9986">
        <ele>243</ele>
        <time>2020-05-23T08:45:46Z</time>
      </trkpt>
      <trkpt lat="44.1551" lon="4.99858">
        <ele>242</ele>
        <time>2020-05-23T08:45:47Z</time>
      </trkpt>
      <trkpt lat="44.15509" lon="4.99855">
        <ele>242</ele>
        <time>2020-05-23T08:45:48Z</time>
      </trkpt>
      <trkpt lat="44.15507" lon="4.99852">
        <ele>242</ele>
        <time>2020-05-23T08:45:49Z</time>
      </trkpt>
      <trkpt lat="44.15506" lon="4.99848">
        <ele>241</ele>
        <time>2020-05-23T08:45:50Z</time>
      </trkpt>
      <trkpt lat="44.15505" lon="4.99845">
        <ele>241</ele>
        <time>2020-05-23T08:45:51Z</time>
      </trkpt>
      <trkpt lat="44.15499" lon="4.99814">
        <ele>241</ele>
        <time>2020-05-23T08:46:00Z</time>
      </trkpt>
      <trkpt lat="44.1549" lon="4.99783">
        <ele>240</ele>
        <time>2020-05-23T08:46:09Z</time>
      </trkpt>
      <trkpt lat="44.15479" lon="4.99742">
        <ele>238</ele>
        <time>2020-05-23T08:46:20Z</time>
      </trkpt>
      <trkpt lat="44.1547" lon="4.99716">
        <ele>236</ele>
        <time>2020-05-23T08:46:28Z</time>
      </trkpt>
      <trkpt lat="44.15462" lon="4.99688">
        <ele>234</ele>
        <time>2020-05-23T08:46:36Z</time>
      </trkpt>
      <trkpt lat="44.15462" lon="4.9966">
        <ele>232</ele>
        <time>2020-05-23T08:46:44Z</time>
      </trkpt>
      <trkpt lat="44.15465" lon="4.99659">
        <ele>232</ele>
        <time>2020-05-23T08:46:45Z</time>
      </trkpt>
      <trkpt lat="44.15489" lon="4.99653">
        <ele>236</ele>
        <time>2020-05-23T08:46:54Z</time>
      </trkpt>
      <trkpt lat="44.15521" lon="4.9965">
        <ele>238</ele>
        <time>2020-05-23T08:47:05Z</time>
      </trkpt>
      <trkpt lat="44.15551" lon="4.99642">
        <ele>238</ele>
        <time>2020-05-23T08:47:16Z</time>
      </trkpt>
      <trkpt lat="44.1558" lon="4.99623">
        <ele>238</ele>
        <time>2020-05-23T08:47:27Z</time>
      </trkpt>
      <trkpt lat="44.15604" lon="4.99602">
        <ele>236</ele>
        <time>2020-05-23T08:47:37Z</time>
      </trkpt>
      <trkpt lat="44.1563" lon="4.9958">
        <ele>235</ele>
        <time>2020-05-23T08:47:48Z</time>
      </trkpt>
      <trkpt lat="44.15653" lon="4.9956">
        <ele>234</ele>
        <time>2020-05-23T08:47:57Z</time>
      </trkpt>
      <trkpt lat="44.15675" lon="4.9954">
        <ele>232</ele>
        <time>2020-05-23T08:48:06Z</time>
      </trkpt>
      <trkpt lat="44.1567" lon="4.99536">
        <ele>232</ele>
        <time>2020-05-23T08:48:28Z</time>
      </trkpt>
      <trkpt lat="44.15669" lon="4.99535">
        <ele>232</ele>
        <time>2020-05-23T08:48:31Z</time>
      </trkpt>
      <trkpt lat="44.15663" lon="4.99533">
        <ele>232</ele>
        <time>2020-05-23T08:48:40Z</time>
      </trkpt>
      <trkpt lat="44.15662" lon="4.99532">
        <ele>232</ele>
        <time>2020-05-23T08:48:41Z</time>
      </trkpt>
      <trkpt lat="44.15659" lon="4.99531">
        <ele>232</ele>
        <time>2020-05-23T08:48:42Z</time>
      </trkpt>
      <trkpt lat="44.15657" lon="4.99528">
        <ele>232</ele>
        <time>2020-05-23T08:48:43Z</time>
      </trkpt>
      <trkpt lat="44.15655" lon="4.99526">
        <ele>232</ele>
        <time>2020-05-23T08:48:44Z</time>
      </trkpt>
      <trkpt lat="44.15654" lon="4.99523">
        <ele>231</ele>
        <time>2020-05-23T08:48:45Z</time>
      </trkpt>
      <trkpt lat="44.15652" lon="4.9952">
        <ele>231</ele>
        <time>2020-05-23T08:48:46Z</time>
      </trkpt>
      <trkpt lat="44.15651" lon="4.99517">
        <ele>231</ele>
        <time>2020-05-23T08:48:47Z</time>
      </trkpt>
      <trkpt lat="44.15643" lon="4.99497">
        <ele>229</ele>
        <time>2020-05-23T08:48:53Z</time>
      </trkpt>
      <trkpt lat="44.15633" lon="4.99477">
        <ele>226</ele>
        <time>2020-05-23T08:48:59Z</time>
      </trkpt>
      <trkpt lat="44.15632" lon="4.99474">
        <ele>225</ele>
        <time>2020-05-23T08:49:00Z</time>
      </trkpt>
      <trkpt lat="44.1563" lon="4.99471">
        <ele>225</ele>
        <time>2020-05-23T08:49:01Z</time>
      </trkpt>
      <trkpt lat="44.15628" lon="4.99468">
        <ele>225</ele>
        <time>2020-05-23T08:49:02Z</time>
      </trkpt>
      <trkpt lat="44.15626" lon="4.99464">
        <ele>224</ele>
        <time>2020-05-23T08:49:03Z</time>
      </trkpt>
      <trkpt lat="44.15625" lon="4.99461">
        <ele>224</ele>
        <time>2020-05-23T08:49:04Z</time>
      </trkpt>
      <trkpt lat="44.15617" lon="4.99441">
        <ele>222</ele>
        <time>2020-05-23T08:49:09Z</time>
      </trkpt>
      <trkpt lat="44.15605" lon="4.99418">
        <ele>220</ele>
        <time>2020-05-23T08:49:16Z</time>
      </trkpt>
      <trkpt lat="44.15599" lon="4.99415">
        <ele>220</ele>
        <time>2020-05-23T08:49:19Z</time>
      </trkpt>
      <trkpt lat="44.15599" lon="4.99413">
        <ele>220</ele>
        <time>2020-05-23T08:49:20Z</time>
      </trkpt>
      <trkpt lat="44.15599" lon="4.99411">
        <ele>220</ele>
        <time>2020-05-23T08:49:21Z</time>
      </trkpt>
      <trkpt lat="44.15601" lon="4.99409">
        <ele>220</ele>
        <time>2020-05-23T08:49:22Z</time>
      </trkpt>
      <trkpt lat="44.15603" lon="4.99409">
        <ele>221</ele>
        <time>2020-05-23T08:49:23Z</time>
      </trkpt>
      <trkpt lat="44.15604" lon="4.99408">
        <ele>221</ele>
        <time>2020-05-23T08:49:24Z</time>
      </trkpt>
      <trkpt lat="44.15606" lon="4.99407">
        <ele>221</ele>
        <time>2020-05-23T08:49:25Z</time>
      </trkpt>
      <trkpt lat="44.15607" lon="4.99406">
        <ele>221</ele>
        <time>2020-05-23T08:49:26Z</time>
      </trkpt>
      <trkpt lat="44.15623" lon="4.99393">
        <ele>221</ele>
        <time>2020-05-23T08:49:35Z</time>
      </trkpt>
      <trkpt lat="44.15629" lon="4.99386">
        <ele>221</ele>
        <time>2020-05-23T08:49:39Z</time>
      </trkpt>
      <trkpt lat="44.1563" lon="4.99384">
        <ele>221</ele>
        <time>2020-05-23T08:49:40Z</time>
      </trkpt>
      <trkpt lat="44.15631" lon="4.99383">
        <ele>221</ele>
        <time>2020-05-23T08:49:41Z</time>
      </trkpt>
      <trkpt lat="44.15636" lon="4.99377">
        <ele>220</ele>
        <time>2020-05-23T08:49:51Z</time>
      </trkpt>
      <trkpt lat="44.15648" lon="4.99367">
        <ele>219</ele>
        <time>2020-05-23T08:50:00Z</time>
      </trkpt>
      <trkpt lat="44.15661" lon="4.99356">
        <ele>218</ele>
        <time>2020-05-23T08:50:08Z</time>
      </trkpt>
      <trkpt lat="44.15662" lon="4.99354">
        <ele>217</ele>
        <time>2020-05-23T08:50:09Z</time>
      </trkpt>
      <trkpt lat="44.15663" lon="4.99352">
        <ele>217</ele>
        <time>2020-05-23T08:50:10Z</time>
      </trkpt>
      <trkpt lat="44.15664" lon="4.9935">
        <ele>217</ele>
        <time>2020-05-23T08:50:11Z</time>
      </trkpt>
      <trkpt lat="44.15666" lon="4.99345">
        <ele>217</ele>
        <time>2020-05-23T08:50:17Z</time>
      </trkpt>
      <trkpt lat="44.15662" lon="4.99345">
        <ele>217</ele>
        <time>2020-05-23T08:50:26Z</time>
      </trkpt>
      <trkpt lat="44.15656" lon="4.99338">
        <ele>218</ele>
        <time>2020-05-23T08:50:36Z</time>
      </trkpt>
      <trkpt lat="44.15649" lon="4.99331">
        <ele>219</ele>
        <time>2020-05-23T08:50:48Z</time>
      </trkpt>
      <trkpt lat="44.15641" lon="4.99329">
        <ele>221</ele>
        <time>2020-05-23T08:50:58Z</time>
      </trkpt>
      <trkpt lat="44.15632" lon="4.99334">
        <ele>222</ele>
        <time>2020-05-23T08:51:11Z</time>
      </trkpt>
      <trkpt lat="44.15631" lon="4.99336">
        <ele>222</ele>
        <time>2020-05-23T08:51:12Z</time>
      </trkpt>
      <trkpt lat="44.15626" lon="4.9934">
        <ele>223</ele>
        <time>2020-05-23T08:51:19Z</time>
      </trkpt>
      <trkpt lat="44.1562" lon="4.99338">
        <ele>224</ele>
        <time>2020-05-23T08:51:23Z</time>
      </trkpt>
      <trkpt lat="44.15615" lon="4.9934">
        <ele>225</ele>
        <time>2020-05-23T08:51:27Z</time>
      </trkpt>
      <trkpt lat="44.15612" lon="4.99341">
        <ele>225</ele>
        <time>2020-05-23T08:51:31Z</time>
      </trkpt>
      <trkpt lat="44.15605" lon="4.99341">
        <ele>226</ele>
        <time>2020-05-23T08:51:38Z</time>
      </trkpt>
      <trkpt lat="44.15598" lon="4.99336">
        <ele>228</ele>
        <time>2020-05-23T08:51:46Z</time>
      </trkpt>
      <trkpt lat="44.15589" lon="4.99326">
        <ele>231</ele>
        <time>2020-05-23T08:51:57Z</time>
      </trkpt>
      <trkpt lat="44.15588" lon="4.99323">
        <ele>232</ele>
        <time>2020-05-23T08:52:00Z</time>
      </trkpt>
      <trkpt lat="44.15587" lon="4.99315">
        <ele>233</ele>
        <time>2020-05-23T08:52:08Z</time>
      </trkpt>
      <trkpt lat="44.15589" lon="4.99314">
        <ele>232</ele>
        <time>2020-05-23T08:52:11Z</time>
      </trkpt>
      <trkpt lat="44.15592" lon="4.99304">
        <ele>233</ele>
        <time>2020-05-23T08:52:20Z</time>
      </trkpt>
      <trkpt lat="44.15591" lon="4.99293">
        <ele>234</ele>
        <time>2020-05-23T08:52:30Z</time>
      </trkpt>
      <trkpt lat="44.15588" lon="4.99282">
        <ele>236</ele>
        <time>2020-05-23T08:52:39Z</time>
      </trkpt>
      <trkpt lat="44.15585" lon="4.99278">
        <ele>238</ele>
        <time>2020-05-23T08:52:43Z</time>
      </trkpt>
      <trkpt lat="44.15583" lon="4.99277">
        <ele>238</ele>
        <time>2020-05-23T08:52:44Z</time>
      </trkpt>
      <trkpt lat="44.15582" lon="4.99276">
        <ele>239</ele>
        <time>2020-05-23T08:52:45Z</time>
      </trkpt>
      <trkpt lat="44.15579" lon="4.99274">
        <ele>239</ele>
        <time>2020-05-23T08:52:48Z</time>
      </trkpt>
      <trkpt lat="44.15575" lon="4.99266">
        <ele>240</ele>
        <time>2020-05-23T08:52:57Z</time>
      </trkpt>
      <trkpt lat="44.1557" lon="4.99261">
        <ele>241</ele>
        <time>2020-05-23T08:53:03Z</time>
      </trkpt>
      <trkpt lat="44.15569" lon="4.9926">
        <ele>241</ele>
        <time>2020-05-23T08:53:04Z</time>
      </trkpt>
      <trkpt lat="44.15563" lon="4.99257">
        <ele>242</ele>
        <time>2020-05-23T08:53:09Z</time>
      </trkpt>
      <trkpt lat="44.1556" lon="4.99254">
        <ele>242</ele>
        <time>2020-05-23T08:53:13Z</time>
      </trkpt>
      <trkpt lat="44.15558" lon="4.99252">
        <ele>243</ele>
        <time>2020-05-23T08:53:14Z</time>
      </trkpt>
      <trkpt lat="44.15556" lon="4.99251">
        <ele>243</ele>
        <time>2020-05-23T08:53:15Z</time>
      </trkpt>
      <trkpt lat="44.15554" lon="4.99249">
        <ele>243</ele>
        <time>2020-05-23T08:53:16Z</time>
      </trkpt>
      <trkpt lat="44.15552" lon="4.99247">
        <ele>243</ele>
        <time>2020-05-23T08:53:17Z</time>
      </trkpt>
      <trkpt lat="44.1555" lon="4.99245">
        <ele>243</ele>
        <time>2020-05-23T08:53:18Z</time>
      </trkpt>
      <trkpt lat="44.15548" lon="4.99244">
        <ele>242</ele>
        <time>2020-05-23T08:53:19Z</time>
      </trkpt>
      <trkpt lat="44.15546" lon="4.99242">
        <ele>242</ele>
        <time>2020-05-23T08:53:20Z</time>
      </trkpt>
      <trkpt lat="44.15544" lon="4.99241">
        <ele>242</ele>
        <time>2020-05-23T08:53:21Z</time>
      </trkpt>
      <trkpt lat="44.15542" lon="4.99239">
        <ele>242</ele>
        <time>2020-05-23T08:53:22Z</time>
      </trkpt>
      <trkpt lat="44.15524" lon="4.99224">
        <ele>242</ele>
        <time>2020-05-23T08:53:31Z</time>
      </trkpt>
      <trkpt lat="44.15501" lon="4.99206">
        <ele>243</ele>
        <time>2020-05-23T08:53:41Z</time>
      </trkpt>
      <trkpt lat="44.15475" lon="4.99188">
        <ele>243</ele>
        <time>2020-05-23T08:53:52Z</time>
      </trkpt>
      <trkpt lat="44.15473" lon="4.99187">
        <ele>244</ele>
        <time>2020-05-23T08:53:53Z</time>
      </trkpt>
      <trkpt lat="44.15462" lon="4.99187">
        <ele>244</ele>
        <time>2020-05-23T08:53:58Z</time>
      </trkpt>
      <trkpt lat="44.15461" lon="4.99185">
        <ele>244</ele>
        <time>2020-05-23T08:53:59Z</time>
      </trkpt>
      <trkpt lat="44.15446" lon="4.99171">
        <ele>246</ele>
        <time>2020-05-23T08:54:07Z</time>
      </trkpt>
      <trkpt lat="44.15445" lon="4.99169">
        <ele>246</ele>
        <time>2020-05-23T08:54:08Z</time>
      </trkpt>
      <trkpt lat="44.15443" lon="4.99168">
        <ele>247</ele>
        <time>2020-05-23T08:54:09Z</time>
      </trkpt>
      <trkpt lat="44.15441" lon="4.99167">
        <ele>247</ele>
        <time>2020-05-23T08:54:10Z</time>
      </trkpt>
      <trkpt lat="44.15439" lon="4.99166">
        <ele>247</ele>
        <time>2020-05-23T08:54:11Z</time>
      </trkpt>
      <trkpt lat="44.15437" lon="4.99164">
        <ele>247</ele>
        <time>2020-05-23T08:54:12Z</time>
      </trkpt>
      <trkpt lat="44.15435" lon="4.99161">
        <ele>246</ele>
        <time>2020-05-23T08:54:13Z</time>
      </trkpt>
      <trkpt lat="44.15433" lon="4.99159">
        <ele>246</ele>
        <time>2020-05-23T08:54:14Z</time>
      </trkpt>
      <trkpt lat="44.15431" lon="4.99157">
        <ele>246</ele>
        <time>2020-05-23T08:54:15Z</time>
      </trkpt>
      <trkpt lat="44.15428" lon="4.99155">
        <ele>246</ele>
        <time>2020-05-23T08:54:16Z</time>
      </trkpt>
      <trkpt lat="44.15426" lon="4.99154">
        <ele>246</ele>
        <time>2020-05-23T08:54:17Z</time>
      </trkpt>
      <trkpt lat="44.15423" lon="4.99153">
        <ele>246</ele>
        <time>2020-05-23T08:54:18Z</time>
      </trkpt>
      <trkpt lat="44.15421" lon="4.99152">
        <ele>246</ele>
        <time>2020-05-23T08:54:19Z</time>
      </trkpt>
      <trkpt lat="44.15413" lon="4.99146">
        <ele>245</ele>
        <time>2020-05-23T08:54:23Z</time>
      </trkpt>
      <trkpt lat="44.15394" lon="4.99135">
        <ele>243</ele>
        <time>2020-05-23T08:54:32Z</time>
      </trkpt>
      <trkpt lat="44.15392" lon="4.99134">
        <ele>243</ele>
        <time>2020-05-23T08:54:33Z</time>
      </trkpt>
      <trkpt lat="44.15391" lon="4.99132">
        <ele>243</ele>
        <time>2020-05-23T08:54:34Z</time>
      </trkpt>
      <trkpt lat="44.15389" lon="4.9913">
        <ele>243</ele>
        <time>2020-05-23T08:54:35Z</time>
      </trkpt>
      <trkpt lat="44.15387" lon="4.99128">
        <ele>243</ele>
        <time>2020-05-23T08:54:36Z</time>
      </trkpt>
      <trkpt lat="44.15385" lon="4.99127">
        <ele>242</ele>
        <time>2020-05-23T08:54:37Z</time>
      </trkpt>
      <trkpt lat="44.15382" lon="4.99126">
        <ele>242</ele>
        <time>2020-05-23T08:54:38Z</time>
      </trkpt>
      <trkpt lat="44.15363" lon="4.99121">
        <ele>243</ele>
        <time>2020-05-23T08:54:47Z</time>
      </trkpt>
      <trkpt lat="44.15344" lon="4.99114">
        <ele>243</ele>
        <time>2020-05-23T08:54:55Z</time>
      </trkpt>
      <trkpt lat="44.15332" lon="4.99112">
        <ele>243</ele>
        <time>2020-05-23T08:55:00Z</time>
      </trkpt>
      <trkpt lat="44.1533" lon="4.9911">
        <ele>243</ele>
        <time>2020-05-23T08:55:01Z</time>
      </trkpt>
      <trkpt lat="44.15307" lon="4.99103">
        <ele>243</ele>
        <time>2020-05-23T08:55:11Z</time>
      </trkpt>
      <trkpt lat="44.15289" lon="4.99098">
        <ele>244</ele>
        <time>2020-05-23T08:55:20Z</time>
      </trkpt>
      <trkpt lat="44.15286" lon="4.99099">
        <ele>244</ele>
        <time>2020-05-23T08:55:21Z</time>
      </trkpt>
      <trkpt lat="44.15284" lon="4.99099">
        <ele>244</ele>
        <time>2020-05-23T08:55:22Z</time>
      </trkpt>
      <trkpt lat="44.15281" lon="4.99099">
        <ele>244</ele>
        <time>2020-05-23T08:55:23Z</time>
      </trkpt>
      <trkpt lat="44.15278" lon="4.99098">
        <ele>244</ele>
        <time>2020-05-23T08:55:24Z</time>
      </trkpt>
      <trkpt lat="44.15267" lon="4.99094">
        <ele>245</ele>
        <time>2020-05-23T08:55:28Z</time>
      </trkpt>
      <trkpt lat="44.15265" lon="4.99094">
        <ele>245</ele>
        <time>2020-05-23T08:55:29Z</time>
      </trkpt>
      <trkpt lat="44.15262" lon="4.99093">
        <ele>245</ele>
        <time>2020-05-23T08:55:30Z</time>
      </trkpt>
      <trkpt lat="44.1526" lon="4.99092">
        <ele>245</ele>
        <time>2020-05-23T08:55:31Z</time>
      </trkpt>
      <trkpt lat="44.15259" lon="4.9909">
        <ele>246</ele>
        <time>2020-05-23T08:55:32Z</time>
      </trkpt>
      <trkpt lat="44.15256" lon="4.99088">
        <ele>246</ele>
        <time>2020-05-23T08:55:33Z</time>
      </trkpt>
      <trkpt lat="44.15254" lon="4.99086">
        <ele>246</ele>
        <time>2020-05-23T08:55:34Z</time>
      </trkpt>
      <trkpt lat="44.15252" lon="4.99085">
        <ele>247</ele>
        <time>2020-05-23T08:55:35Z</time>
      </trkpt>
      <trkpt lat="44.15231" lon="4.99079">
        <ele>246</ele>
        <time>2020-05-23T08:55:43Z</time>
      </trkpt>
      <trkpt lat="44.15229" lon="4.99077">
        <ele>245</ele>
        <time>2020-05-23T08:55:44Z</time>
      </trkpt>
      <trkpt lat="44.15225" lon="4.99073">
        <ele>244</ele>
        <time>2020-05-23T08:55:46Z</time>
      </trkpt>
      <trkpt lat="44.15211" lon="4.99069">
        <ele>243</ele>
        <time>2020-05-23T08:55:52Z</time>
      </trkpt>
      <trkpt lat="44.15189" lon="4.99066">
        <ele>242</ele>
        <time>2020-05-23T08:56:03Z</time>
      </trkpt>
      <trkpt lat="44.15161" lon="4.9906">
        <ele>241</ele>
        <time>2020-05-23T08:56:13Z</time>
      </trkpt>
      <trkpt lat="44.15141" lon="4.99054">
        <ele>239</ele>
        <time>2020-05-23T08:56:21Z</time>
      </trkpt>
      <trkpt lat="44.15139" lon="4.99052">
        <ele>238</ele>
        <time>2020-05-23T08:56:22Z</time>
      </trkpt>
      <trkpt lat="44.15137" lon="4.9905">
        <ele>238</ele>
        <time>2020-05-23T08:56:23Z</time>
      </trkpt>
      <trkpt lat="44.15135" lon="4.99049">
        <ele>238</ele>
        <time>2020-05-23T08:56:24Z</time>
      </trkpt>
      <trkpt lat="44.15133" lon="4.99049">
        <ele>238</ele>
        <time>2020-05-23T08:56:25Z</time>
      </trkpt>
      <trkpt lat="44.15131" lon="4.9905">
        <ele>238</ele>
        <time>2020-05-23T08:56:26Z</time>
      </trkpt>
      <trkpt lat="44.15128" lon="4.9905">
        <ele>237</ele>
        <time>2020-05-23T08:56:27Z</time>
      </trkpt>
      <trkpt lat="44.15126" lon="4.99049">
        <ele>237</ele>
        <time>2020-05-23T08:56:28Z</time>
      </trkpt>
      <trkpt lat="44.15124" lon="4.99047">
        <ele>237</ele>
        <time>2020-05-23T08:56:29Z</time>
      </trkpt>
      <trkpt lat="44.15107" lon="4.99047">
        <ele>236</ele>
        <time>2020-05-23T08:56:37Z</time>
      </trkpt>
      <trkpt lat="44.15104" lon="4.99046">
        <ele>236</ele>
        <time>2020-05-23T08:56:38Z</time>
      </trkpt>
      <trkpt lat="44.15101" lon="4.99045">
        <ele>236</ele>
        <time>2020-05-23T08:56:39Z</time>
      </trkpt>
      <trkpt lat="44.15099" lon="4.99045">
        <ele>235</ele>
        <time>2020-05-23T08:56:40Z</time>
      </trkpt>
      <trkpt lat="44.15096" lon="4.99045">
        <ele>235</ele>
        <time>2020-05-23T08:56:41Z</time>
      </trkpt>
      <trkpt lat="44.15094" lon="4.99045">
        <ele>235</ele>
        <time>2020-05-23T08:56:42Z</time>
      </trkpt>
      <trkpt lat="44.15084" lon="4.99041">
        <ele>235</ele>
        <time>2020-05-23T08:56:48Z</time>
      </trkpt>
      <trkpt lat="44.15082" lon="4.99042">
        <ele>234</ele>
        <time>2020-05-23T08:56:49Z</time>
      </trkpt>
      <trkpt lat="44.1508" lon="4.99043">
        <ele>234</ele>
        <time>2020-05-23T08:56:50Z</time>
      </trkpt>
      <trkpt lat="44.15078" lon="4.99043">
        <ele>234</ele>
        <time>2020-05-23T08:56:51Z</time>
      </trkpt>
      <trkpt lat="44.15054" lon="4.9904">
        <ele>232</ele>
        <time>2020-05-23T08:57:01Z</time>
      </trkpt>
      <trkpt lat="44.15041" lon="4.99036">
        <ele>230</ele>
        <time>2020-05-23T08:57:06Z</time>
      </trkpt>
      <trkpt lat="44.15039" lon="4.99035">
        <ele>230</ele>
        <time>2020-05-23T08:57:07Z</time>
      </trkpt>
      <trkpt lat="44.15036" lon="4.99034">
        <ele>230</ele>
        <time>2020-05-23T08:57:08Z</time>
      </trkpt>
      <trkpt lat="44.15034" lon="4.99034">
        <ele>230</ele>
        <time>2020-05-23T08:57:09Z</time>
      </trkpt>
      <trkpt lat="44.15032" lon="4.99034">
        <ele>229</ele>
        <time>2020-05-23T08:57:10Z</time>
      </trkpt>
      <trkpt lat="44.15009" lon="4.9903">
        <ele>227</ele>
        <time>2020-05-23T08:57:19Z</time>
      </trkpt>
      <trkpt lat="44.15007" lon="4.9903">
        <ele>227</ele>
        <time>2020-05-23T08:57:20Z</time>
      </trkpt>
      <trkpt lat="44.1499" lon="4.99035">
        <ele>225</ele>
        <time>2020-05-23T08:57:27Z</time>
      </trkpt>
      <trkpt lat="44.14988" lon="4.99036">
        <ele>225</ele>
        <time>2020-05-23T08:57:28Z</time>
      </trkpt>
      <trkpt lat="44.14985" lon="4.99036">
        <ele>224</ele>
        <time>2020-05-23T08:57:29Z</time>
      </trkpt>
      <trkpt lat="44.14983" lon="4.99037">
        <ele>224</ele>
        <time>2020-05-23T08:57:30Z</time>
      </trkpt>
      <trkpt lat="44.14981" lon="4.99038">
        <ele>224</ele>
        <time>2020-05-23T08:57:31Z</time>
      </trkpt>
      <trkpt lat="44.14978" lon="4.99038">
        <ele>224</ele>
        <time>2020-05-23T08:57:32Z</time>
      </trkpt>
      <trkpt lat="44.14975" lon="4.99039">
        <ele>223</ele>
        <time>2020-05-23T08:57:33Z</time>
      </trkpt>
      <trkpt lat="44.14973" lon="4.9904">
        <ele>223</ele>
        <time>2020-05-23T08:57:34Z</time>
      </trkpt>
      <trkpt lat="44.14971" lon="4.99041">
        <ele>223</ele>
        <time>2020-05-23T08:57:35Z</time>
      </trkpt>
      <trkpt lat="44.14968" lon="4.99041">
        <ele>222</ele>
        <time>2020-05-23T08:57:36Z</time>
      </trkpt>
      <trkpt lat="44.14965" lon="4.99041">
        <ele>222</ele>
        <time>2020-05-23T08:57:37Z</time>
      </trkpt>
      <trkpt lat="44.14963" lon="4.99041">
        <ele>222</ele>
        <time>2020-05-23T08:57:38Z</time>
      </trkpt>
      <trkpt lat="44.1496" lon="4.99041">
        <ele>221</ele>
        <time>2020-05-23T08:57:39Z</time>
      </trkpt>
      <trkpt lat="44.14957" lon="4.99042">
        <ele>221</ele>
        <time>2020-05-23T08:57:40Z</time>
      </trkpt>
      <trkpt lat="44.14952" lon="4.99045">
        <ele>220</ele>
        <time>2020-05-23T08:57:42Z</time>
      </trkpt>
      <trkpt lat="44.14951" lon="4.99047">
        <ele>220</ele>
        <time>2020-05-23T08:57:43Z</time>
      </trkpt>
      <trkpt lat="44.14948" lon="4.99047">
        <ele>219</ele>
        <time>2020-05-23T08:57:44Z</time>
      </trkpt>
      <trkpt lat="44.14945" lon="4.99047">
        <ele>219</ele>
        <time>2020-05-23T08:57:45Z</time>
      </trkpt>
      <trkpt lat="44.14943" lon="4.99046">
        <ele>219</ele>
        <time>2020-05-23T08:57:46Z</time>
      </trkpt>
      <trkpt lat="44.14914" lon="4.99041">
        <ele>216</ele>
        <time>2020-05-23T08:57:57Z</time>
      </trkpt>
      <trkpt lat="44.14898" lon="4.99039">
        <ele>214</ele>
        <time>2020-05-23T08:58:03Z</time>
      </trkpt>
      <trkpt lat="44.14897" lon="4.99038">
        <ele>214</ele>
        <time>2020-05-23T08:58:04Z</time>
      </trkpt>
      <trkpt lat="44.14895" lon="4.99037">
        <ele>214</ele>
        <time>2020-05-23T08:58:05Z</time>
      </trkpt>
      <trkpt lat="44.14892" lon="4.99037">
        <ele>214</ele>
        <time>2020-05-23T08:58:06Z</time>
      </trkpt>
      <trkpt lat="44.1489" lon="4.99037">
        <ele>214</ele>
        <time>2020-05-23T08:58:07Z</time>
      </trkpt>
      <trkpt lat="44.14887" lon="4.99036">
        <ele>214</ele>
        <time>2020-05-23T08:58:08Z</time>
      </trkpt>
      <trkpt lat="44.14859" lon="4.99034">
        <ele>211</ele>
        <time>2020-05-23T08:58:18Z</time>
      </trkpt>
      <trkpt lat="44.14845" lon="4.99034">
        <ele>210</ele>
        <time>2020-05-23T08:58:23Z</time>
      </trkpt>
      <trkpt lat="44.1484" lon="4.99034">
        <ele>209</ele>
        <time>2020-05-23T08:58:25Z</time>
      </trkpt>
      <trkpt lat="44.14832" lon="4.99037">
        <ele>208</ele>
        <time>2020-05-23T08:58:28Z</time>
      </trkpt>
      <trkpt lat="44.14809" lon="4.99037">
        <ele>206</ele>
        <time>2020-05-23T08:58:37Z</time>
      </trkpt>
      <trkpt lat="44.14802" lon="4.99038">
        <ele>205</ele>
        <time>2020-05-23T08:58:40Z</time>
      </trkpt>
      <trkpt lat="44.14782" lon="4.99034">
        <ele>203</ele>
        <time>2020-05-23T08:58:47Z</time>
      </trkpt>
      <trkpt lat="44.14774" lon="4.99031">
        <ele>202</ele>
        <time>2020-05-23T08:58:49Z</time>
      </trkpt>
      <trkpt lat="44.14736" lon="4.99027">
        <ele>198</ele>
        <time>2020-05-23T08:59:00Z</time>
      </trkpt>
      <trkpt lat="44.14708" lon="4.99024">
        <ele>195</ele>
        <time>2020-05-23T08:59:10Z</time>
      </trkpt>
      <trkpt lat="44.14679" lon="4.99022">
        <ele>192</ele>
        <time>2020-05-23T08:59:19Z</time>
      </trkpt>
      <trkpt lat="44.14659" lon="4.99021">
        <ele>189</ele>
        <time>2020-05-23T08:59:26Z</time>
      </trkpt>
      <trkpt lat="44.14642" lon="4.99016">
        <ele>187</ele>
        <time>2020-05-23T08:59:32Z</time>
      </trkpt>
      <trkpt lat="44.14639" lon="4.99016">
        <ele>187</ele>
        <time>2020-05-23T08:59:33Z</time>
      </trkpt>
      <trkpt lat="44.14622" lon="4.99015">
        <ele>185</ele>
        <time>2020-05-23T08:59:38Z</time>
      </trkpt>
      <trkpt lat="44.14616" lon="4.99018">
        <ele>185</ele>
        <time>2020-05-23T08:59:40Z</time>
      </trkpt>
      <trkpt lat="44.14612" lon="4.99022">
        <ele>184</ele>
        <time>2020-05-23T08:59:42Z</time>
      </trkpt>
      <trkpt lat="44.14612" lon="4.99025">
        <ele>184</ele>
        <time>2020-05-23T08:59:43Z</time>
      </trkpt>
      <trkpt lat="44.14612" lon="4.99028">
        <ele>184</ele>
        <time>2020-05-23T08:59:44Z</time>
      </trkpt>
      <trkpt lat="44.14612" lon="4.99032">
        <ele>184</ele>
        <time>2020-05-23T08:59:45Z</time>
      </trkpt>
      <trkpt lat="44.14613" lon="4.99037">
        <ele>184</ele>
        <time>2020-05-23T08:59:46Z</time>
      </trkpt>
      <trkpt lat="44.14612" lon="4.9908">
        <ele>184</ele>
        <time>2020-05-23T08:59:57Z</time>
      </trkpt>
      <trkpt lat="44.14611" lon="4.99082">
        <ele>184</ele>
        <time>2020-05-23T08:59:58Z</time>
      </trkpt>
      <trkpt lat="44.14608" lon="4.99082">
        <ele>184</ele>
        <time>2020-05-23T08:59:59Z</time>
      </trkpt>
      <trkpt lat="44.14606" lon="4.99083">
        <ele>183</ele>
        <time>2020-05-23T09:00:00Z</time>
      </trkpt>
      <trkpt lat="44.14604" lon="4.99082">
        <ele>183</ele>
        <time>2020-05-23T09:00:01Z</time>
      </trkpt>
      <trkpt lat="44.14601" lon="4.99082">
        <ele>183</ele>
        <time>2020-05-23T09:00:02Z</time>
      </trkpt>
      <trkpt lat="44.14599" lon="4.99082">
        <ele>183</ele>
        <time>2020-05-23T09:00:03Z</time>
      </trkpt>
      <trkpt lat="44.14596" lon="4.99081">
        <ele>182</ele>
        <time>2020-05-23T09:00:04Z</time>
      </trkpt>
      <trkpt lat="44.14594" lon="4.99081">
        <ele>182</ele>
        <time>2020-05-23T09:00:05Z</time>
      </trkpt>
      <trkpt lat="44.14592" lon="4.99081">
        <ele>182</ele>
        <time>2020-05-23T09:00:06Z</time>
      </trkpt>
      <trkpt lat="44.14589" lon="4.99081">
        <ele>182</ele>
        <time>2020-05-23T09:00:17Z</time>
      </trkpt>
      <trkpt lat="44.14592" lon="4.99082">
        <ele>182</ele>
        <time>2020-05-23T09:00:20Z</time>
      </trkpt>
      <trkpt lat="44.14596" lon="4.9908">
        <ele>182</ele>
        <time>2020-05-23T09:00:28Z</time>
      </trkpt>
      <trkpt lat="44.14594" lon="4.99081">
        <ele>182</ele>
        <time>2020-05-23T09:00:29Z</time>
      </trkpt>
      <trkpt lat="44.14593" lon="4.99081">
        <ele>182</ele>
        <time>2020-05-23T09:00:30Z</time>
      </trkpt>
      <trkpt lat="44.1459" lon="4.99081">
        <ele>182</ele>
        <time>2020-05-23T09:00:31Z</time>
      </trkpt>
      <trkpt lat="44.14588" lon="4.99082">
        <ele>181</ele>
        <time>2020-05-23T09:00:32Z</time>
      </trkpt>
      <trkpt lat="44.14585" lon="4.99082">
        <ele>181</ele>
        <time>2020-05-23T09:00:33Z</time>
      </trkpt>
      <trkpt lat="44.14583" lon="4.99082">
        <ele>181</ele>
        <time>2020-05-23T09:00:34Z</time>
      </trkpt>
      <trkpt lat="44.1458" lon="4.99082">
        <ele>181</ele>
        <time>2020-05-23T09:00:35Z</time>
      </trkpt>
      <trkpt lat="44.14577" lon="4.99081">
        <ele>180</ele>
        <time>2020-05-23T09:00:36Z</time>
      </trkpt>
      <trkpt lat="44.14553" lon="4.99082">
        <ele>178</ele>
        <time>2020-05-23T09:00:45Z</time>
      </trkpt>
      <trkpt lat="44.14525" lon="4.99082">
        <ele>175</ele>
        <time>2020-05-23T09:00:55Z</time>
      </trkpt>
      <trkpt lat="44.14499" lon="4.99083">
        <ele>173</ele>
        <time>2020-05-23T09:01:04Z</time>
      </trkpt>
      <trkpt lat="44.1447" lon="4.99082">
        <ele>169</ele>
        <time>2020-05-23T09:01:13Z</time>
      </trkpt>
      <trkpt lat="44.14439" lon="4.99084">
        <ele>166</ele>
        <time>2020-05-23T09:01:23Z</time>
      </trkpt>
      <trkpt lat="44.14413" lon="4.99086">
        <ele>162</ele>
        <time>2020-05-23T09:01:32Z</time>
      </trkpt>
      <trkpt lat="44.14387" lon="4.99086">
        <ele>160</ele>
        <time>2020-05-23T09:01:41Z</time>
      </trkpt>
      <trkpt lat="44.14381" lon="4.99085">
        <ele>159</ele>
        <time>2020-05-23T09:01:43Z</time>
      </trkpt>
      <trkpt lat="44.14352" lon="4.99088">
        <ele>156</ele>
        <time>2020-05-23T09:01:52Z</time>
      </trkpt>
      <trkpt lat="44.14321" lon="4.9909">
        <ele>153</ele>
        <time>2020-05-23T09:02:02Z</time>
      </trkpt>
      <trkpt lat="44.14291" lon="4.9909">
        <ele>150</ele>
        <time>2020-05-23T09:02:12Z</time>
      </trkpt>
      <trkpt lat="44.14278" lon="4.99089">
        <ele>150</ele>
        <time>2020-05-23T09:02:16Z</time>
      </trkpt>
      <trkpt lat="44.14268" lon="4.99088">
        <ele>149</ele>
        <time>2020-05-23T09:02:19Z</time>
      </trkpt>
      <trkpt lat="44.14252" lon="4.99087">
        <ele>148</ele>
        <time>2020-05-23T09:02:25Z</time>
      </trkpt>
      <trkpt lat="44.14233" lon="4.99085">
        <ele>146</ele>
        <time>2020-05-23T09:02:32Z</time>
      </trkpt>
      <trkpt lat="44.14204" lon="4.99067">
        <ele>144</ele>
        <time>2020-05-23T09:02:43Z</time>
      </trkpt>
      <trkpt lat="44.14178" lon="4.99044">
        <ele>142</ele>
        <time>2020-05-23T09:02:53Z</time>
      </trkpt>
      <trkpt lat="44.14147" lon="4.99026">
        <ele>140</ele>
        <time>2020-05-23T09:03:04Z</time>
      </trkpt>
      <trkpt lat="44.14113" lon="4.99017">
        <ele>137</ele>
        <time>2020-05-23T09:03:15Z</time>
      </trkpt>
      <trkpt lat="44.14083" lon="4.99017">
        <ele>134</ele>
        <time>2020-05-23T09:03:25Z</time>
      </trkpt>
      <trkpt lat="44.14052" lon="4.99009">
        <ele>132</ele>
        <time>2020-05-23T09:03:35Z</time>
      </trkpt>
      <trkpt lat="44.14029" lon="4.98992">
        <ele>130</ele>
        <time>2020-05-23T09:03:44Z</time>
      </trkpt>
      <trkpt lat="44.14001" lon="4.98971">
        <ele>129</ele>
        <time>2020-05-23T09:03:55Z</time>
      </trkpt>
      <trkpt lat="44.13973" lon="4.98956">
        <ele>129</ele>
        <time>2020-05-23T09:04:06Z</time>
      </trkpt>
      <trkpt lat="44.13951" lon="4.98943">
        <ele>129</ele>
        <time>2020-05-23T09:04:15Z</time>
      </trkpt>
      <trkpt lat="44.1393" lon="4.98925">
        <ele>127</ele>
        <time>2020-05-23T09:04:25Z</time>
      </trkpt>
      <trkpt lat="44.1391" lon="4.989">
        <ele>126</ele>
        <time>2020-05-23T09:04:35Z</time>
      </trkpt>
      <trkpt lat="44.1389" lon="4.98867">
        <ele>125</ele>
        <time>2020-05-23T09:04:46Z</time>
      </trkpt>
      <trkpt lat="44.13873" lon="4.98838">
        <ele>124</ele>
        <time>2020-05-23T09:04:55Z</time>
      </trkpt>
      <trkpt lat="44.13856" lon="4.98811">
        <ele>123</ele>
        <time>2020-05-23T09:05:04Z</time>
      </trkpt>
      <trkpt lat="44.1384" lon="4.98782">
        <ele>123</ele>
        <time>2020-05-23T09:05:13Z</time>
      </trkpt>
      <trkpt lat="44.13834" lon="4.9875">
        <ele>124</ele>
        <time>2020-05-23T09:05:22Z</time>
      </trkpt>
      <trkpt lat="44.13835" lon="4.98713">
        <ele>123</ele>
        <time>2020-05-23T09:05:32Z</time>
      </trkpt>
      <trkpt lat="44.13836" lon="4.98695">
        <ele>123</ele>
        <time>2020-05-23T09:05:41Z</time>
      </trkpt>
      <trkpt lat="44.13835" lon="4.98689">
        <ele>123</ele>
        <time>2020-05-23T09:05:52Z</time>
      </trkpt>
      <trkpt lat="44.13836" lon="4.98691">
        <ele>123</ele>
        <time>2020-05-23T09:06:00Z</time>
      </trkpt>
    </trkseg>
  </trk>
</gpx>